[[{"header":{"parameterUnit":"m.s-1","parameterCategory":1,"la1":30.6,"la2":28.766,"lo1":-90.7593,"lo2":-88.6598,"dy":0.0162,"dx":0.0183,"nx":116,"ny":114,"refTime":"2024-05-10T06:00:00:Z","depth":0,"parameterNumber":2,"parameterNumberName":"U-component_of_WINDS"},"data":[0.0,0.0,0.0,0.0,0.0,0.0,0.0,0.0,0.0,0.0,0.0,0.0,0.0,0.0,0.0,0.0,0.0,0.0,0.0,0.0,0.0,0.0,0.0,0.0,0.0,0.0,0.0,0.0,0.0,0.0,0.0,0.0,0.0,0.0,0.0,0.0,0.0,0.0,0.0,0.0,0.0,0.0,0.0,0.0,0.0,0.0,0.0,0.0,0.0,0.0,0.0,0.0,0.0,0.0,0.0,0.0,0.0,0.0,0.0,0.0,0.0,0.0,0.0,0.0,0.0,0.0,0.0,0.0,0.0,0.0,0.0,0.0,0.0,0.0,0.0,0.0,0.0,0.0,0.0,0.0,0.0,0.0,0.0,0.0,0.0,0.0,0.0,0.0,0.0,0.0,0.0,0.0,0.0,0.0,0.0,0.0,0.0,0.0,0.0,0.0,0.0,0.0,0.0,0.0,0.0,0.0,0.0,0.0,0.0,0.0,0.0,0.0,0.0,0.0,0.0,0.0,0.0,0.0,0.0,0.0,0.0,0.0,0.0,0.0,0.0,0.0,0.0,0.0,0.0,0.0,0.0,0.0,0.0,0.0,0.0,0.0,0.0,0.0,0.0,0.0,0.0,0.0,0.0,0.0,0.0,0.0,0.0,0.0,0.0,0.0,0.0,0.0,0.0,0.0,0.0,0.0,0.0,0.0,0.0,0.0,0.0,0.0,0.0,0.0,0.0,0.0,0.0,0.0,0.0,0.0,0.0,0.0,0.0,0.0,0.0,0.0,0.0,0.0,0.0,0.0,0.0,0.0,0.0,0.0,0.0,0.0,0.0,0.0,0.0,0.0,0.0,0.0,0.0,0.0,0.0,0.0,0.0,0.0,0.0,0.0,0.0,0.0,0.0,0.0,0.0,0.0,0.0,0.0,0.0,0.0,0.0,0.0,0.0,0.0,0.0,0.0,0.0,0.0,0.0,0.0,0.0,0.0,0.0,0.0,0.0,0.0,0.0,0.0,0.0,0.0,0.0,0.0,0.0,0.0,0.0,0.0,0.0,0.0,0.0,0.0,0.0,0.0,0.0,0.0,0.0,0.0,0.0,0.0,0.0,0.0,0.0,0.0,0.0,0.0,0.0,0.0,0.0,0.0,0.0,0.0,0.0,0.0,0.0,0.0,0.0,0.0,0.0,0.0,0.0,0.0,0.0,0.0,0.0,0.0,0.0,0.0,0.0,0.0,0.0,0.0,0.0,0.0,0.0,0.0,0.0,0.0,0.0,0.0,0.0,0.0,0.0,0.0,0.0,0.0,0.0,0.0,0.0,0.0,0.0,0.0,0.0,0.0,0.0,0.0,0.0,0.0,0.0,0.0,0.0,0.0,0.0,0.0,0.0,0.0,0.0,0.0,0.0,0.0,0.0,0.0,0.0,0.0,0.0,0.0,0.0,0.0,0.0,0.0,0.0,0.0,0.0,0.0,0.0,0.0,0.0,0.0,0.0,0.0,0.0,0.0,0.0,0.0,0.0,0.0,0.0,0.0,0.0,0.0,0.0,0.0,0.0,0.0,0.0,0.0,0.0,0.0,0.0,0.0,0.0,0.0,0.0,0.0,0.0,0.0,0.0,0.0,0.0,0.0,0.0,0.0,0.0,0.0,0.0,0.0,0.0,0.0,0.0,0.0,0.0,0.0,0.0,0.0,0.0,0.0,0.0,0.0,0.0,0.0,0.0,0.0,0.0,0.0,0.0,0.0,0.0,0.0,0.0,0.0,0.0,0.0,0.0,0.0,0.0,0.0,0.0,0.0,0.0,0.0,0.0,0.0,0.0,0.0,0.0,0.0,0.0,0.0,0.0,0.0,0.0,0.0,0.0,0.0,0.0,0.0,0.0,0.0,0.0,0.0,0.0,0.0,0.0,0.0,0.0,0.0,0.0,0.0,0.0,0.0,0.0,0.0,0.0,0.0,0.0,0.0,0.0,0.0,0.0,0.0,0.0,0.0,0.0,0.0,0.0,0.0,0.0,0.0,0.0,0.0,0.0,0.0,0.0,0.0,0.0,0.0,0.0,0.0,0.0,0.0,0.0,0.0,0.0,0.0,0.0,0.0,0.0,0.0,0.0,0.0,0.0,0.0,0.0,0.0,0.0,0.0,0.0,0.0,0.0,0.0,0.0,0.0,0.0,0.0,0.0,0.0,0.0,0.0,0.0,0.0,0.0,0.0,0.0,0.0,0.0,0.0,0.0,0.0,0.0,0.0,0.0,0.0,0.0,0.0,0.0,0.0,0.0,0.0,0.0,0.0,0.0,0.0,0.0,0.0,0.0,0.0,0.0,0.0,0.0,0.0,0.0,0.0,0.0,0.0,0.0,0.0,0.0,0.0,0.0,0.0,0.0,0.0,0.0,0.0,0.0,0.0,0.0,0.0,0.0,0.0,0.0,0.0,0.0,0.0,0.0,0.0,0.0,0.0,0.0,0.0,0.0,0.0,0.0,0.0,0.0,0.0,0.0,0.0,0.0,0.0,0.0,0.0,0.0,0.0,0.0,0.0,0.0,0.0,0.0,0.0,0.0,0.0,0.0,0.0,0.0,0.0,0.0,0.0,0.0,0.0,0.0,0.0,0.0,0.0,0.0,0.0,0.0,0.0,0.0,0.0,0.0,0.0,0.0,0.0,0.0,0.0,0.0,0.0,0.0,0.0,0.0,0.0,0.0,0.0,0.0,0.0,0.0,0.0,0.0,0.0,0.0,0.0,0.0,0.0,0.0,0.0,0.0,0.0,0.0,0.0,0.0,0.0,0.0,0.0,0.0,0.0,0.0,0.0,0.0,0.0,0.0,0.0,0.0,0.0,0.0,0.0,0.0,0.0,0.0,0.0,0.0,0.0,0.0,0.0,0.0,0.0,0.0,0.0,0.0,0.0,0.0,0.0,0.0,0.0,0.0,0.0,0.0,0.0,0.0,0.0,0.0,0.0,0.0,0.0,0.0,0.0,0.0,0.0,0.0,0.0,0.0,0.0,0.0,0.0,0.0,0.0,0.0,0.0,0.0,0.0,0.0,0.0,0.0,0.0,0.0,0.0,0.0,0.0,0.0,0.0,0.0,0.0,0.0,0.0,0.0,0.0,0.0,0.0,0.0,0.0,0.0,0.0,0.0,0.0,0.0,0.0,0.0,0.0,0.0,0.0,0.0,0.0,0.0,0.0,0.0,0.0,0.0,0.0,0.0,0.0,0.0,0.0,0.0,0.0,0.0,0.0,0.0,0.0,0.0,0.0,0.0,0.0,0.0,0.0,0.0,0.0,0.0,0.0,0.0,0.0,0.0,0.0,0.0,0.0,0.0,0.0,0.0,0.0,0.0,0.0,0.0,0.0,0.0,0.0,0.0,0.0,0.0,0.0,0.0,0.0,0.0,0.0,0.0,0.0,0.0,0.0,0.0,0.0,0.0,0.0,0.0,0.0,0.0,0.0,0.0,0.0,0.0,0.0,0.0,0.0,0.0,0.0,0.0,0.0,0.0,0.0,0.0,0.0,0.0,0.0,0.0,0.0,0.0,0.0,0.0,0.0,0.0,0.0,0.0,0.0,0.0,0.0,0.0,0.0,0.0,0.0,0.0,0.0,0.0,0.0,0.0,0.0,0.0,0.0,0.0,0.0,0.0,0.0,0.0,0.0,0.0,0.0,0.0,0.0,0.0,0.0,0.0,0.0,0.0,0.0,0.0,0.0,0.0,0.0,0.0,0.0,0.0,0.0,0.0,0.0,0.0,0.0,0.0,0.0,0.0,0.0,0.0,0.0,0.0,0.0,0.0,0.0,0.0,0.0,0.0,0.0,0.0,0.0,0.0,0.0,0.0,0.0,0.0,0.0,0.0,0.0,0.0,0.0,0.0,0.0,0.0,0.0,0.0,0.0,0.0,0.0,0.0,0.0,0.0,0.0,0.0,0.0,0.0,0.0,0.0,0.0,0.0,0.0,0.0,0.0,0.0,0.0,0.0,0.0,0.0,0.0,0.0,0.0,0.0,0.0,0.0,0.0,0.0,0.0,0.0,0.0,0.0,0.0,0.0,0.0,0.0,0.0,0.0,0.0,0.0,0.0,0.0,0.0,0.0,0.0,0.0,0.0,0.0,0.0,0.0,0.0,0.0,0.0,0.0,0.0,0.0,0.0,0.0,0.0,0.0,0.0,0.0,0.0,0.0,0.0,0.0,0.0,0.0,0.0,0.0,0.0,0.0,0.0,0.0,0.0,0.0,0.0,0.0,0.0,0.0,0.0,0.0,0.0,0.0,0.0,0.0,0.0,0.0,0.0,0.0,0.0,0.0,0.0,0.0,0.0,0.0,0.0,0.0,0.0,0.0,0.0,0.0,0.0,0.0,0.0,0.0,0.0,0.0,0.0,0.0,0.0,0.0,0.0,0.0,0.0,0.0,0.0,0.0,0.0,0.0,0.0,0.0,0.0,0.0,0.0,0.0,0.0,0.0,0.0,0.0,0.0,0.0,0.0,0.0,0.0,0.0,0.0,0.0,0.0,0.0,0.0,0.0,0.0,0.0,0.0,0.0,0.0,0.0,0.0,0.0,0.0,0.0,0.0,0.0,0.0,0.0,0.0,0.0,0.0,0.0,0.0,0.0,0.0,0.0,0.0,0.0,0.0,0.0,0.0,0.0,0.0,0.0,0.0,0.0,0.0,0.0,0.0,0.0,0.0,0.0,0.0,0.0,0.0,0.0,0.0,0.0,0.0,0.0,0.0,0.0,0.0,0.0,0.0,0.0,0.0,0.0,0.0,0.0,0.0,0.0,0.0,0.0,0.0,0.0,0.0,0.0,0.0,0.0,0.0,0.0,0.0,0.0,0.0,0.0,0.0,0.0,0.0,0.0,0.0,0.0,0.0,0.0,0.0,0.0,0.0,0.0,0.0,0.0,0.0,0.0,0.0,0.0,0.0,0.0,0.0,0.0,0.0,0.0,0.0,0.0,0.0,0.0,0.0,0.0,0.0,0.0,0.0,0.0,0.0,0.0,0.0,0.0,0.0,0.0,0.0,0.0,0.0,0.0,0.0,0.0,0.0,0.0,0.0,0.0,0.0,0.0,0.0,0.0,0.0,0.0,0.0,0.0,0.0,0.0,0.0,0.0,0.0,0.0,0.0,0.0,0.0,0.0,0.0,0.0,0.0,0.0,0.0,0.0,0.0,0.0,0.0,0.0,0.0,0.0,0.0,0.0,0.0,0.0,0.0,0.0,0.0,0.0,0.0,0.0,0.0,0.0,0.0,0.0,0.0,0.0,0.0,0.0,0.0,0.0,0.0,0.0,0.0,0.0,0.0,0.0,0.0,0.0,0.0,0.0,0.0,0.0,0.0,0.0,0.0,0.0,0.0,0.0,0.0,0.0,0.0,0.0,0.0,0.0,0.0,0.0,0.0,0.0,0.0,0.0,0.0,0.0,0.0,0.0,0.0,0.0,0.0,0.0,0.0,0.0,0.0,0.0,0.0,0.0,0.0,0.0,0.0,0.0,0.0,0.0,0.0,0.0,0.0,0.0,0.0,0.0,0.0,0.0,0.0,0.0,0.0,0.0,0.0,0.0,0.0,0.0,0.0,0.0,0.0,0.0,0.0,0.0,0.0,0.0,0.0,0.0,0.0,0.0,0.0,0.0,0.0,0.0,0.0,0.0,0.0,0.0,0.0,0.0,0.0,0.0,0.0,0.0,0.0,0.0,0.0,0.0,0.0,0.0,0.0,0.0,0.0,0.0,0.0,0.0,0.0,0.0,0.0,0.0,0.0,0.0,0.0,0.0,0.0,0.0,0.0,0.0,0.0,0.0,0.0,0.0,0.0,0.0,0.0,0.0,0.0,0.0,0.0,0.0,0.0,0.0,0.0,0.0,0.0,0.0,0.0,0.0,0.0,0.0,0.0,0.0,0.0,0.0,0.0,0.0,0.0,0.0,0.0,0.0,0.0,0.0,0.0,0.0,0.0,0.0,0.0,0.0,0.0,0.0,0.0,0.0,0.0,0.0,0.0,0.0,0.0,0.0,0.0,0.0,0.0,0.0,0.0,0.0,0.0,0.0,0.0,0.0,0.0,0.0,0.0,0.0,0.0,0.0,0.0,2.3604,0.0,0.0,0.0,0.0,0.0,0.0,0.0,0.0,0.0,0.0,0.0,0.0,0.0,0.0,0.0,0.0,0.0,0.0,0.0,0.0,0.0,0.0,0.0,0.0,4.6308,4.6308,4.6308,4.6308,4.6308,4.6308,0.0,0.0,0.0,0.0,0.0,4.6308,4.6308,4.6308,4.6308,4.5879,4.5449,4.5019,4.5898,4.6074,4.5683,0.0,0.0,0.0,0.0,0.0,0.0,0.0,0.0,0.0,0.0,0.0,0.0,0.0,0.0,0.0,0.0,0.0,0.0,0.0,0.0,0.0,0.0,0.0,0.0,0.0,0.0,0.0,0.0,0.0,0.0,0.0,0.0,0.0,0.0,0.0,0.0,0.0,0.0,0.0,0.0,0.0,0.0,0.0,0.0,0.0,0.0,0.0,0.0,0.0,0.0,0.0,0.0,0.0,0.0,0.0,0.0,0.0,0.0,0.0,0.0,0.0,0.0,0.0,0.0,0.0,0.0,0.0,0.0,0.0,0.0,0.0,2.0147,0.0,0.0,0.0,0.0,0.0,0.0,0.0,0.0,0.0,0.0,0.0,0.0,0.0,0.0,0.0,0.0,0.0,0.0,0.0,0.0,0.0,4.6308,4.6308,4.6308,4.6367,4.6504,4.6387,4.6367,4.6523,4.6387,0.0,0.0,0.0,4.6308,4.6308,4.6308,4.6308,4.6308,4.5723,4.5371,4.5254,4.6269,4.6289,4.5449,4.5879,0.0,0.0,0.0,0.0,0.0,0.0,0.0,0.0,0.0,0.0,0.0,0.0,0.0,0.0,0.0,0.0,0.0,0.0,0.0,0.0,0.0,0.0,0.0,0.0,0.0,0.0,0.0,0.0,0.0,0.0,0.0,0.0,0.0,0.0,0.0,0.0,0.0,0.0,0.0,0.0,0.0,0.0,0.0,0.0,0.0,0.0,0.0,0.0,0.0,0.0,0.0,0.0,0.0,0.0,0.0,0.0,0.0,0.0,0.0,0.0,0.0,0.0,0.0,1.6861,1.4184,1.2311,0.938,0.8393,0.9222,1.3138,1.5207,1.5652,1.1915,0.0,0.0,0.0,0.0,0.0,0.0,0.0,0.0,0.0,0.0,0.0,0.0,0.0,0.0,0.0,0.0,0.0,0.0,0.0,4.6308,4.6308,4.6308,4.6601,4.7363,4.6738,4.6621,4.7383,4.6719,4.6308,4.6308,4.6308,4.6308,4.6308,4.6308,4.6308,4.6308,4.6933,4.6875,4.6152,4.7793,4.8027,4.7031,4.5742,4.6426,4.8418,0.0,0.0,0.0,0.0,0.0,0.0,0.0,0.0,0.0,0.0,0.0,0.0,0.0,0.0,0.0,0.0,0.0,0.0,0.0,0.0,0.0,0.0,0.0,0.0,0.0,0.0,0.0,0.0,0.0,0.0,0.0,0.0,0.0,0.0,0.0,0.0,0.0,0.0,0.0,0.0,0.0,3.7314,3.7421,0.0,0.0,0.0,0.0,0.0,0.0,0.0,0.0,0.0,0.0,0.0,0.0,0.0,2.3997,2.0957,1.9928,1.5771,0.8556,0.5716,0.337,0.1565,0.3427,0.598,0.8489,-0.046,0.0,0.4801,0.4402,0.0,0.0,0.0,0.0,0.0,0.0,0.0,0.0,0.0,0.0,0.0,0.0,0.0,0.0,0.0,0.0,0.0,0.0,0.0,0.0,0.0,4.7617,4.8457,4.834,4.9668,4.9883,4.8437,4.832,4.7715,4.6367,4.6308,4.6308,4.6308,4.6308,4.6055,4.5566,4.7422,4.7383,4.5625,4.7773,4.8281,4.7344,4.6076,4.6144,4.7109,4.5508,0.0,0.0,0.0,0.0,0.0,0.0,0.0,0.0,0.0,0.0,0.0,0.0,0.0,0.0,0.0,0.0,0.0,0.0,0.0,0.0,0.0,0.0,0.0,0.0,0.0,0.0,0.0,0.0,0.0,0.0,0.0,0.0,0.0,0.0,0.0,0.0,0.0,0.0,0.0,3.8536,3.7016,3.3214,3.4339,3.4028,0.0,0.0,0.0,0.0,0.0,0.0,0.0,0.0,0.0,2.4701,2.3349,1.9445,1.2962,1.257,0.955,0.3801,0.062,-0.2407,-0.5203,-0.3843,-0.1426,0.138,-0.3554,-0.4786,-0.3151,-0.1293,0.0492,0.2413,0.0,0.0,0.0,0.0,1.4706,1.3672,0.0,0.0,0.0,0.0,0.0,0.0,0.0,0.0,0.0,0.0,0.0,0.0,4.6914,4.8906,5.0195,5.0195,5.1992,5.2103,4.9697,4.9365,4.8379,4.6387,4.6308,4.6308,4.6308,4.6523,4.6211,4.5332,4.7949,4.7988,4.5664,4.7969,4.8528,4.7591,4.663,4.6466,4.6791,4.5332,4.4825,4.4981,0.0,0.0,0.0,0.0,0.0,0.0,0.0,0.0,0.0,0.0,0.0,0.0,0.0,0.0,0.0,0.0,0.0,0.0,0.0,0.0,0.0,0.0,0.0,0.0,0.0,0.0,0.0,0.0,0.0,0.0,0.0,0.0,0.0,0.0,0.0,0.0,0.0,3.7842,3.5633,3.0041,3.1927,3.1527,0.0,0.0,0.0,0.0,0.0,0.0,2.3796,2.2262,2.0434,1.8203,1.7295,1.3397,0.605,0.5009,0.3076,0.0229,-0.3163,-0.6277,-0.8937,-0.8633,-0.7263,-0.5052,-0.505,-0.6147,-0.7806,-0.5499,-0.3929,-0.2599,0.1717,0.2701,0.2306,0.6482,0.7387,0.5843,0.0,0.0,0.0,0.0,0.0,0.0,0.0,0.0,0.0,0.0,0.0,4.6933,4.8594,4.9629,5.1152,5.3535,5.2266,5.1304,5.1272,4.8919,4.7168,4.6348,4.6308,4.6308,4.6308,4.7109,4.7109,4.623,4.8848,4.9141,4.7324,4.9101,4.9322,4.8221,4.7396,4.799,4.9379,4.6094,4.5182,4.5931,4.5819,0.0,0.0,0.0,0.0,0.0,0.0,0.0,0.0,0.0,0.0,0.0,0.0,0.0,0.0,0.0,0.0,0.0,0.0,0.0,0.0,0.0,0.0,0.0,0.0,0.0,0.0,0.0,0.0,0.0,0.0,0.0,0.0,0.0,0.0,0.0,0.0,0.0,0.0,3.0761,2.861,0.0,0.0,0.0,0.0,2.1444,2.2768,2.3226,2.2288,1.9913,1.5921,1.0345,0.6985,0.4145,0.1952,-0.1335,-0.3513,-0.4608,-0.7568,-0.8977,-0.9158,-0.8749,-0.8443,-0.8048,-0.7842,-0.7839,-0.8038,-0.7809,-0.7681,-0.7104,-0.1834,-0.0178,-0.0626,0.0186,0.0186,-0.1106,0.0,0.0,0.0,0.0,0.0,4.5469,4.5469,4.5937,4.6308,4.6308,4.7285,4.8418,4.9609,5.248,5.4453,5.4805,5.5137,5.4443,5.2376,5.0209,4.8457,4.7187,4.6601,4.6269,4.6172,4.6484,4.6445,4.6035,4.8105,4.8183,4.6465,4.8129,4.8385,4.7451,4.7124,4.7181,4.739,4.5101,4.4427,4.4752,4.2954,4.2466,0.0,0.0,0.0,0.0,0.0,0.0,0.0,0.0,0.0,0.0,0.0,0.0,0.0,0.0,0.0,0.0,0.0,0.0,0.0,0.0,0.0,0.0,0.0,0.0,0.0,0.0,0.0,0.0,0.0,0.0,0.0,0.0,0.0,0.0,0.0,0.0,0.0,2.6888,2.7065,0.0,1.9823,2.0916,2.1527,2.0241,1.5779,1.2447,1.0845,0.8529,0.613,0.3373,0.06,-0.3003,-0.7744,-0.8957,-1.008,-1.0848,-1.0833,-1.0764,-1.0532,-0.9172,-0.8532,-0.845,-0.8141,-0.8038,-0.8038,-0.8038,-0.8038,-0.7819,-0.5851,-0.4248,-0.2614,-0.0689,-0.2365,-0.5699,0.0,0.0,0.0,4.3691,4.416,4.4531,4.4531,4.5273,4.582,4.582,4.7617,4.9453,5.0898,5.4375,5.6601,5.6601,5.6699,5.5599,5.288,5.0401,4.8496,4.7226,4.6562,4.6191,4.6094,4.6331,4.6287,4.5897,4.7345,4.7306,4.5891,4.6964,4.712,4.6525,4.6487,4.6238,4.5817,4.4582,4.3866,4.3434,4.229,4.2302,4.2736,0.0,0.0,0.0,0.0,0.0,0.0,0.0,0.0,0.0,0.0,0.0,0.0,0.0,0.0,0.0,0.0,0.0,0.0,0.0,0.0,0.0,0.0,0.0,0.0,0.0,0.0,0.0,0.0,0.0,0.0,0.0,0.0,0.0,0.0,3.4001,3.124,2.5124,2.592,2.3809,1.5632,1.5648,1.5464,1.368,0.8153,0.3643,0.0845,-0.2308,-0.4275,-0.4523,-0.5975,-0.8636,-1.2636,-1.2751,-1.3198,-1.4167,-1.3011,-1.2008,-1.1181,-1.0327,-0.937,-0.8428,-0.8578,-0.845,-0.8038,-0.8038,-0.8038,-0.8041,-0.7952,-0.6945,-0.5131,-0.3332,-0.4349,-0.6673,0.0,4.3613,4.3613,4.3613,4.3594,4.3554,4.3554,4.4316,4.4902,4.4902,4.7285,4.9922,5.2422,5.5058,5.7305,5.8965,5.6601,5.4355,5.2754,4.9336,4.7051,4.6328,4.6152,4.6074,4.6093,4.6768,4.6698,4.5892,4.6737,4.6679,4.5796,4.5796,4.5719,4.5586,4.5586,4.5393,4.5053,4.4726,4.3605,4.2213,4.4186,4.4001,4.2579,0.0,0.0,0.0,0.0,0.0,0.0,0.0,0.0,0.0,0.0,0.0,0.0,0.0,0.0,0.0,0.0,0.0,0.0,0.0,0.0,0.0,0.0,0.0,0.0,0.0,0.0,0.0,0.0,0.0,0.0,0.0,0.0,0.0,3.4905,3.275,2.9768,2.5825,2.4828,2.0538,1.0675,0.721,0.4403,0.1357,0.0122,-0.2417,-0.6581,-1.1679,-1.4024,-1.2888,-1.2897,-1.263,-1.2097,-1.2213,-1.2825,-1.4129,-1.3898,-1.2893,-1.1185,-1.2163,-1.1048,-0.8466,-0.9558,-0.9275,-0.8038,-0.8038,-0.8038,-0.8041,-0.7975,-0.7989,-0.7992,-0.7932,-0.6176,-0.4112,4.1992,4.1894,4.1894,4.1894,4.2305,4.2659,4.2665,4.3943,4.4906,4.49,4.8281,5.1211,5.2558,5.5605,5.748,5.7324,5.4883,5.2891,5.1836,4.8516,4.6504,4.6308,4.5566,4.5414,4.5932,4.5488,4.5393,4.568,4.593,4.5911,4.5643,4.5643,4.5624,4.5586,4.5355,4.5049,4.4708,4.4341,4.3752,4.3057,4.2637,4.288,4.3316,0.0,0.0,0.0,0.0,0.0,0.0,0.0,0.0,0.0,0.0,0.0,0.0,0.0,0.0,0.0,0.0,0.0,0.0,0.0,0.0,0.0,0.0,0.0,0.0,0.0,0.0,0.0,0.0,0.0,0.0,0.0,3.6723,3.5746,3.3583,3.1135,2.8017,2.3659,1.9514,1.4227,0.7018,0.1954,-0.1095,-0.1953,-0.5249,-0.7691,-0.8896,-1.1427,-1.2248,-1.0759,-1.1752,-1.1562,-1.0293,-1.1307,-1.2508,-1.3872,-1.2576,-1.2121,-1.2314,-1.135,-1.0412,-0.9657,-0.99,-0.9232,-0.8038,-0.8038,-0.8038,-0.8041,-0.8048,-0.7952,-0.7839,-0.6446,-0.6066,-0.6458,4.1289,4.1191,4.1172,4.1133,4.1426,4.1667,4.1619,4.2819,4.387,4.4215,4.7812,5.0801,5.2012,5.4629,5.5918,5.5039,5.293,5.0976,4.9375,4.7051,4.6074,4.6816,4.582,4.5635,4.6427,4.547,4.5182,4.5586,4.5586,4.5586,4.5586,4.5586,4.5586,4.5586,4.5259,4.4899,4.4575,4.4178,4.3789,4.3424,4.2642,4.3274,4.4459,4.2927,4.3019,4.3772,4.2527,4.2637,4.3204,4.2302,0.0,0.0,0.0,0.0,0.0,0.0,0.0,0.0,0.0,0.0,0.0,0.0,0.0,0.0,0.0,0.0,0.0,0.0,0.0,0.0,0.0,0.0,0.0,0.0,3.7728,3.7056,3.5096,3.1746,2.7945,2.3728,1.6684,0.9779,0.343,-0.2534,-0.6259,-0.6958,-0.8699,-1.0072,-1.0826,-1.1744,-1.1873,-1.1106,-1.1667,-1.1094,-0.9394,-1.1024,-1.2476,-1.3734,-1.3194,-1.2904,-1.2756,-1.2783,-1.2124,0.0,-1.0815,-1.0096,-0.8825,-0.8233,-0.8333,0.0,0.0,0.0,0.0,0.0,-0.6509,-0.7272,4.0879,4.0957,4.0976,4.0859,4.0818,4.0779,4.0703,4.1501,4.2412,4.3296,4.6523,4.9355,5.0957,5.2676,5.3359,5.248,5.0976,4.8984,4.6465,4.5664,4.5976,4.7539,4.6621,4.6415,4.7176,4.6161,4.5643,4.5757,4.5643,4.5643,4.5738,4.5643,4.5586,4.5586,4.5259,4.491,4.4573,4.4189,4.3789,4.3497,4.3497,4.4336,4.5471,4.4271,4.432,4.482,4.3178,4.2508,4.2409,4.2198,0.0,0.0,0.0,0.0,0.0,0.0,0.0,0.0,0.0,0.0,0.0,0.0,0.0,0.0,0.0,0.0,0.0,0.0,0.0,0.0,0.0,0.0,0.0,0.0,3.8781,3.868,3.8187,3.3558,2.8715,2.4961,1.5373,0.6715,0.0365,-0.6053,-1.0476,-1.2193,-1.0701,-1.0447,-1.1841,0.0,0.0,0.0,0.0,-1.1066,-0.9215,-1.0763,-1.2007,-1.3144,-1.4235,-1.4086,-1.2593,-1.5004,-1.4631,-1.2133,-1.1991,-1.1156,-0.9912,-0.8737,-0.913,-1.0404,-1.0538,-0.9561,-0.8072,-0.7353,-0.7112,-0.7089,3.8861,3.9434,3.9902,3.9883,4.0344,4.0713,4.0693,4.1501,4.2412,4.3296,4.5996,4.8242,4.9277,5.0898,5.1562,5.0742,4.9746,4.834,4.6426,4.6797,4.7246,4.7598,4.7285,4.7142,4.7195,4.6238,4.6046,4.6641,4.595,4.5969,4.6621,4.593,4.5586,4.5586,4.5259,4.491,4.4573,4.4189,4.3789,4.3497,4.3497,4.3826,4.4303,4.4062,4.4263,4.4556,4.3512,4.398,4.4854,4.3515,4.3571,4.4098,4.3502,4.2431,0.0,0.0,0.0,0.0,0.0,0.0,0.0,0.0,0.0,0.0,0.0,0.0,0.0,0.0,0.0,0.0,0.0,0.0,0.0,3.971,4.01,4.0199,3.9578,3.3872,2.8181,2.3948,1.4055,0.5118,-0.1337,-0.6653,-1.048,-1.2699,-1.0951,-0.9947,-1.02,-1.1461,-1.1679,-1.0485,-1.137,-1.099,-0.9262,-0.937,-0.9583,-0.9669,0.0,0.0,-1.2357,-1.3722,-1.4075,-1.3446,-1.2326,-1.1172,-0.9983,-0.9689,-1.0969,-1.2927,-1.0779,-0.962,-0.9046,-0.7787,-0.7207,-0.7118,3.6997,3.8013,3.9064,3.9431,3.9475,3.9723,4.0581,4.0773,4.1335,4.2671,4.4473,4.5976,4.6855,4.7695,4.7851,4.7012,4.6152,4.582,4.6269,4.6719,4.7539,4.8848,4.7871,4.7464,4.7843,4.6443,4.5873,4.6238,4.5819,4.5819,4.6238,4.5796,4.5586,4.5566,4.5068,4.4763,4.4572,4.399,4.366,4.3497,4.3497,4.3605,4.3781,4.3943,4.412,4.4229,4.3814,4.4062,4.4499,4.3369,4.3587,4.414,4.3175,4.2724,4.245,0.0,0.0,0.0,0.0,0.0,0.0,0.0,0.0,0.0,0.0,0.0,0.0,0.0,0.0,3.8482,3.7615,0.0,4.0338,3.9298,4.0359,4.0819,3.9202,3.3442,2.7783,2.3608,1.4396,0.5544,-0.163,-0.6747,-0.9786,-1.0061,-0.8366,-0.7126,-0.6595,-0.9319,-1.0451,-0.9572,-1.0127,-1.008,-0.9061,-0.894,-0.8826,-0.8709,-1.0523,-1.1706,-1.2268,-1.4046,-1.4879,-1.4766,-1.3507,-1.2544,-1.1978,-1.1978,-1.2615,-1.345,-1.1395,-1.0573,-1.0323,-0.8794,-0.7726,-0.7139,3.5661,3.6727,3.7993,3.8738,3.8481,3.8635,3.9985,3.972,4.0015,4.1813,4.2734,4.3613,4.4648,4.4746,4.4453,4.3769,4.3203,4.3808,4.5918,4.6523,4.7754,4.9863,4.8379,4.781,4.8493,4.661,4.5719,4.5853,4.584,4.584,4.5853,4.6007,4.5969,4.5719,4.5336,4.4997,4.4679,4.4079,4.3789,4.3716,4.3569,4.3605,4.3752,4.3879,4.3915,4.3915,4.3915,4.3424,4.2805,4.2842,4.3013,4.3085,4.2501,4.2904,4.3367,4.217,4.1894,0.0,0.0,0.0,0.0,0.0,0.0,0.0,0.0,3.7936,3.8116,3.8209,3.8834,3.9018,3.7771,3.9408,4.0352,3.8757,3.9953,4.0279,3.8026,3.2795,2.7781,2.3899,1.5187,0.6924,0.0112,-0.5006,-0.7332,-0.5887,-0.5129,-0.4304,-0.3297,-0.686,-0.9042,-0.9407,-0.9281,-0.9298,-0.94,-0.9054,-0.894,-0.9158,-1.1012,-1.1913,-1.1857,-1.4028,-1.5082,-1.4975,-1.3714,-1.3093,-1.3147,-1.3147,-1.3133,-1.2915,-1.189,-1.1308,-1.0847,-0.9328,-0.8041,-0.7139,3.5545,3.568,3.6045,3.6848,3.7613,3.817,3.8373,3.8461,3.9155,4.0918,4.1348,4.207,4.3672,4.3848,4.3808,4.3711,4.4316,4.4824,4.5137,4.7324,4.873,4.9023,4.8711,4.8523,4.8497,4.6711,4.6103,4.6737,4.6756,4.6756,4.6756,4.7503,4.7255,4.6238,4.6889,4.6401,4.5115,4.506,4.4847,4.4518,4.3789,4.3934,4.4499,4.3789,4.3569,4.3569,4.3569,4.2168,4.063,4.2732,4.2037,4.0745,4.3048,4.3376,4.286,4.2639,4.214,4.1367,3.9976,3.8432,3.7511,3.8801,3.8331,3.8507,0.0,4.1573,4.0677,4.2197,4.1043,3.9821,4.0117,3.9223,3.8606,3.9358,3.8512,3.7462,3.6452,3.2347,2.8321,2.5207,1.5665,0.8275,0.5879,0.1455,-0.1234,-0.1018,-0.2728,-0.3671,-0.333,-0.544,-0.7469,-0.929,-0.9269,-0.9813,-1.1007,-0.9511,-0.9282,-1.0536,-1.0471,-1.036,-1.0247,-1.1657,-1.2368,-1.2268,-1.0948,-1.0455,-1.0469,-1.0274,-1.0891,-1.1842,-1.1305,-1.0482,-0.9393,-0.7871,-0.72,-0.7139,3.5526,3.5493,3.5622,3.6001,3.6378,3.7006,3.8098,3.7951,3.8164,3.9434,4.0098,4.0703,4.1406,4.1933,4.2246,4.2246,4.3476,4.4668,4.5683,4.7734,4.9297,5.0195,4.918,4.8527,4.8386,4.6602,4.5834,4.6142,4.6641,4.6777,4.657,4.7372,4.7391,4.6704,4.68,4.6499,4.5883,4.5694,4.5542,4.5342,4.4638,4.4509,4.4573,4.3424,4.2606,4.2079,4.2079,4.1154,0.0,4.0137,4.0063,4.005,4.0818,4.1227,4.1434,4.1669,4.1686,4.149,4.0736,3.9863,3.9164,3.9174,3.9446,4.0068,4.1453,4.1171,4.0797,4.1527,4.0987,4.04,4.0454,3.992,3.9078,3.7925,3.7356,3.6163,3.3837,3.0198,2.7127,2.5604,1.9994,1.4017,0.8513,0.6239,0.4443,0.2783,0.3301,0.3011,0.1519,-0.4312,-0.7949,-0.8836,-0.8826,-0.9396,-1.0777,-1.0016,-0.9922,-1.0464,-1.1107,-1.0874,-1.0019,-1.1356,-1.1878,-1.1878,-1.1356,-1.1049,-1.0947,-1.0942,-1.1062,-1.1252,-1.0411,-0.962,-0.8979,-0.8332,-0.769,-0.7139,3.5526,3.5493,3.5526,3.5603,3.5601,3.6075,3.7497,3.7226,3.7207,3.8125,3.8789,3.9375,3.9844,4.0469,4.0937,4.1172,4.2305,4.373,4.5469,4.7207,4.8769,5.0098,4.886,4.8097,4.7964,4.6641,4.5969,4.5969,4.7062,4.7259,4.6647,4.7704,4.7853,4.7207,4.7339,4.7256,4.6925,4.6929,4.6688,4.623,4.5349,4.4823,4.4317,4.2468,4.1186,4.0401,4.0672,3.9816,3.8478,3.8156,3.8276,3.8587,3.8849,3.9428,4.0112,4.0496,4.0858,4.1073,4.0889,4.0664,4.0377,3.9964,4.0686,4.1434,4.1162,4.1154,4.1194,4.1171,4.1035,4.091,4.0908,4.0764,3.9847,3.7453,3.6798,3.5404,3.1995,2.939,2.763,2.6662,2.5545,2.1579,1.3177,1.1296,0.9511,0.6564,0.7916,0.7607,0.4494,-0.2789,-0.7419,-0.8366,-0.8471,-0.9137,-1.0477,-1.004,-0.9953,-1.0293,-1.0798,-1.0527,-0.9486,-1.0423,-1.0843,-1.0843,-1.0843,-1.0739,-1.0618,-1.0599,-1.0357,-1.0004,-0.9071,-0.8609,-0.8424,-0.8424,-0.7871,-0.7051,3.5493,3.5493,3.5526,3.5603,3.5606,3.5683,3.5937,3.6016,3.6348,3.7226,3.7363,3.8027,3.9726,3.9922,4.0273,4.1133,4.125,4.1992,4.3672,4.541,4.6719,4.748,4.7338,4.7202,4.7139,4.6966,4.6852,4.6852,4.8503,4.8699,4.7491,4.922,4.9195,4.7737,4.9285,4.934,4.8306,4.9137,4.8638,4.7219,4.5731,4.4706,4.381,4.0802,3.9188,3.8603,3.9608,3.7871,3.5514,3.7875,3.7108,3.557,3.7955,3.8909,3.9215,3.9538,3.9644,3.9707,3.9883,3.9785,4.0023,4.1622,4.1989,4.22,4.3023,4.2896,4.2629,4.2649,4.1868,4.1358,4.2023,4.163,4.0608,3.8866,3.7365,3.5169,3.1423,3.1479,3.1088,2.8956,3.1728,3.0483,2.1947,1.7475,1.3825,1.0777,0.9511,0.7154,0.3254,-0.0673,-0.4563,-0.8192,-0.8478,-0.9203,-1.0666,-0.9123,-0.9072,-1.0364,-0.8841,-0.8141,-0.8041,-0.8141,-0.8141,-0.8141,-0.8141,-0.8041,-0.7892,-0.7788,-0.7616,-0.7507,-0.7234,-0.7143,-0.7143,-0.7143,-0.7139,-0.7051,3.5493,3.5493,3.5526,3.5603,3.5604,3.563,3.5756,3.5795,3.5918,3.6191,3.7285,0.0,0.0,0.0,0.0,0.0,4.0332,4.1055,4.2734,4.4473,4.5762,4.6504,4.7039,4.7008,4.6333,4.6737,4.6969,4.6973,4.8606,4.8914,4.801,4.9706,4.9969,4.9007,5.0079,5.0016,4.92,4.9496,4.9013,4.797,4.6023,4.5094,4.444,4.0995,3.8971,3.7917,0.0,3.5959,3.4686,3.5256,3.5256,3.5174,3.6242,3.6648,3.6813,3.7421,3.817,3.8965,3.9707,4.0129,4.0752,4.2271,4.2755,4.3014,4.3619,4.3206,4.2612,4.2232,4.0713,3.9819,4.1223,3.9986,3.8819,3.8995,3.772,3.5272,3.1163,2.937,2.7071,2.3394,2.4253,2.286,1.6985,2.1158,2.1107,1.355,1.0501,0.7249,0.3449,-0.1118,-0.4996,-0.7959,-0.8144,-0.9275,-1.1473,-1.0941,-1.0886,-1.1399,-0.9126,-0.8038,-0.8038,-0.8038,-0.7939,-0.7836,-0.7939,-0.7836,-0.7585,-0.758,-0.7415,-0.7238,-0.7111,-0.6174,-0.4772,-0.4772,-0.4772,-0.4976,0.0,3.593,3.593,3.6001,3.6001,0.0,0.0,0.0,0.0,0.0,0.0,0.0,0.0,0.0,0.0,0.0,0.0,3.9687,4.1406,4.2558,4.3652,4.4707,4.4974,4.4924,4.4544,4.5002,4.5529,4.6148,4.7434,4.8068,4.8048,4.895,4.9226,4.8977,4.9625,4.9815,4.958,4.9583,4.8831,4.7518,4.5576,4.4296,4.3149,3.9649,3.7806,0.0,3.5295,3.4366,3.3962,3.3844,3.4209,3.4741,3.4971,3.5399,3.5983,3.6542,3.7698,3.9082,4.0391,4.1192,4.2027,4.358,4.3861,4.3824,4.4165,4.3679,4.2896,4.1951,4.0566,3.9796,4.0547,3.9596,3.876,3.9003,3.7976,3.5576,3.1196,2.8596,2.613,2.3235,2.3061,2.1501,1.7098,2.2494,2.2644,1.373,1.1966,0.8696,0.2552,-0.1307,-0.517,-0.8777,-0.8347,-0.9275,-1.19,-1.1452,-1.1246,-1.116,-0.9069,-0.8038,-0.8038,-0.7939,-0.7939,-0.7826,-0.7911,-0.7244,-0.6165,-0.6318,-0.6159,-0.5914,-0.677,-0.6163,-0.4768,-0.3889,-0.3624,-0.3909,0.0,0.0,3.6708,0.0,0.0,0.0,0.0,0.0,0.0,0.0,0.0,0.0,0.0,0.0,0.0,0.0,0.0,0.0,3.9668,3.9805,4.0508,4.2031,4.1406,4.1328,4.1973,4.2109,4.2955,4.4536,4.5379,4.6416,4.7645,4.726,4.7325,4.7663,4.8085,4.8696,4.9404,4.9313,4.8029,4.5957,4.4392,4.2451,4.0218,3.7169,3.5978,3.5711,3.3934,3.3295,3.3313,3.3697,3.4052,3.4315,3.4315,3.5356,3.6644,3.6953,3.8242,3.9979,4.1854,4.2812,4.3687,4.5467,4.5241,4.459,4.4562,4.4202,4.3382,4.1724,4.1217,4.0795,3.9874,4.0223,4.0247,3.9016,3.8414,3.6457,3.1758,2.9381,2.8099,2.7862,2.7205,2.5282,2.1039,2.0799,1.8022,1.0878,0.0,1.1157,0.1218,-0.1559,-0.5196,-1.0423,-0.9057,-0.947,-1.2004,-1.0817,-1.0206,-1.0108,-0.8759,-0.8041,-0.7939,-0.7836,-0.7819,-0.7963,-0.7675,-0.6278,-0.4148,-0.3877,-0.3521,-0.3346,-0.5579,-0.6521,-0.6319,-0.4101,-0.3236,-0.3506,0.0,0.0,0.0,0.0,0.0,0.0,0.0,0.0,0.0,0.0,0.0,0.0,0.0,0.0,0.0,0.0,0.0,0.0,3.7891,3.8574,3.9101,3.9531,4.0566,4.0937,4.0469,4.2226,4.3353,4.3787,4.5821,4.6795,4.6759,4.7886,4.7947,4.7114,4.7844,4.7597,4.6621,4.6408,4.5663,4.449,4.2718,4.1756,4.1053,3.8618,3.7158,3.6303,3.5275,3.4494,3.3962,3.4054,3.4832,3.577,3.5883,3.6792,3.7982,3.869,3.9725,4.1013,4.2789,4.37,4.4448,4.5619,4.5227,4.4509,4.4097,4.3023,4.163,3.9917,3.7964,3.6389,3.586,3.7248,3.8588,3.8892,4.0862,4.0745,3.6222,3.1729,2.7646,2.417,1.7385,1.1002,0.6032,0.7975,0.768,0.3121,0.9892,1.1269,0.4677,-0.3849,-0.8969,-1.0112,-1.0604,-1.1726,-1.3397,-1.3091,-1.2368,-1.1373,-1.0108,-0.8866,-0.7836,-0.7836,-0.7697,-0.7458,-0.5705,-0.5499,-0.6065,-0.2519,0.0888,0.373,0.3117,0.1922,0.0562,0.1149,0.1377,0.134,0.0,0.0,0.0,0.0,0.0,0.0,0.0,0.0,0.0,0.0,0.0,0.0,0.0,0.0,0.0,0.0,0.0,0.0,0.0,3.7402,3.7637,3.8008,3.8594,3.8867,3.8769,4.0098,4.0937,4.1269,4.3418,4.4484,4.453,4.565,4.5969,4.5582,4.5839,4.5632,4.5012,4.4168,4.3539,0.0,0.0,4.056,4.0308,3.8334,3.7124,3.6305,3.5183,3.4847,3.5036,3.5574,3.6307,3.7055,3.7676,3.8609,3.965,4.0462,4.1373,4.2434,4.3801,4.4611,4.5189,4.575,4.5362,4.445,4.3033,4.2316,4.1055,3.7871,3.6158,3.4881,3.38,3.4771,3.6091,3.7201,3.8848,3.9271,3.7198,3.1554,2.5022,1.7794,0.9533,0.1897,-0.4569,-0.0199,0.1891,-0.0986,0.776,0.9236,0.0201,-0.6836,-1.0672,-1.0835,-1.1557,-1.2581,-1.3871,-1.3939,-1.3425,-1.2504,-1.0771,-0.9383,-0.8443,-0.7866,-0.7554,-0.7238,0.0,-0.3877,-0.3785,-0.1079,0.2465,0.6317,0.6276,0.5542,0.4499,0.4539,0.4508,0.4484,0.0,0.0,0.0,0.0,0.0,0.0,0.0,0.0,0.0,0.0,3.6601,3.7141,3.7322,3.7988,0.0,0.0,0.0,0.0,0.0,0.0,3.6348,3.709,3.6406,3.6348,3.7109,3.7246,3.7617,3.8242,4.0114,4.1285,4.1797,4.2489,4.3035,4.3455,4.3153,4.3354,4.3779,4.2225,4.1623,4.1595,3.9973,3.9285,3.8987,0.0,3.6638,3.6145,3.4504,3.4626,3.5791,3.7348,3.8003,3.8388,3.9586,4.0609,4.1484,4.2246,4.3077,4.3944,4.4824,4.5429,4.5825,4.589,4.5414,4.4269,4.1768,4.1532,4.0534,3.5955,3.5053,3.457,3.2901,3.2927,3.3679,3.5091,3.5353,3.5384,3.5516,3.0169,2.2161,1.1133,0.3777,-0.3467,-1.1346,-0.5246,-0.1579,-0.3492,0.4876,0.5018,-0.6594,-0.9466,-1.1296,-1.2384,-1.2062,-1.2574,-1.3921,-1.3826,-1.3613,-1.3098,-1.1156,-0.9912,-0.9221,-0.8135,-0.7507,-0.7234,-0.5025,0.0,-0.0,-0.0,0.2199,0.548,0.6094,0.6276,0.6291,0.6291,0.6291,0.6295,0.0,0.0,0.0,0.0,0.0,0.0,0.0,0.0,0.0,0.0,3.7879,3.8077,0.0,0.0,0.0,0.0,0.0,0.0,0.0,0.0,0.0,3.6211,3.6074,3.6074,3.6211,3.6934,3.7363,3.748,3.9964,4.0816,4.0156,4.2283,4.2556,4.1277,4.1809,4.1728,4.1097,3.9865,3.9781,4.0334,3.9028,3.8916,3.9376,3.8172,0.0,0.0,3.5053,3.4223,3.4282,3.7228,3.9093,4.0394,4.1487,4.2436,4.3301,4.4101,4.4467,4.4784,4.5662,4.5851,4.5817,4.588,4.4959,4.3444,4.1163,3.9446,3.7653,3.5124,3.3427,3.2306,3.2076,3.2711,3.3765,3.5247,3.6426,3.5566,3.1092,3.0317,2.4465,0.8994,0.1632,-0.5021,-1.2273,-0.8136,-0.6041,-0.8536,-0.5027,-0.2853,-0.3149,-0.8547,-1.277,-1.5089,-1.2992,-1.2574,-1.3921,-1.3613,-1.2892,-1.1857,-1.2236,-1.1318,-0.9169,-0.8945,-0.8239,-0.7139,-0.67,0.0,-0.0,-0.0,0.0399,0.1415,0.4899,0.6312,0.6268,0.6268,0.6268,0.6268,0.0,0.0,0.0,0.0,0.0,0.0,3.6008,3.7209,3.8531,3.9852,4.0513,4.0565,3.9784,4.0195,4.0371,0.0,0.0,0.0,0.0,0.0,0.0,3.6016,3.5996,3.5996,3.5996,3.6855,3.7285,3.7246,0.0,4.0242,3.9726,4.1313,4.1578,4.0754,4.1004,4.0673,3.9826,3.8811,3.8898,3.9601,3.8554,3.8827,3.9749,0.0,0.0,0.0,3.5256,3.4634,3.4622,3.687,3.8433,3.979,4.1737,4.2949,4.3828,4.4668,4.4902,4.5074,4.5889,4.5968,4.5822,4.5629,4.4518,4.266,3.9635,3.7972,3.6205,3.3114,3.2081,3.1601,3.1149,3.1779,3.2464,3.2792,3.314,3.1533,2.6184,1.8258,1.2259,1.0255,0.238,-0.4151,-0.7429,-0.2914,-0.3362,-1.231,-0.9267,-0.6807,-0.6224,-0.9857,-1.2428,-1.3739,-1.2581,-1.2161,-1.2786,-1.2575,-1.2131,-1.1273,-1.1174,-1.0377,-0.8957,-0.8364,-0.769,-0.7139,-0.7139,0.0,-0.1787,-0.049,-0.0,0.0235,0.2192,0.368,0.4628,0.4628,0.5329,0.6338,0.0,0.0,0.0,0.0,0.0,0.0,3.6803,3.8447,4.0172,4.1869,4.3075,4.3264,4.1935,4.2073,4.2025,0.0,0.0,0.0,0.0,0.0,0.0,0.0,0.0,0.0,3.6269,0.0,0.0,3.7773,3.9394,0.0,0.0,0.0,0.0,0.0,4.0315,3.9888,3.923,3.8176,3.833,0.0,0.0,3.8881,4.0088,0.0,0.0,0.0,0.0,3.5127,3.5042,3.6479,3.7307,3.8143,4.0539,4.2266,4.3516,4.4043,4.457,4.5128,4.5712,4.5866,4.5803,4.5426,4.4076,4.1884,3.8308,3.6805,3.5141,3.1583,3.1216,3.134,3.0726,3.0887,3.0979,3.057,2.98,2.6966,2.0434,0.8089,0.153,0.6498,0.2927,-0.1656,-0.6144,0.0086,-0.1163,-1.4666,-1.152,-0.9409,-1.0382,-1.0811,-1.1363,-1.186,-1.1298,-1.109,-1.1264,-1.1189,-1.0939,-1.0655,-0.9928,-0.9383,-0.8854,-0.788,-0.7323,-0.7139,-0.7051,0.0,0.0,-0.1224,-0.0,-0.0,-0.0,0.1021,0.2438,0.2438,0.3528,0.5004,0.0,0.0,0.0,0.0,0.0,0.0,3.7525,3.9311,4.1037,4.2844,4.453,4.5255,4.4437,4.3022,4.2077,0.0,0.0,0.0,0.0,0.0,0.0,0.0,0.0,0.0,0.0,0.0,0.0,3.9648,4.0605,0.0,0.0,0.0,0.0,0.0,0.0,3.9373,3.9196,3.7526,0.0,0.0,0.0,0.0,0.0,0.0,0.0,0.0,0.0,3.5219,3.4216,3.6232,3.643,3.6071,3.7296,3.9902,4.2383,4.1738,4.3183,4.5019,4.5074,4.5501,4.5819,4.5475,4.3649,4.1135,3.8194,3.5905,3.3904,3.2069,3.1115,3.0823,3.1539,3.073,3.0131,3.068,2.9445,2.4427,1.3058,1.1222,0.5023,-1.1112,0.0594,0.2444,-1.6828,-0.8068,-0.5222,-1.4962,-1.3881,-1.2391,-1.1755,-0.9608,-0.9434,-1.184,-0.9513,-0.8737,-1.0004,-0.9524,-0.9318,-0.931,-1.006,-0.9962,-0.8853,-0.8781,-0.8147,-0.7051,-0.6871,0.0,0.0,-0.1871,-0.0,-0.0,-0.0,0.0079,0.0314,0.0314,0.0392,0.0863,0.0,0.0,0.0,0.0,0.0,0.0,3.7689,3.8597,4.0249,4.3549,4.4211,4.4608,4.5297,4.4277,4.315,4.2189,4.1207,0.0,0.0,0.0,0.0,0.0,0.0,0.0,0.0,0.0,3.9453,4.0684,4.1523,0.0,0.0,0.0,0.0,0.0,0.0,3.9296,3.9219,3.8007,0.0,0.0,0.0,0.0,0.0,0.0,0.0,0.0,0.0,0.0,3.4966,3.5815,3.554,3.4734,3.4234,3.6094,3.8726,3.9933,4.1393,4.2916,4.4409,4.5323,4.557,4.4527,4.2259,3.9605,3.7011,3.4475,3.2372,3.1249,3.0761,3.0652,3.0958,3.037,2.9794,2.9527,2.7836,2.3172,1.3437,1.0196,0.5033,-0.5166,-0.0049,-0.0775,-1.3825,-0.8375,-0.7948,-1.7265,-1.5988,-1.425,-1.3052,-1.1341,-1.0049,-0.947,-0.8382,-0.7957,-0.8375,-0.82,-0.8055,-0.7871,-0.8258,-0.8139,-0.7632,-0.7579,-0.7318,-0.6875,-0.681,0.0,0.0,-0.4962,-0.2596,-0.0,-0.0,-0.0,-0.0,-0.0,-0.0,0.0157,0.0,0.0,0.0,0.0,0.0,3.5306,3.7315,3.8108,3.985,4.368,4.3957,4.4331,4.5684,4.5278,4.4335,4.2868,4.2113,0.0,0.0,0.0,0.0,0.0,0.0,0.0,0.0,0.0,4.0957,4.2324,4.2891,4.3448,0.0,0.0,4.2305,4.1912,0.0,0.0,0.0,0.0,0.0,0.0,0.0,0.0,0.0,0.0,0.0,0.0,0.0,0.0,0.0,0.0,0.0,3.4378,3.2851,3.3611,3.5469,3.7262,3.9135,4.1012,4.2779,4.414,4.4727,4.3305,4.0939,3.8359,3.6003,3.3506,3.1468,3.0641,3.0544,3.0577,3.0508,3.024,2.9782,2.9001,2.7141,2.3038,1.5153,1.0481,0.6123,0.1297,0.0119,-0.2854,-0.9364,-0.9778,-1.2437,-1.9381,-1.7246,-1.4893,-1.2863,-1.2214,-1.0624,-0.7921,-0.7758,-0.7177,-0.6021,-0.6005,-0.5947,-0.5686,-0.5693,-0.6038,-0.6747,-0.6729,-0.6746,-0.6749,-0.6774,0.0,0.0,-0.6332,-0.418,-0.0,-0.0,-0.0,-0.0,-0.0,-0.0,0.0157,0.0,0.0,0.0,0.0,0.0,3.3555,3.629,3.8229,4.0359,4.3073,4.4219,4.5075,4.5813,4.5877,4.5449,4.4374,4.2101,0.0,0.0,0.0,0.0,0.0,0.0,0.0,4.1133,4.1172,4.2422,4.4961,4.4961,4.4916,4.4761,4.3816,4.289,4.1912,0.0,0.0,0.0,0.0,0.0,0.0,0.0,0.0,0.0,0.0,0.0,0.0,0.0,0.0,0.0,0.0,0.0,0.0,0.0,3.3207,3.3243,3.3347,3.6381,3.9746,3.984,4.1602,4.3138,4.1919,3.9905,3.7622,3.5418,3.3249,3.1448,3.0571,3.0506,3.0588,3.0507,3.039,3.0152,2.9673,2.7955,2.4182,1.6973,1.3354,0.9331,0.3558,0.099,-0.1846,-0.5776,-1.4182,-1.9703,-2.0584,-1.7604,0.0,-1.056,-1.1167,-1.0587,-0.8042,-0.7806,-0.614,-0.2767,-0.2758,-0.2666,-0.2427,-0.265,-0.4081,-0.6581,-0.6687,-0.6702,0.0,0.0,0.0,0.0,-0.4729,-0.3785,-0.0,-0.0,-0.0,-0.0,-0.0,-0.0,0.0628,0.0,0.0,0.0,0.0,0.0,0.0,3.6362,3.6752,3.7987,4.126,4.1905,4.2834,4.4851,4.5529,4.5661,4.522,4.3951,0.0,0.0,0.0,0.0,0.0,0.0,0.0,4.1992,4.3183,4.4199,4.5,4.5605,4.5811,4.5669,4.473,4.3758,4.2752,4.0927,4.0123,0.0,0.0,0.0,0.0,0.0,0.0,4.0581,0.0,0.0,0.0,0.0,0.0,0.0,0.0,0.0,0.0,0.0,0.0,0.0,3.2576,3.4171,3.6414,3.7629,3.8875,3.9579,3.8462,3.6858,3.5133,3.3606,3.1986,3.0737,3.0456,3.0506,3.0588,3.0502,3.0389,3.0076,2.9436,2.7755,2.4979,2.04,1.5289,0.9934,0.4192,-0.6103,-1.4788,-2.0112,-2.1755,-2.1569,-1.9209,-1.6776,-1.4504,-1.2598,-1.1067,-0.9384,-0.7643,-0.5885,-0.3675,-0.0899,-0.0937,-0.049,0.0476,-0.1569,-0.2338,-0.2176,-0.509,-0.5652,0.0,0.0,0.0,0.0,0.0471,0.1415,-0.0,-0.0,-0.0,-0.0,-0.0,0.1806,0.4491,0.0,0.0,0.0,0.0,0.0,0.0,3.5565,3.5949,3.7098,3.9957,4.0636,4.1795,4.4354,4.5021,4.5393,4.5566,4.5086,0.0,0.0,0.0,0.0,0.0,0.0,0.0,4.2871,4.4277,4.5156,4.5488,4.5972,4.6162,4.6007,4.506,4.4085,4.3102,4.1639,4.0796,0.0,0.0,0.0,0.0,0.0,0.0,3.9723,0.0,0.0,0.0,0.0,0.0,0.0,0.0,0.0,0.0,0.0,0.0,0.0,0.0,3.258,3.3514,3.5213,3.6466,3.7083,3.6089,3.4861,3.3594,3.2526,3.1308,3.0398,3.0417,3.0506,3.0558,3.0539,3.0469,3.025,2.9711,2.8155,2.6247,2.406,1.4626,0.3869,-0.6955,-0.7464,-1.2409,-2.638,-1.958,-1.5415,-1.8068,-1.621,-1.4059,-1.2027,-1.0283,-0.8806,-0.7329,-0.4137,-0.0908,0.2465,0.2459,0.2779,0.3626,0.1795,0.0544,-0.0078,-0.2734,-0.4077,0.0,0.0,0.0,0.0,0.1728,0.3306,0.22,0.0628,-0.0,0.0157,0.1806,0.4016,0.6329,0.0,0.0,0.0,0.0,0.0,0.0,0.0,3.5718,3.7409,3.9089,4.0169,4.1691,4.4055,4.4434,4.4761,4.5451,4.5547,0.0,0.0,0.0,0.0,0.0,0.0,4.2891,4.3769,4.4648,4.5488,4.6308,4.618,4.6046,4.5891,4.5003,4.4064,4.3066,4.2258,4.1335,0.0,0.0,0.0,0.0,3.9509,3.906,0.0,0.0,0.0,0.0,0.0,0.0,0.0,0.0,0.0,0.0,0.0,0.0,0.0,0.0,0.0,0.0,0.0,3.4315,3.5353,3.4532,3.3677,3.2806,3.1987,3.1083,0.0,3.0487,3.0506,3.0527,3.0593,3.0615,3.0523,3.0312,2.8981,2.7624,2.6584,1.1788,-0.5873,-2.446,-0.4605,0.0731,-2.4511,-1.0842,-0.5249,-1.7055,-1.5777,-1.2981,-0.9508,-0.9221,-0.8531,-0.718,-0.2802,0.1881,0.6628,0.6635,0.6644,0.6666,0.6428,0.4217,0.0467,0.0156,-0.2117,0.0,0.0,0.0,0.0,-0.0,0.2278,0.5448,0.1571,0.0157,0.0942,0.4888,0.6329,0.6322,0.0,0.0,0.0,0.0,0.0,0.0,0.0,0.0,0.0,0.0,3.9187,4.0424,4.2364,4.3643,4.4414,0.0,0.0,0.0,0.0,0.0,0.0,0.0,4.3095,4.3808,4.4687,4.5547,4.6094,4.6308,4.627,4.6185,4.604,4.5712,4.4699,4.3176,4.2893,4.1604,0.0,0.0,0.0,0.0,3.9206,3.9025,0.0,0.0,0.0,0.0,3.6685,3.6367,0.0,0.0,0.0,0.0,0.0,0.0,0.0,0.0,3.1582,3.0976,3.137,0.0,3.2001,3.1698,3.1459,3.1226,0.0,3.0724,3.0552,3.0571,3.0621,3.0664,3.0672,3.0687,3.0524,3.0066,2.937,2.5899,1.7306,0.9869,0.0877,-1.1306,-0.7981,-0.6643,-1.1557,-1.6414,-1.8524,-1.6776,-1.3534,-1.0907,-0.9209,-0.8043,-0.7375,-0.7121,-0.3612,0.1027,0.6628,0.6619,0.6932,0.766,0.6731,0.5786,0.474,0.1483,-0.0549,0.0,0.0,0.0,-0.0,-0.0,0.0549,0.1414,0.0393,0.1963,0.4967,0.593,0.6312,0.6288,0.0,0.0,0.0,0.0,0.0,0.0,0.0,0.0,0.0,0.0,3.8219,3.9362,4.1116,4.2758,4.3912,0.0,0.0,0.0,0.0,0.0,0.0,4.3416,4.3986,4.4512,4.498,4.5859,4.6308,4.6308,4.6234,4.613,4.5996,4.5491,4.4506,4.3121,4.2294,4.1143,0.0,0.0,0.0,3.833,3.8772,0.0,0.0,0.0,0.0,0.0,3.5959,3.5962,0.0,3.5996,3.5996,3.5859,0.0,0.0,0.0,0.0,3.1541,3.0817,3.0817,3.1145,3.1484,3.1406,3.1348,3.1304,3.1329,3.095,3.0619,3.0646,3.0653,3.0651,3.0646,3.043,2.9438,2.6945,2.4173,1.7702,0.4436,-0.0187,-0.4932,-1.2285,-1.242,-1.2585,-1.4412,-1.6256,-1.7257,-1.7078,-1.3352,-1.0366,-0.8793,-0.7535,-0.6837,-0.6868,-0.4253,-0.0744,0.3621,0.5595,0.6784,0.7234,0.6538,0.6159,0.6066,0.2885,0.0915,0.0,0.0,0.0,0.271,0.078,-0.0,-0.0,-0.0,0.2594,0.6329,0.6318,0.6254,0.6173,0.0,0.0,0.0,0.0,0.0,0.0,0.0,0.0,0.0,0.0,0.0,0.0,0.0,0.0,0.0,0.0,0.0,0.0,0.0,0.0,4.4544,4.3797,4.4552,4.5058,4.5195,4.5781,4.6172,4.6308,4.6053,4.5918,4.5879,4.5095,4.4141,4.3028,4.1277,4.0431,4.0331,4.0438,3.9561,3.8118,3.8312,0.0,0.0,0.0,0.0,0.0,0.0,0.0,0.0,3.5605,3.568,3.5613,3.4599,0.0,0.0,0.0,0.0,0.0,3.065,3.1546,3.2397,3.2069,3.1972,3.1988,3.1963,3.1265,3.0625,3.0682,3.0648,3.0562,3.0415,2.9448,2.734,2.3223,1.656,0.7468,-0.5152,-1.0483,-1.3909,-1.6191,-1.5865,-1.7262,-2.1777,-1.4928,-1.2289,-1.7347,-1.3931,-1.0616,-0.8286,-0.7398,-0.6836,-0.6615,-0.4885,-0.2726,-0.0,0.3689,0.5795,0.6273,0.6064,0.6077,0.6229,0.4332,0.2205,0.0225,0.0,0.0,0.6016,0.2463,0.0613,0.0075,0.0616,0.2876,0.578,0.6099,0.6152,0.6006,0.0,0.0,0.0,0.0,0.0,0.0,0.0,0.0,0.0,0.0,0.0,0.0,0.0,0.0,0.0,0.0,0.0,0.0,0.0,4.5605,4.5587,4.552,4.5174,4.5351,4.6074,4.5508,4.5566,4.6308,4.5546,4.5432,4.5899,4.5737,4.4757,4.3028,4.1277,4.0123,3.9488,3.9523,3.8623,3.7257,3.8004,0.0,0.0,0.0,0.0,0.0,0.0,0.0,0.0,3.3809,3.4252,3.4527,3.2928,0.0,0.0,0.0,0.0,0.0,3.0399,3.2007,3.3272,3.1396,3.1424,3.174,3.1081,3.0756,3.0625,3.0682,3.0648,3.0361,2.9569,2.6446,2.3658,2.258,1.053,0.1715,0.3018,-0.6593,-1.1237,-0.4288,-1.3981,-1.9951,-1.6696,-1.9832,-2.0462,-1.6447,-1.3299,-1.0498,-0.8175,-0.7852,-0.7472,-0.6623,-0.6129,-0.398,-0.0076,0.0687,0.2702,0.6053,0.5992,0.6508,0.7381,0.5988,0.3427,-0.0,0.0,0.3008,0.6229,0.5635,0.324,0.0293,0.3391,0.4059,0.3467,0.5355,0.5979,0.5909,0.0,0.0,0.0,0.0,0.0,0.0,0.0,0.0,0.0,0.0,0.0,0.0,0.0,0.0,0.0,0.0,0.0,0.0,0.0,4.5738,4.5803,4.5827,4.5601,4.5737,4.6289,4.5449,4.543,4.6308,4.5897,4.5763,4.5879,4.4868,4.3412,4.1662,4.0854,4.0277,3.9912,3.9469,3.8685,3.7704,0.0,0.0,0.0,0.0,0.0,0.0,0.0,0.0,0.0,0.0,3.3543,3.3626,3.2355,0.0,0.0,0.0,0.0,0.0,3.0086,3.1015,3.1863,3.1049,3.2185,3.3295,3.2632,3.1794,3.1058,3.0762,3.037,2.9791,2.8924,2.6281,2.1088,1.1397,-0.0253,-0.8274,-0.8782,-1.455,-1.6271,-0.9635,-2.0143,-2.4936,-1.7393,-2.1086,-2.1614,-1.6035,-1.1726,-0.8856,-0.768,-0.7072,-0.664,-0.6291,-0.6328,-0.4347,-0.0289,0.1885,0.3332,0.426,0.5293,0.6054,0.6624,0.5908,0.4644,0.2919,0.0,0.3564,0.4367,0.479,0.3608,0.1639,0.3258,0.4077,0.4506,0.5929,0.6447,0.6569,0.0,0.0,0.0,0.0,0.0,0.0,0.0,0.0,0.0,0.0,0.0,0.0,0.0,0.0,0.0,0.0,0.0,0.0,0.0,4.5413,4.5565,4.5796,4.5467,4.5562,4.618,4.5194,4.5195,4.625,4.5883,4.5667,4.5578,4.3878,4.2277,4.0796,4.0796,4.0604,4.02,3.9585,3.8823,3.7963,0.0,0.0,0.0,0.0,0.0,0.0,0.0,0.0,0.0,0.0,0.0,0.0,0.0,0.0,0.0,3.0519,3.0018,2.9734,2.9458,2.9714,3.0073,3.013,3.1977,3.3785,3.3842,3.2522,3.1169,3.0806,3.0208,2.9038,2.6747,2.345,1.5537,-0.156,-0.9068,-1.4104,-1.8046,-2.0952,-2.0991,-1.657,-2.2919,-2.563,-2.0492,-1.9153,-1.7409,-1.4429,-1.0035,-0.7475,-0.7291,-0.6655,-0.6241,-0.6039,-0.529,-0.3495,-0.0418,0.3384,0.4677,0.3351,0.4821,0.5614,0.5617,0.5155,0.51,0.5424,0.5559,0.4786,0.3395,0.4031,0.3876,0.3328,0.3604,0.4791,0.6313,0.6744,0.7103,0.7653,0.0,0.0,0.0,0.0,0.0,0.0,0.0,0.0,0.0,0.0,0.0,0.0,0.0,0.0,0.0,0.0,0.0,0.0,4.453,4.447,4.4816,4.5757,4.4254,4.4181,4.5877,4.4474,4.4492,4.6113,4.4621,4.4198,4.4746,4.3638,4.2604,4.172,4.172,4.0877,3.9477,3.9419,3.8539,3.7187,3.7122,0.0,0.0,0.0,0.0,0.0,0.0,0.0,0.0,0.0,0.0,0.0,0.0,0.0,3.1168,3.0285,2.9364,2.8563,2.8297,2.8619,2.8764,2.7803,2.9156,3.1196,3.3022,3.1803,3.0376,3.072,3.045,2.8101,2.1366,1.3869,0.3567,-1.2032,-1.1292,-0.9401,-1.138,-1.767,-2.0676,-1.7012,-1.4601,-1.6607,-2.5057,-1.3107,-0.6328,-1.0007,-0.8674,-0.759,-0.7291,-0.7668,-0.7258,-0.6039,-0.2617,-0.0697,-0.0417,0.3245,0.5127,0.5205,0.5329,0.5389,0.5379,0.422,0.4359,0.5396,0.5406,0.5343,0.5205,0.5286,0.5282,0.5339,0.6344,0.7306,0.7894,0.7012,0.7844,0.9331,0.0,0.0,0.0,0.0,0.0,0.0,0.0,0.0,0.0,0.0,0.0,0.0,0.0,0.0,0.0,0.0,0.0,0.0,4.2819,4.3297,4.372,4.4105,4.3489,4.3204,4.3363,4.2986,4.3369,4.4551,4.386,4.3643,4.3871,4.2777,4.2124,4.1777,4.1239,4.07,4.0142,3.905,3.8328,3.7817,3.6772,3.5131,0.0,0.0,0.0,0.0,0.0,0.0,0.0,0.0,3.0126,3.0532,2.9691,2.968,2.9851,2.94,2.8472,2.7592,2.7367,2.7241,2.7175,2.7038,2.5649,2.5515,3.0106,2.6627,2.229,2.1883,2.0295,1.7505,1.2777,0.2323,-0.7735,-1.4231,-1.7503,-1.8971,-1.827,-2.1226,-2.2426,-1.9681,-1.5193,-1.5218,-2.2501,-1.135,-0.5235,-0.9026,-0.7601,-0.5805,-0.4151,-0.4216,-0.3723,-0.2484,-0.1099,0.0963,0.366,0.5109,0.6026,0.6453,0.6193,0.6185,0.6436,0.6396,0.6793,0.7494,0.7148,0.7003,0.7003,0.7003,0.7003,0.7003,0.6876,0.7367,0.8012,0.7666,0.8273,0.9462,0.0,0.0,0.0,0.0,0.0,0.0,0.0,0.0,0.0,0.0,0.0,0.0,0.0,0.0,0.0,0.0,0.0,0.0,4.1046,4.1604,4.2143,4.2662,4.2181,4.1739,4.1393,4.1152,4.1594,4.2714,4.2385,4.249,4.2948,4.1646,4.1319,4.1758,4.0893,4.0581,4.0581,3.889,3.809,3.7878,3.6484,3.4855,0.0,0.0,0.0,0.0,0.0,0.0,0.0,0.0,2.8938,2.916,2.8726,2.8459,2.8283,2.8256,2.7109,2.5824,2.5844,2.5034,2.3992,2.3059,1.9793,1.7927,2.2154,1.8425,1.3845,1.3185,0.9746,0.5463,0.0925,-0.7455,-1.4787,-1.8362,-2.1545,-2.3314,-2.2737,-2.3094,-2.2961,-2.168,-1.4189,-0.9591,-1.0783,-0.2054,0.2059,-0.1824,-0.1238,-0.0637,0.0,-0.061,-0.0242,0.0607,0.164,0.3653,0.6629,0.6721,0.688,0.7121,0.7638,0.7634,0.7099,0.7511,0.7901,0.8249,0.7896,0.7795,0.785,0.778,0.7917,0.818,0.7409,0.7827,0.8807,0.8479,0.8941,0.9786,0.0,0.0,0.0,0.0,0.0,0.0,0.0,0.0,4.0489,4.0489,4.1258,0.0,0.0,0.0,0.0,0.0,3.8517,3.8373,3.9307,3.9311,4.0027,4.1681,4.0162,3.9642,4.045,3.9042,3.911,4.0788,4.0037,4.0496,4.2052,4.0246,4.0249,4.1739,4.0873,4.0562,4.0558,3.8966,3.7825,3.7031,3.6308,3.4864,3.3193,0.0,0.0,0.0,0.0,0.0,0.0,0.0,2.7742,2.7674,2.8029,2.7401,2.6557,2.6952,2.5112,2.309,2.3594,2.182,1.8925,1.5155,1.1339,0.8518,0.8516,0.7195,0.5897,0.5791,0.0227,-0.6871,-1.4279,-1.4762,-1.6934,-2.589,-2.2352,-1.9484,-2.2359,-2.2126,-2.1904,-2.2519,-1.006,0.1952,1.0494,1.6572,1.7976,1.3244,1.1333,0.0,0.0,0.2702,0.2663,0.2634,0.5943,0.7719,0.7719,0.7858,0.7665,0.7171,0.9831,0.968,0.7121,0.7121,0.7121,0.7121,0.7121,0.7305,0.7484,0.721,0.7788,0.8757,0.8191,0.9058,1.0498,0.9658,0.9849,1.0624,0.0,0.0,0.0,0.0,0.0,0.0,0.0,0.0,4.0489,4.0489,4.0719,0.0,0.0,0.0,0.0,0.0,0.0,3.6988,3.6738,3.718,3.77,3.82,3.7738,3.7584,3.7815,3.6945,3.7384,3.9259,3.8318,3.8723,4.0335,3.97,3.9631,4.0027,3.9758,3.9392,3.8873,3.7833,3.7292,3.7108,3.6261,3.4839,3.3193,0.0,0.0,0.0,0.0,0.0,0.0,0.0,0.0,0.0,2.5964,2.5117,2.4437,2.4272,2.2507,2.0304,1.8971,1.6954,1.4069,0.9123,0.5712,0.2401,-0.1922,-0.4956,-0.7439,-0.9482,-1.5998,-2.0721,-1.8582,-2.175,-2.5501,-2.8083,-2.7448,-2.628,-2.5318,-2.5229,-2.4432,-2.2163,-1.0828,-0.0683,0.5788,1.7653,2.2643,1.7114,1.3893,0.0,0.0,0.7538,0.7116,0.5489,0.7378,0.8396,0.8427,0.8884,0.9348,0.9734,1.0522,1.0134,0.8743,1.03,1.0767,1.0343,1.0343,1.0121,0.9694,0.9168,0.9241,0.9621,0.8883,0.9768,1.1344,1.0445,1.1073,1.2274,0.0,0.0,0.0,0.0,0.0,0.0,0.0,0.0,4.0008,4.0008,4.0008,3.9835,0.0,0.0,0.0,0.0,3.6142,3.5526,3.5064,3.5141,3.5507,3.6199,3.5892,3.5892,3.6295,3.5955,3.6365,3.7578,3.6934,3.7461,3.9071,3.8849,3.887,3.9128,3.9112,3.8676,3.7934,3.6926,3.6522,3.6503,3.5349,3.4191,3.3119,0.0,0.0,0.0,0.0,0.0,0.0,0.0,0.0,0.0,2.4679,2.3578,2.2585,2.212,1.9324,1.6073,1.4498,1.1774,0.8149,0.2998,-0.1353,-0.6369,-1.3872,-1.5384,-1.6407,-2.0799,-2.4889,-2.6945,-2.479,-2.6935,-2.9323,-3.0085,-2.9593,-2.8787,-2.7939,-2.6809,-2.5466,-2.3788,-1.5394,-0.6454,0.1903,1.2027,1.8419,1.9206,0.0,0.0,0.0,1.0851,1.0131,0.8652,0.921,0.9629,0.9893,1.03,1.0856,1.1554,1.1837,1.1659,1.1108,1.1674,1.1707,1.1366,1.1459,1.1224,1.074,1.0576,1.0552,1.0574,1.0338,1.097,1.2019,1.1636,1.212,1.3009,0.0,0.0,3.5872,3.668,0.0,0.0,0.0,0.0,3.9296,3.9296,3.9296,3.9258,0.0,0.0,0.0,0.0,0.0,0.0,3.4103,3.3353,3.3622,3.5199,3.4661,3.4789,3.5811,3.5868,3.5929,3.5996,3.5868,3.6568,3.8062,3.7734,3.7927,3.8498,3.8461,3.8023,3.7202,3.5902,3.5408,3.5347,3.3802,3.3094,3.2897,3.2011,0.0,0.0,0.0,0.0,0.0,0.0,0.0,0.0,2.3886,2.2556,2.0971,2.0314,1.61,1.1474,1.0377,0.6573,0.1682,-0.3253,-0.9133,-1.5962,-2.45,-2.2937,-2.1549,-2.8066,-2.7923,-2.7726,-3.1198,-3.0129,-2.9381,-3.1336,-2.9295,-2.8058,-2.9723,-2.7222,-2.5529,-2.6395,-2.1798,-1.3754,-0.1471,0.2501,0.8949,2.0196,0.0,0.0,0.0,1.2811,1.1796,1.1603,1.1199,1.129,1.1889,1.1935,1.2308,1.2942,1.3575,1.3841,1.3752,1.1877,1.1065,1.099,1.122,1.117,1.0913,1.1423,1.1538,1.1428,1.2102,1.2414,1.263,1.2953,1.313,1.3252,0.0,0.0,3.6719,3.7565,0.0,0.0,0.0,0.0,0.0,3.9296,3.9296,0.0,0.0,0.0,0.0,0.0,0.0,0.0,3.3385,3.3109,3.3128,3.3449,3.4584,3.5693,3.6692,3.6071,3.583,3.5996,3.53,3.5398,3.6279,3.6668,3.6308,3.5381,3.574,3.5249,3.4097,3.3121,3.3141,3.3713,3.2635,3.2192,3.205,3.1129,3.0117,0.0,0.0,0.0,0.0,0.0,0.0,0.0,2.2434,2.1005,1.9567,1.826,1.527,1.1603,0.8091,0.2923,-0.3002,-0.9343,-1.445,-1.8223,-1.9064,-2.02,-2.2498,-2.7573,-2.9024,-2.9479,-2.9842,-2.9005,-2.8254,-2.8256,-2.7711,-2.7306,-2.7381,-2.7063,-2.6505,-2.5753,-2.2154,-1.579,-0.577,0.0308,0.895,0.0,0.0,0.0,1.3903,1.3062,1.2147,1.1057,1.194,1.2686,1.3168,1.3328,1.3893,0.0,1.4607,1.4514,1.4457,1.3558,1.2909,1.2412,1.1922,1.1645,1.1575,1.1183,1.128,1.1795,1.1952,1.2745,1.3802,1.3881,1.4369,1.4874,0.0,0.0,0.0,0.0,0.0,0.0,0.0,0.0,0.0,0.0,0.0,0.0,0.0,0.0,0.0,0.0,3.3624,3.2956,3.251,3.2054,3.2128,3.2872,3.5032,3.6087,3.5814,3.5834,3.568,3.5371,3.4492,3.4564,3.5526,3.5837,3.5383,3.4317,3.4463,3.3655,3.2109,3.1525,3.156,3.1893,3.0632,3.0595,3.1148,2.9831,2.8833,2.7972,2.7112,0.0,0.0,0.0,0.0,0.0,0.0,0.0,1.9645,1.7634,1.4136,1.012,0.6336,0.0412,-0.6494,-1.378,-1.742,-1.9111,-1.8818,-2.0533,-2.2738,-2.4961,-2.7326,-2.9007,-2.9064,-2.8297,-2.7661,-2.7592,-2.7134,-2.6904,-2.7268,-2.6723,-2.6139,-2.5736,-2.3198,-1.7862,-0.8621,-0.4142,0.4406,0.0,0.0,1.5714,1.4552,1.3148,1.2325,1.2248,1.2647,1.316,1.3674,1.3784,1.4389,1.554,1.4949,1.4821,1.5045,1.4485,1.4061,1.3695,1.3044,1.2745,1.2696,1.2274,1.23,1.2711,1.3149,1.3756,1.4497,1.473,1.502,1.541,0.0,0.0,0.0,0.0,0.0,0.0,0.0,0.0,0.0,0.0,0.0,0.0,0.0,0.0,3.3955,0.0,0.0,0.0,3.1817,3.1118,3.1429,3.3045,3.5166,3.5724,3.4494,3.5154,3.5173,3.4453,3.375,3.4042,3.5303,3.5095,3.4647,3.3957,3.365,3.2472,3.0641,3.0249,3.0123,3.005,2.8574,2.886,3.0025,2.848,2.7558,2.7079,2.6732,2.6079,2.5362,2.4904,0.0,0.0,0.0,0.0,2.0335,1.7841,1.3721,0.9175,0.5755,-0.1178,-0.9233,-1.6518,-1.892,-1.959,-1.9901,-2.1317,-2.2433,-2.2005,-2.4901,-2.7657,-2.8211,-2.7608,-2.7162,-2.7507,-2.6755,-2.6483,-2.7496,-2.6251,-2.5389,-2.5792,-2.4179,-1.9873,-1.1757,-0.8999,-0.1399,0.0,0.0,1.4591,1.4722,1.2763,1.215,1.3263,1.2929,1.3132,1.3935,1.3862,1.44,1.5576,1.5096,1.5188,1.5808,1.5395,1.5062,1.4832,1.4309,1.3984,1.3779,1.3628,1.3557,1.369,1.4427,1.4767,1.4954,1.53,1.541,1.541,0.0,0.0,0.0,0.0,0.0,0.0,0.0,0.0,0.0,0.0,3.6449,3.6565,3.5757,3.4845,3.4005,3.3239,3.2461,3.1956,3.189,0.0,0.0,3.3949,3.366,3.3716,3.4313,3.3837,3.3551,3.3496,3.3437,3.4056,3.5271,3.4292,3.3524,3.2952,3.2333,3.107,2.9288,2.8453,2.8262,2.8437,2.7461,2.7655,2.8416,2.7431,2.7462,2.7831,2.6311,2.601,2.6133,2.4871,2.4247,0.0,0.0,0.0,2.081,1.8744,1.5871,1.2428,0.8125,-0.1436,-1.1354,-1.6033,-1.9293,-2.0584,-1.7765,-1.9401,-2.1385,-2.0887,-2.3929,-2.6596,-2.6406,-2.6389,-2.6274,-2.5824,-2.557,-2.5503,-2.5723,-2.5545,-2.5334,-2.523,-2.4052,-2.1656,-1.7574,-1.1995,0.0,0.0,0.7168,0.9251,1.1477,1.118,1.104,1.1189,1.1688,1.2754,1.4506,1.4018,1.4389,1.5504,1.5475,1.6065,1.7136,1.7062,1.6452,1.5384,1.5289,1.4712,1.3815,1.3752,1.3885,1.4051,1.417,1.4671,1.5331,1.5381,1.541,1.541,0.0,0.0,0.0,0.0,0.0,0.0,0.0,0.0,0.0,0.0,0.0,3.5161,3.4814,3.3647,3.2378,3.1064,3.0696,3.0498,3.0393,3.0758,3.1525,3.2756,3.2942,3.2748,3.2171,3.1922,3.1838,3.1894,3.1484,3.2731,3.5488,3.3889,3.3661,3.4515,3.2562,3.1182,3.02,2.8398,2.7838,2.8023,2.6697,2.6719,2.7439,2.6525,2.6406,2.664,2.5781,2.5523,2.5442,2.4832,2.4391,2.4002,2.3406,0.0,0.0,0.0,1.7211,1.4027,0.699,-0.0444,-0.7352,-1.1967,-1.5337,-1.7093,-1.5664,-1.733,-1.9229,-1.9201,-2.1786,-2.4382,-2.552,-2.5434,-2.5241,-2.5427,-2.5401,-2.5383,-2.5508,-2.5255,-2.4919,-2.4479,-2.2773,-2.0594,-1.799,-1.4126,0.0,0.0,0.1825,0.4238,0.9409,0.8669,0.8682,1.0132,1.0452,1.1396,1.3012,1.2744,1.326,1.4517,1.5119,1.6127,1.7335,1.7288,1.6965,1.6501,1.582,1.5063,1.4294,1.3815,1.3705,1.3821,1.4307,1.4752,1.51,1.5332,1.5668,1.5966,0.0,0.0,0.0,0.0,0.0,0.0,0.0,0.0,0.0,0.0,0.0,3.3795,3.3583,0.0,0.0,0.0,2.9123,2.9016,2.8904,2.9429,3.016,3.1006,3.1711,3.146,3.0179,3.0287,3.0272,3.011,2.9765,3.1463,3.501,3.3484,3.3907,3.5797,3.3028,3.1401,3.0605,2.8536,2.7827,2.7957,2.6204,2.5956,2.6481,2.5015,2.4938,2.5451,2.4415,2.4054,2.4175,2.46,2.4166,2.3512,2.3744,2.3315,0.0,0.0,0.0,1.4409,0.6285,0.113,-0.3131,-0.8092,-1.1752,-1.418,-1.4292,-1.6169,-1.8026,-1.8358,-2.0242,-2.2439,-2.449,-2.4524,-2.4437,-2.5103,-2.5274,-2.534,-2.5395,-2.481,-2.4195,-2.3654,-2.1276,-1.8903,-1.697,-1.4959,0.0,0.0,-0.2823,0.0213,0.6685,0.6318,0.6844,0.884,0.9268,1.0046,1.124,1.1423,1.2055,1.3212,1.4206,1.5392,1.6741,1.6723,1.6836,1.7044,1.6114,1.5345,1.4617,1.3894,1.3535,1.355,1.435,1.4706,1.4868,1.5255,1.5753,1.6119,0.0,0.0,0.0,0.0,0.0,0.0,0.0,0.0,0.0,0.0,0.0,3.2679,3.191,3.1064,3.0198,2.9278,2.8569,2.8135,2.8065,2.8035,2.839,2.9198,2.9286,0.0,2.9159,2.9308,2.9003,2.8246,2.9148,3.0841,3.3225,3.2947,3.3844,3.5632,3.3373,3.1178,2.9152,2.8199,2.7918,2.7923,2.6005,2.5398,2.5356,2.2439,2.3101,2.513,2.1565,2.113,2.2468,2.4075,2.3201,2.1775,2.3593,2.3714,2.2884,0.0,0.0,0.0,0.7652,0.3189,-0.1052,-0.6006,-1.064,-1.407,-1.4258,-1.6652,-1.8936,-1.9267,-2.0241,-2.1469,-2.2874,-2.3632,-2.4116,-2.4412,-2.4827,-2.506,-2.4869,-2.3947,-2.3137,-2.2722,-1.9853,-1.7339,-1.583,-1.3991,0.0,0.0,-0.7242,-0.2198,0.2275,0.4692,0.6161,0.6753,0.8029,0.9082,0.9783,1.0485,1.119,1.18,1.258,1.3779,1.5327,1.5515,1.5815,1.6271,1.635,1.5707,1.4652,1.4061,1.3683,1.3538,1.3991,1.4408,1.4868,1.5255,1.54,1.5448,0.0,0.0,0.0,0.0,0.0,0.0,0.0,0.0,0.0,0.0,0.0,0.0,0.0,3.0155,2.9079,2.7659,2.7295,2.7353,2.7901,2.8401,2.9044,2.991,2.9929,2.9698,2.919,2.8758,2.8405,2.8158,2.8566,2.9984,3.2331,3.2123,3.2697,3.3846,3.2349,3.1186,3.0179,2.7968,2.7419,2.7872,2.6068,2.3179,2.0296,2.2919,2.1445,1.7735,1.5952,1.5562,1.5961,1.6562,1.6697,1.7538,2.2801,2.3879,2.2789,2.0643,1.7935,1.485,1.1322,0.762,0.3823,-0.0205,-0.5426,-1.0136,-1.2399,-1.5731,-1.8665,-1.9759,-2.0908,-2.1852,-2.2329,-2.3099,-2.384,-2.4321,-2.4782,-2.4968,-2.4589,-2.3152,-2.1932,-2.1438,-1.8223,-1.5736,-1.4791,-1.3523,-1.2393,0.0,0.0,-0.2336,0.1949,0.4006,0.5273,0.5855,0.6392,0.7197,0.8429,0.999,1.0712,1.0501,1.1498,1.2516,1.3542,1.3962,1.4482,1.5055,1.4398,1.4121,1.4097,1.3467,1.3182,1.3204,1.3844,1.4175,1.4443,1.5138,1.5718,1.6048,0.0,0.0,0.0,0.0,0.0,3.6045,3.495,3.3782,3.2711,3.1814,0.0,0.0,0.0,0.0,2.8579,2.7159,2.7044,2.7274,2.7852,2.839,2.9083,2.9967,2.9987,2.9756,2.9283,2.8772,2.8251,2.7759,2.8418,2.9517,3.1047,3.1405,3.1882,3.2396,3.1338,3.0951,3.0897,2.8021,2.7421,2.7982,2.3219,1.8974,1.5526,1.5582,1.2739,0.8683,0.8594,0.7976,0.708,0.6572,0.8069,1.1453,1.8745,2.184,2.227,1.981,1.7765,1.5782,1.3336,1.0073,0.6632,0.3567,-0.1665,-0.706,-1.0711,-1.4292,-1.7463,-1.9649,-2.094,-2.1764,-2.2165,-2.3043,-2.3823,-2.4229,-2.4706,-2.4739,-2.3917,-2.2229,-2.0838,-2.0242,-1.6957,-1.3831,-1.1528,-1.0417,-0.902,0.0,0.0,0.0,0.4146,0.5336,0.5891,0.5873,0.5651,0.6086,0.7343,0.8685,0.9155,0.8758,0.9729,1.0659,1.1555,1.1937,1.266,1.3431,1.2537,1.2773,1.3721,1.288,1.2666,1.2949,1.3384,1.3599,1.3758,1.4279,1.485,1.5298,0.0,0.0,3.8296,3.9123,3.7199,3.5532,3.5493,3.4026,3.2602,3.1814,0.0,0.0,0.0,0.0,0.0,2.7967,2.7928,2.7928,2.7928,2.7948,2.8352,2.9209,2.9171,2.9225,2.9433,2.933,2.8507,2.693,2.8694,2.9459,2.9291,3.0781,3.1466,3.1443,3.0388,3.0423,3.1048,2.8344,2.7925,2.8162,1.7455,1.292,1.1348,0.031,-0.2873,-0.1334,-0.0313,-0.1434,-0.3638,-0.5113,-0.2084,0.3682,1.1502,1.7603,2.1416,1.9136,1.7327,1.5569,0.0,0.0,0.0,0.4665,0.0,-0.5191,-0.9344,-1.2292,-1.5193,-1.8942,-2.0225,-2.1016,-2.2268,-2.336,-2.4041,-2.4041,-2.4486,-2.4291,-2.2747,-2.1171,-1.9866,-1.9091,-1.5913,-1.1548,-0.5877,-0.4521,0.0,0.0,0.1681,0.3819,0.8559,0.8751,0.808,0.6696,0.5923,0.5869,0.6588,0.6588,0.6588,0.6588,0.725,0.8224,0.9364,0.9575,1.0291,1.1431,1.097,1.1895,1.3616,1.2297,1.2178,1.2812,1.2591,1.2602,1.2868,1.2671,1.2751,1.3098,0.0,3.8988,3.8815,3.843,3.7257,3.618,3.5603,3.4026,3.2602,0.0,0.0,0.0,2.9679,2.8863,2.8283,2.8065,2.8522,2.8844,2.8844,2.939,2.9852,3.0121,3.0083,3.0121,3.0263,2.9051,2.8252,2.7903,2.8415,2.8612,2.8543,2.9956,3.0814,3.1047,2.9124,2.8782,2.9512,2.7627,2.6822,2.596,1.6133,0.9987,0.6143,0.0839,-0.3901,-0.7736,-0.7872,-0.8167,-0.8495,-0.8534,-0.6643,-0.2203,0.9736,1.6953,2.0603,1.8401,1.5633,1.2494,0.9046,0.0,0.0,0.0,0.0,0.0,-0.6756,-0.9071,-1.2118,-1.6936,-1.8812,-2.0237,-2.2262,-2.2684,-2.274,-2.274,-2.3174,-2.2943,-2.1253,-1.9787,-1.8375,-1.702,-1.0368,-0.4784,-0.1803,0.0,0.0,0.0,0.8009,1.0557,1.1385,0.9644,0.8208,0.7351,0.6676,0.6367,0.6588,0.6588,0.6588,0.6588,0.6794,0.7306,0.8189,0.8178,0.8967,1.0246,0.9555,1.0171,1.1598,1.1247,1.1189,1.1396,1.1657,1.1917,1.2207,1.2505,1.2764,1.3023,3.8104,3.8411,3.8604,3.8084,3.7276,3.6546,3.6084,3.4853,3.3699,0.0,0.0,0.0,3.0429,2.9931,2.9534,2.9148,2.9462,2.9698,2.9698,3.014,3.0417,3.0506,3.0448,3.0467,3.0602,2.9641,2.9024,2.8809,2.9199,2.916,2.8769,2.9894,3.0312,3.0065,2.863,2.7842,2.7567,2.6701,2.627,2.5134,1.3037,0.4861,-0.0715,-0.6686,-1.1549,-1.5233,-1.5494,-1.5429,-1.5065,-1.3757,-1.0532,-0.5471,0.3368,0.8954,1.1918,1.0303,0.7571,0.4517,0.1997,-0.0984,-0.343,-0.3625,0.0,0.0,-0.6093,-0.6498,-0.7842,-1.1687,-1.357,-1.5641,-1.936,-2.0461,-2.1016,-2.1645,-2.2392,-2.2219,-2.0338,-1.6968,-1.3785,-1.1255,-0.5443,-0.0104,0.3877,0.6813,0.8582,0.8861,1.2035,1.3669,1.2986,1.0978,0.9256,0.8081,0.7362,0.673,0.6145,0.6145,0.6145,0.6145,0.6145,0.6529,0.7235,0.7208,0.7629,0.8442,0.8006,0.8317,0.9037,0.9034,0.9745,1.0789,1.0431,1.0519,1.0741,1.0493,1.0573,1.0859,0.0,3.793,3.8007,3.8007,3.7276,3.6699,3.6699,3.593,3.5084,0.0,3.3449,3.2699,3.2146,3.1978,3.1572,3.0726,3.0509,3.0398,3.0398,3.0398,3.0417,3.0506,3.0448,3.0467,3.0602,3.0524,3.0165,2.9512,3.0351,3.0312,2.9505,3.017,2.9901,2.8883,2.8445,2.7295,2.5707,2.5573,2.5594,2.4407,0.9125,-0.0335,-0.6432,-1.7113,-2.1428,-2.1784,-2.1607,-2.1509,-2.1118,-1.8907,-1.3229,-0.6807,-0.4803,-0.2089,0.0158,-0.0862,-0.3107,-0.5428,-0.6246,-0.8312,-1.0108,-0.9669,-0.8443,0.0,-0.6774,-0.4822,-0.3568,-0.5224,-0.6208,-0.839,-1.3583,-1.5643,-1.6962,-1.8192,-1.911,-1.9386,-1.8617,-1.2444,-0.6722,-0.3142,-0.0153,0.4063,1.0407,1.2099,1.3125,1.396,1.4575,1.4665,1.4111,1.2651,1.1025,0.932,0.8233,0.7132,0.586,0.5701,0.5597,0.5597,0.5597,0.5982,0.6588,0.6534,0.6529,0.6588,0.6534,0.6529,0.6583,0.6612,0.8069,1.0187,0.8956,0.8685,0.8844,0.7817,0.7563,0.7967,3.6949,3.7526,3.8007,3.8007,3.7276,3.6699,3.6699,3.543,3.4391,3.4218,3.3577,3.3299,3.3751,3.2724,3.186,3.1573,3.0883,3.0487,3.0487,3.0417,3.0448,3.0583,3.0525,3.0544,3.0679,3.0051,2.9666,2.957,2.9766,2.9728,2.9487,2.9583,2.9364,2.8836,2.7218,2.6188,2.5615,2.433,2.2529,1.9396,0.7146,0.1795,-0.038,-1.4912,-1.9918,-1.9302,-1.9713,-1.9317,-1.8369,-1.7002,-1.2256,-0.684,-0.6686,-0.3543,-0.0293,-0.2202,-0.5294,-0.8654,-1.1187,-1.3524,-1.5106,-1.4428,-1.407,0.0,-0.8129,-0.514,-0.3318,-0.3254,-0.1042,-0.0069,-0.3113,-0.2652,-0.178,-0.1574,-0.103,-0.3228,-1.0614,-0.3855,0.249,0.4353,0.8717,1.2761,1.5707,1.434,1.4169,1.6338,1.7057,1.7302,1.7155,1.5096,1.3527,1.2655,0.9941,0.8357,0.8094,0.6945,0.6367,0.6367,0.6367,0.648,0.6588,0.5982,0.6036,0.6588,0.5982,0.6036,0.6588,0.6578,0.6934,0.7427,0.7286,0.7443,0.7671,0.7918,0.8265,0.8573,3.618,3.6776,3.7238,3.6815,3.6781,3.6647,3.6219,3.5839,3.5416,3.4968,3.4603,3.4411,3.44,3.3646,3.2788,3.1878,3.1398,3.0956,3.0525,3.0506,3.0525,3.0602,3.0559,3.0576,3.0653,3.0285,3.0115,3.0152,3.0222,3.0005,2.9543,2.9446,2.8781,2.7656,2.6324,2.4635,2.2682,2.1522,1.8659,1.4275,0.7746,0.2874,-0.1515,-1.139,-1.5874,-1.6921,-1.6926,-1.6641,-1.623,-1.6236,-1.436,-1.2075,-1.2244,-1.1306,-1.0364,-1.137,-1.3966,-1.6772,-1.8111,-1.9884,-2.1065,-1.9883,-1.8182,0.0,0.0,-0.7662,-0.4634,-0.3371,0.0569,0.4586,0.7203,0.5388,0.3358,0.2917,0.4986,0.5305,0.1481,0.5127,0.9359,1.2341,1.5128,1.684,1.7006,1.66,1.7059,1.8714,1.9055,1.8988,1.8504,1.6536,1.4855,1.3626,1.1411,0.9754,0.8731,0.8,0.7486,0.7128,0.7128,0.6966,0.6588,0.6204,0.5873,0.555,0.5167,0.5222,0.5555,0.5555,0.5546,0.5618,0.6205,0.6474,0.6611,0.6546,0.6089,0.5501,3.5411,3.5911,3.6219,3.5411,3.6031,3.6367,3.5509,3.6164,3.6485,3.5718,3.5795,3.5592,3.4801,3.4488,3.3872,3.2643,3.1746,3.1158,3.0944,3.05,3.0239,3.022,3.0451,3.0501,3.0326,3.0406,3.0451,3.0472,3.0573,3.0253,2.9545,2.923,2.8203,2.6559,2.5168,2.2455,1.8853,1.768,1.4082,0.8947,0.7466,0.2645,-0.4158,-0.8905,-1.2464,-1.4875,-1.449,-1.4517,-1.4822,-1.5718,-1.6515,-1.7158,-1.7247,-1.8644,-2.0255,-2.0288,-2.1943,-2.375,-2.3619,-2.4464,-2.5063,-2.365,-2.1011,-1.7913,0.0,0.0,0.0,-0.4069,0.1211,0.7244,1.3417,1.0798,0.7287,0.5984,0.8901,1.1951,0.0,1.4319,0.0,1.9071,1.9668,0.0,1.8186,1.9381,2.0425,2.0947,2.0921,2.0576,1.9899,1.7922,1.6108,1.4528,1.2974,1.1314,0.9489,0.9096,0.8646,0.809,0.799,0.7456,0.6588,0.6588,0.5823,0.4519,0.4519,0.4519,0.4519,0.4519,0.4519,0.4591,0.538,0.5706,0.5604,0.5199,0.4084,0.2734,3.4526,3.5045,3.5391,3.4584,3.5161,3.5483,3.4742,3.5317,3.5814,3.5701,3.6458,3.6629,3.5587,3.4932,3.4731,3.5129,3.1581,3.0209,3.2315,3.0289,2.8944,2.8826,2.9902,3.0114,2.9284,2.9448,2.9581,2.9643,2.9648,2.9558,2.9313,2.8418,2.7627,2.6858,2.2912,1.9151,1.5621,1.2686,0.8308,0.328,0.2364,0.0104,-0.3496,-1.0257,-1.308,-1.3481,-1.3751,-1.4226,-1.4684,-1.4623,-1.5437,-1.6572,-1.6987,-1.8321,-1.9808,-2.048,-2.1574,-2.2722,-2.3347,-2.3379,-2.3084,-2.2437,-2.2032,-2.048,-1.541,0.0,-0.9417,-0.4306,0.0,0.8386,0.9208,0.0,0.0,1.7661,1.9617,2.1491,2.238,2.3502,2.3615,2.2008,2.196,0.0,0.0,2.3312,2.3255,2.2736,2.2972,2.307,2.2916,2.0218,1.8397,1.7718,1.4892,1.3057,1.2357,1.0594,0.9651,0.9555,0.8949,0.7937,0.6588,0.6588,0.5823,0.4519,0.4519,0.4519,0.4519,0.4519,0.4525,0.4549,0.4819,0.4907,0.4928,0.5258,0.5212,0.457,3.493,3.5257,3.5243,3.4441,3.4673,3.47,3.3923,3.4882,3.5732,3.5806,3.645,3.6406,3.5105,3.4363,3.3522,3.2441,2.8865,2.6993,2.7708,2.5757,2.4301,2.3682,2.5973,2.6528,2.502,2.6711,2.7554,2.7473,2.825,2.8068,2.6973,2.706,2.5768,2.3237,1.9402,1.4992,1.0114,0.6371,0.1425,-0.3896,-0.4328,-0.6036,-0.8345,-0.8624,-0.9991,-1.1921,-1.2939,-1.343,-1.3726,-1.437,-1.5381,-1.649,-1.703,-1.8147,-1.9293,-1.9553,-2.0371,-2.1244,-2.1392,-2.1787,-2.1943,-2.1029,-2.0865,-2.0213,-1.7507,-1.5473,-1.3502,-1.1303,0.0,0.0,0.0,0.0,0.0,0.0,1.8548,2.0868,2.22,0.0,2.4606,2.4328,0.0,0.0,0.0,0.0,0.0,0.0,2.4196,2.4143,2.3293,2.1069,1.9447,1.8698,1.5984,1.4109,1.3283,1.1627,1.0248,0.9162,0.8455,0.7391,0.5982,0.5982,0.5441,0.4519,0.4519,0.4519,0.4519,0.4519,0.4525,0.4428,0.3632,0.3851,0.4423,0.2858,0.2278,0.2042,3.5026,3.5353,3.5185,3.4172,3.4284,3.4269,3.3643,3.4213,3.4757,3.4907,3.5345,3.493,3.2973,3.1875,3.0325,2.7977,2.3883,2.1307,2.1054,1.9123,1.7601,1.6707,1.9701,2.0524,1.8676,2.1892,2.3294,2.2658,2.4295,2.4345,2.2901,2.365,2.208,1.8468,1.5017,1.0047,0.4036,0.0305,-0.4502,-0.9639,-0.9422,-1.029,-1.1367,-0.8467,-0.9009,-1.1484,-1.252,-1.2881,-1.3036,-1.4031,-1.5152,0.0,-1.6613,-1.7694,-1.8751,-1.8618,-1.9242,-1.9936,-1.9718,-2.0216,-2.0535,-1.9555,-1.9295,-1.9035,-1.8127,-1.7076,-1.6215,-1.5907,-1.0776,0.0,0.0,0.0,0.8092,1.1468,0.0,1.788,2.013,2.2031,2.3878,0.0,0.0,0.0,0.0,0.0,0.0,0.0,0.0,2.5079,2.3881,2.1895,2.0448,1.9762,1.7303,1.5329,1.3972,1.2305,1.0606,0.8851,0.802,0.6858,0.5487,0.5601,0.5226,0.4519,0.4519,0.4519,0.4519,0.4519,0.4522,0.4363,0.3241,0.3529,0.4121,0.1116,-0.0,-0.0,3.4257,3.493,3.5026,3.3487,3.3945,3.4433,3.4192,3.3041,3.2265,3.2388,3.2788,3.1863,2.8726,2.6736,2.4696,2.2342,1.6095,1.2484,1.302,1.0522,0.8721,0.8037,1.0883,1.1747,1.0141,1.4497,1.5957,1.4192,1.6564,1.7418,1.6804,1.72,1.5976,1.327,0.9653,0.433,-0.216,-0.4919,-0.8652,-1.2659,-1.1622,-1.0704,-1.0044,-1.1496,-1.2397,-1.2832,-1.2881,0.0,0.0,-1.34,-1.4422,0.0,0.0,0.0,0.0,0.0,-1.8398,-1.8878,0.0,0.0,0.0,-1.7893,0.0,0.0,0.0,0.0,-1.6328,-1.4772,-1.4512,-1.296,-0.792,-0.3688,0.0962,0.6766,1.0723,0.0,0.0,2.0072,2.2606,2.5889,0.0,0.0,0.0,0.0,0.0,0.0,0.0,0.0,2.5749,2.3197,2.1723,2.1643,1.9271,1.699,1.4862,1.2611,1.0706,0.9158,0.7973,0.6722,0.5487,0.5786,0.5407,0.4519,0.4519,0.4519,0.4519,0.4519,0.4519,0.4522,0.4432,0.4455,0.4157,0.1122,-0.0,-0.0,3.3955,3.4468,3.4499,3.3377,3.3378,3.3215,3.2344,3.1058,3.0113,2.9958,2.8738,2.7814,2.7723,2.2546,1.7284,1.2953,0.8617,0.6014,0.5814,0.3157,0.13,0.0701,0.3698,0.4478,0.2576,0.6807,0.8633,0.7824,0.9777,1.0285,0.9505,1.0965,1.0027,0.711,0.4042,0.0373,-0.3815,-0.8489,-1.147,-1.3023,-1.3094,-1.2484,-1.1498,-1.1831,-1.1799,-1.1633,-1.2569,-1.3152,0.0,-1.3631,-1.45,-1.5429,-1.5045,-1.5579,-1.6346,-1.5949,-1.5941,0.0,0.0,0.0,-1.6005,-1.609,0.0,0.0,0.0,0.0,0.0,0.0,-1.4274,-1.2868,-1.0101,-0.6862,-0.3313,0.0616,0.4576,0.8435,0.0,1.6083,1.9436,2.179,2.4318,2.568,0.0,0.0,0.0,0.0,0.0,0.0,0.0,2.3733,2.2816,2.225,1.9759,1.722,1.4673,1.3293,1.1125,0.8155,0.7284,0.5642,0.3335,0.447,0.482,0.4484,0.4484,0.4484,0.4484,0.4525,0.4525,0.4487,0.4494,0.3285,0.1379,0.0365,-0.0,-0.0,3.3598,3.4043,3.4026,3.3315,3.1983,3.0557,2.9204,2.8581,2.767,2.6218,2.5201,2.3606,2.0781,1.4936,0.9354,0.4554,0.0914,-0.178,-0.3203,-0.5081,-0.6486,-0.7292,-0.4734,-0.3769,-0.4645,-0.1799,0.0183,0.1139,0.2085,0.2617,0.2843,0.4261,0.3635,0.1177,-0.0686,-0.3187,-0.6198,-1.03,-1.2537,-1.3332,-1.3704,-1.327,-1.2357,0.0,-1.1822,-1.1515,0.0,-1.3324,-1.3505,-1.3732,-1.4301,-1.4829,-1.4474,-1.4771,-1.5159,-1.4799,-1.4698,-1.4697,-1.462,-1.458,0.0,-1.4903,-1.4924,0.0,-1.5365,0.0,-1.4961,0.0,0.0,-1.3273,-1.1094,-0.9464,-0.712,-0.3294,-0.05,0.258,0.0,1.1112,1.4556,1.6218,2.0826,2.3981,2.4371,0.0,0.0,0.0,0.0,0.0,0.0,0.0,2.261,2.2393,1.9359,1.6798,1.4809,1.294,1.0241,0.674,0.5049,0.3275,0.1446,0.2454,0.3074,0.3466,0.3583,0.3697,0.3752,0.4252,0.4487,0.4412,0.3309,0.1722,-0.0,-0.0,-0.0,-0.0,3.3112,3.3554,3.3604,3.3138,2.9887,2.686,2.5415,2.5748,2.4762,2.0887,2.164,1.863,0.8481,0.4472,0.1034,-0.2799,-0.685,-1.0372,-1.3345,-1.3763,-1.4314,-1.5417,-1.3925,-1.249,-1.139,-1.0792,-0.8985,-0.5868,-0.6241,-0.5304,-0.3175,-0.2582,-0.3009,-0.427,-0.4478,-0.6303,-0.9253,-1.0544,-1.2041,-1.3593,-1.3542,-1.3114,-1.2541,-1.279,-1.2626,-1.2443,-1.3407,-1.345,-1.3076,-1.361,-1.3789,-1.38,-1.3779,-1.4143,-1.4606,-1.4606,-1.4606,-1.4567,-1.4391,-1.432,-1.432,-1.4341,0.0,0.0,0.0,0.0,-1.4639,0.0,0.0,0.0,-1.1308,-1.1526,-1.0432,-0.5244,-0.4541,-0.3125,0.1461,0.5247,0.8153,0.9794,1.6767,2.215,2.3904,2.3794,0.0,0.0,0.0,2.293,0.0,0.0,2.1342,2.2088,1.8346,1.5894,1.4925,1.1398,0.8078,0.5012,0.1541,-0.0172,-0.0222,-0.0222,0.0334,0.1335,0.1783,0.2007,0.2232,0.3699,0.4297,0.3986,0.1099,-0.0,-0.0,-0.0,-0.0,-0.0,3.2349,3.2786,3.2627,3.1091,2.8443,2.6749,2.7504,2.3942,1.8553,1.1199,0.9217,0.6932,0.2904,-0.1049,-0.5391,-1.0709,-1.1319,-1.226,-1.4223,-1.5354,-1.604,-1.6263,-1.6125,-1.5783,-1.5198,-1.413,-1.2757,-1.0989,-1.0855,-1.004,-0.8543,-0.6983,-0.6857,-0.7911,-0.7154,-0.7502,-0.8723,-1.0531,-1.1986,-1.3277,-1.3733,-1.3478,-1.2806,0.0,-1.2626,-1.2348,-1.2909,-1.372,-1.4379,-1.3469,-1.3634,-1.4122,-1.3387,-1.3248,-1.3344,-1.3344,-1.3344,-1.3364,-1.3282,-1.3273,-1.3342,-1.3661,-1.3677,-1.3772,0.0,0.0,0.0,0.0,0.0,0.0,0.0,0.0,-1.1011,-0.9905,-0.9246,-0.7382,-0.3024,-0.028,0.3042,0.7735,1.0706,1.4193,1.8892,2.0542,2.1358,0.0,0.0,0.0,0.0,0.0,0.0,2.0745,1.942,1.5763,0.9636,0.739,0.4681,0.1586,-0.0607,-0.224,-0.3352,-0.3355,-0.2715,-0.1616,-0.1469,-0.0672,0.0616,0.1008,0.1128,0.11,0.0333,-0.0,-0.0,-0.0,-0.0,-0.0,3.2144,3.2026,3.106,2.8575,2.4425,2.1575,2.1907,1.712,1.0913,0.3743,-0.06,-0.3115,-0.3479,-0.6358,-0.9402,-1.2353,-1.2269,-1.3099,-1.5334,-1.6121,-1.679,-1.7446,-1.7703,-1.7333,-1.6383,-1.5179,-1.4081,-1.3207,-1.2022,-1.1276,-1.1101,-0.9098,-0.8561,-0.9268,-0.8276,-0.8204,-0.8943,-1.0959,-1.2489,-1.3614,-1.3762,-1.3647,0.0,-1.3246,-1.3154,-1.3103,-1.3352,-1.387,-1.4337,-1.3983,-1.4023,-1.4134,-1.3381,-1.3154,-1.3125,-1.293,-1.2666,-1.2403,-1.2403,-1.2197,-1.2054,-1.2273,-1.2531,-1.2846,-1.328,-1.3638,-1.3857,0.0,0.0,0.0,0.0,0.0,-1.2236,-1.2279,-1.116,-0.9471,-0.7141,-0.4464,-0.1348,0.2592,0.5622,0.8982,1.3155,1.684,1.9174,0.0,0.0,0.0,0.0,0.0,0.0,2.0382,1.6422,1.1775,0.6489,0.3493,0.0588,-0.2186,-0.3068,-0.392,-0.4749,-0.4687,-0.4253,-0.3654,-0.3784,-0.3299,-0.2307,-0.1481,-0.1186,-0.1209,-0.1209,-0.0682,-0.0,-0.0,-0.0,-0.0,3.19,3.0899,2.9039,2.6429,1.9773,1.4272,1.252,0.7964,0.2822,-0.2427,-0.774,-1.0568,-0.9307,-1.0559,-1.1234,-1.0833,-1.1517,-1.3241,-1.632,-1.6341,-1.6919,-1.8434,-1.8533,-1.7896,-1.6407,-1.527,-1.4366,-1.3667,-1.1596,-1.0944,-1.1578,-0.9754,-0.9101,-0.9402,-0.8549,-0.8581,-0.9472,-1.1571,-1.2974,-1.3785,-1.3717,-1.3834,-1.4009,-1.3698,-1.3818,-1.4087,-1.4145,-1.4014,-1.3851,-1.4685,-1.4596,-1.4141,-1.3662,-1.3455,-1.3266,-1.29,-1.2246,-1.1665,-1.1665,-1.1266,-1.0813,-1.0813,-1.1266,-1.1763,-1.218,-1.2786,-1.3266,-1.3266,-1.3607,-1.3542,0.0,0.0,-1.3402,-1.2943,-1.1389,-1.0228,-1.0154,-0.7461,-0.492,-0.3392,0.1247,0.0,0.0,0.0,0.0,0.0,0.0,0.0,0.0,0.0,0.0,1.9382,1.1346,0.0,0.4137,0.0,-0.3328,-0.5389,-0.5226,-0.5074,-0.506,-0.4874,-0.4819,-0.4839,-0.5221,-0.5344,-0.5248,-0.3707,-0.3061,-0.3084,-0.3171,-0.2162,-0.0656,-0.0147,-0.0,-0.0,2.9968,2.8046,2.6745,2.734,1.9069,1.0783,0.6009,0.1132,-0.3633,-0.85,-0.9864,-1.0594,-1.0879,-1.0092,-1.0133,-1.1545,-1.1995,-1.3205,-1.564,-1.63,-1.7084,-1.8027,-1.8457,-1.8329,-1.7687,-1.713,-1.5973,-1.4187,-1.3371,-1.2241,-1.08,-0.973,-0.9609,-1.0301,-0.946,-0.9283,-0.9781,-1.1733,-1.2158,-1.1654,-1.3765,-1.4202,-1.3708,-1.3911,-1.4019,-1.4126,-1.4541,-1.4853,-1.498,-1.4454,-1.4429,-1.4531,-1.375,-1.3138,-1.258,-1.2149,-1.1516,-1.0965,-1.0965,-1.0864,-1.0813,-1.0813,-1.0864,-1.0981,-1.1107,-1.1622,-1.2072,-1.2072,-1.2622,-1.3114,-1.3188,0.0,0.0,-1.2157,-1.1495,-1.0685,-0.9531,-0.827,-0.6861,-0.5133,-0.2348,0.0926,0.0,0.0,0.0,0.0,0.0,0.0,0.0,0.0,0.0,0.0,0.7767,0.0,0.0,0.0,-0.516,-0.5394,-0.5196,-0.506,-0.4925,-0.4921,-0.4924,-0.5031,-0.5123,-0.5276,-0.538,-0.5045,-0.4938,-0.5004,-0.5497,-0.5194,-0.4104,-0.1068,-0.0,-0.0,2.6583,2.4415,2.2138,1.9766,1.2736,0.5819,0.1051,-0.3767,-0.7522,-0.9388,-0.9538,-0.9575,-0.9814,-0.9279,-0.938,-1.0303,-1.0758,-1.2059,-1.4744,-1.5557,-1.6512,-1.7969,-1.8203,-1.8213,-1.8018,-1.6814,-1.5818,-1.5155,-1.3178,-1.192,-1.1397,-0.9813,-0.9574,-1.0555,-0.9957,-0.9801,-0.9966,0.0,0.0,-1.1206,-1.262,-1.3023,-1.2716,-1.2921,-1.2959,-1.3013,-1.3483,-1.3879,-1.415,-1.4174,-1.4002,-1.3731,-1.2932,-1.2467,-1.2077,-1.1438,-1.0813,-1.0261,-1.0261,-1.0012,-0.9762,-0.9762,-1.0012,-1.0261,-1.0261,-1.0813,-1.1266,-1.1266,-1.1584,-1.1959,-1.2355,-1.2161,0.0,0.0,0.0,0.0,-0.8751,-0.7877,-0.695,-0.6032,-0.4574,-0.1961,0.2447,0.9182,1.412,1.6172,1.9418,0.0,0.0,0.0,0.0,0.0,0.0,0.0,0.0,0.0,0.0,-0.5425,-0.5284,-0.5213,-0.5148,-0.5148,-0.5186,-0.525,-0.5226,-0.5339,-0.5376,-0.5393,-0.4875,-0.3993,-0.4291,-0.4843,-0.5164,-0.3442,-0.1632,-0.0,2.3345,2.0897,1.7372,1.1689,0.5829,0.0696,-0.3178,-0.6951,-0.9177,-0.8872,-0.8835,-0.8725,-0.8644,-0.8533,-0.8574,-0.8744,-0.935,-1.0941,-1.3747,-1.4599,-1.5814,-1.7647,-1.7716,-1.7716,-1.7716,-1.603,-1.5187,-1.5181,-1.2464,-1.1368,-1.1723,-1.0045,-0.9712,-1.0517,-1.0287,0.0,0.0,0.0,-1.099,-1.1086,-1.17,-1.1914,-1.1785,-1.1954,-1.2074,-1.2116,-1.248,-1.2644,-1.2818,-1.3476,-1.3364,-1.2893,-1.2233,-1.1848,-1.155,-1.0918,-1.0177,-0.9562,-0.9562,-0.9211,-0.8804,-0.8804,-0.9211,-0.9562,-0.9562,-1.0115,-1.0568,-1.0568,-1.0777,-1.0992,-1.1301,-1.0829,0.0,0.0,0.0,0.0,0.0,-0.7175,-0.6567,-0.616,-0.5755,-0.3793,0.0438,0.0,0.0,0.0,0.0,0.0,0.0,0.0,0.0,0.0,0.0,-0.491,-0.7669,0.0,-0.6531,0.0,-0.5509,-0.5428,-0.5428,-0.5428,-0.5432,-0.5432,-0.5369,-0.5186,-0.4886,-0.5221,-0.4571,-0.318,-0.2391,-0.2972,-0.4332,-0.5278,-0.3181,-0.0,2.1417,1.8225,1.389,0.8849,0.22,-0.3489,-0.6698,-0.7482,-0.8081,-0.9271,-0.9311,-0.92,-0.92,-0.7967,-0.7457,-0.8385,-0.9349,-1.063,-1.2464,-1.3661,-1.5,-1.6655,-1.6706,-1.6706,-1.6706,-1.5887,-1.4547,-1.2752,-1.2262,-1.1493,0.0,-1.0617,-1.0578,0.0,0.0,0.0,0.0,-1.1148,-1.1106,-1.0369,-1.2185,-1.2286,-1.1462,-1.224,-1.2539,-1.2547,-1.258,-1.2278,-1.1896,-1.2012,-1.2451,-1.2943,-1.2488,-1.1725,-1.0887,-1.0476,-0.9635,-0.891,-0.891,-0.8857,-0.8804,-0.8804,-0.8857,-0.891,-0.891,-0.9413,-0.9917,-0.9917,-1.0617,-1.1156,-1.0849,-1.0065,-0.9537,0.0,0.0,0.0,0.0,-0.6912,-0.6447,-0.5353,-0.5466,-0.4517,-0.1479,0.0924,0.0,0.0,1.6666,0.0,0.0,0.0,0.0,0.0301,0.0,-0.6921,-0.9673,-0.7884,0.0,-0.6776,-0.5822,-0.5428,-0.5428,-0.5372,-0.5376,-0.5376,-0.5386,-0.4498,-0.3061,-0.4702,-0.5287,-0.4823,-0.1564,-0.0377,-0.0986,-0.4822,-0.3578,-0.0,1.7171,1.4344,0.0,0.0,0.0,0.0,0.0,-0.7424,-0.7538,-0.8035,-0.7975,-0.7989,-0.7895,-0.7256,-0.731,-0.8205,-0.9152,-1.0701,-1.3167,-1.3718,-1.4736,-1.6498,-1.607,-1.579,-1.579,-1.5059,-1.4115,-1.2938,-1.2452,0.0,0.0,0.0,0.0,0.0,0.0,-1.016,-0.996,-1.0546,-1.0519,-1.0201,-1.1174,-1.1164,-1.0643,-1.0943,-1.1122,-1.1122,-1.1122,-1.0772,-1.0401,-1.0912,-1.1296,-1.1487,-1.1105,-1.0608,-1.0122,-0.9757,-0.9248,-0.8804,-0.8804,-0.8804,-0.8804,-0.8804,-0.8804,-0.8699,-0.8262,-0.8362,-0.8396,-0.7966,-0.8199,-0.8463,-0.8407,-0.8236,-0.8012,0.0,0.0,0.0,0.0,0.0,-0.5807,-0.5178,-0.5346,-0.4597,-0.2156,0.0176,0.0,0.0,0.0,0.0,0.0,0.0,0.0,-0.3134,0.0,-0.8826,-1.0663,-0.8578,-0.73,-0.6768,-0.5848,-0.5428,-0.5428,-0.5432,-0.542,-0.5378,-0.5395,-0.4987,-0.4244,-0.2774,-0.2144,-0.2019,-0.0536,-0.0,-0.0543,-0.5102,-0.5749,-0.408,1.2369,0.0,0.8416,0.0,0.0995,-0.3345,-0.6828,-0.7353,-0.7272,-0.7156,-0.7139,-0.7102,-0.7,-0.6953,-0.7303,-0.8176,-0.8983,-1.0523,-1.2866,-1.3233,-1.4019,-1.5649,-1.5084,0.0,-1.4736,-1.4151,-1.3466,-1.2633,-1.2195,0.0,0.0,0.0,0.0,0.0,-0.9413,-0.9568,-0.9682,-0.9574,-0.9488,-0.9507,-0.9762,-0.9612,-0.9309,-0.9309,-0.9492,-0.9736,-0.9736,-0.955,-0.9402,-0.9977,-1.004,-0.9875,-1.0184,-1.0047,-0.9766,-0.9559,-0.9232,-0.8931,-0.8931,-0.8871,-0.8752,-0.8533,-0.848,-0.8262,-0.7557,-0.7396,-0.7235,-0.6696,-0.6693,-0.6804,-0.6959,-0.7003,-0.6937,-0.6578,0.0,0.0,0.0,-0.5443,-0.5153,-0.4457,-0.5131,-0.4955,-0.3153,-0.0969,0.0,0.0,0.0,0.0,0.0,0.0,0.0,0.0,0.0,0.0,0.0,-0.9468,-0.7962,-0.7046,-0.6203,-0.562,-0.5428,-0.548,-0.5242,-0.4742,-0.4756,-0.469,-0.4512,-0.1952,-0.0911,-0.0919,-0.102,-0.103,-0.143,-0.4811,-0.6548,-0.6857,0.739,0.7111,0.5657,0.0923,-0.0,-0.1659,-0.6658,-0.7275,-0.7078,-0.7143,-0.7139,-0.7139,-0.7139,-0.7014,-0.7264,-0.8272,-0.9066,-0.9922,-1.0939,-1.1853,-1.2732,0.0,0.0,-1.3745,-1.3745,-1.3424,-1.2535,-1.1002,0.0,0.0,-0.8813,0.0,-0.8286,-0.8807,-0.8239,-0.8339,-0.8813,-0.8244,-0.8021,-0.8021,-0.8027,-0.7825,-0.7504,-0.7504,-0.8057,-0.8795,-0.8795,-0.9033,-0.9274,-0.9338,-0.8748,-0.835,-1.0034,-1.0347,-1.0107,-1.0107,-0.9693,-0.9183,-0.9183,-0.9025,-0.8646,-0.7883,-0.7723,-0.7509,-0.6804,-0.6588,-0.6588,-0.6588,-0.6875,-0.7151,-0.7249,-0.68,-0.6642,-0.7251,0.0,0.0,0.0,-0.555,-0.472,-0.2961,-0.4828,-0.5924,-0.4942,-0.3332,0.0,0.0,0.0,0.0,0.0,0.0,0.0,-0.7391,-0.9801,0.0,-1.2841,-1.0503,-0.8877,-0.7962,-0.7111,-0.6203,-0.5432,-0.56,-0.4756,-0.3121,-0.3121,-0.3095,-0.3093,-0.3093,-0.3059,-0.3129,-0.3449,-0.3562,-0.3572,-0.3654,-0.5111,-0.7066,0.719,0.4512,0.1814,0.0272,-0.0,-0.053,-0.2119,-0.4947,-0.6861,-0.6854,-0.6936,-0.6997,-0.6997,-0.6861,-0.7141,0.0,-0.8862,-1.0068,0.0,-1.2109,-1.2732,-1.3673,-1.3098,-1.2732,-1.2732,-1.2513,-1.2019,-1.1289,0.0,0.0,0.0,-0.7354,-0.7272,-0.7397,-0.7797,-0.8115,-0.8239,-0.806,-0.8027,-0.8027,-0.8027,-0.7921,-0.7856,-0.7856,-0.7983,-0.8361,-0.8949,-0.8414,-0.7697,-0.8877,-0.835,-0.7307,-0.8479,-0.857,-0.8309,-0.8309,-0.8089,-0.7744,-0.7632,-0.7589,-0.7433,-0.7058,-0.6966,-0.675,-0.6036,-0.5496,-0.5171,-0.5171,-0.5278,-0.5356,-0.5592,-0.5456,-0.5546,-0.5944,-0.4654,0.0,-0.3666,0.0,-0.5218,-0.4614,-0.5242,-0.5593,-0.5255,-0.4942,0.0,0.0,0.0,0.0,0.0,0.0,0.0,0.0,-1.0476,0.0,-1.1981,-0.9801,-0.8174,-0.7111,-0.6203,-0.5744,-0.5525,-0.5825,-0.5614,-0.5075,-0.5241,-0.5372,-0.5571,-0.5571,-0.5568,-0.5603,-0.5647,-0.5832,-0.6016,-0.5966,-0.6478,-0.7163,0.6281,0.3585,0.1073,0.0178,-0.0,-0.0,-0.0,-0.2448,-0.4858,-0.6546,-0.6793,-0.6763,-0.6844,-0.6705,0.0,-0.7998,-0.853,-0.9443,-1.0989,-1.1156,-1.1613,-1.2558,-1.2057,-1.1768,-1.1768,0.0,0.0,-1.0372,-0.9349,-0.817,-0.697,-0.6503,-0.6439,-0.6719,-0.692,-0.7181,-0.7502,-0.7181,-0.7055,-0.7055,-0.7055,-0.7055,-0.7055,-0.7055,-0.7442,-0.8091,-0.8613,-0.8091,-0.7372,-0.842,-0.7637,-0.6334,-0.6859,-0.6905,-0.6872,-0.7502,-0.7474,-0.721,-0.7131,-0.7036,-0.6884,-0.6473,-0.6384,-0.6196,-0.539,-0.4925,-0.4619,-0.4509,-0.4549,-0.4429,-0.391,-0.3887,-0.4226,-0.5231,-0.4473,-0.3224,-0.1878,0.0,-0.3971,0.0,0.0,0.0,0.0,-0.5712,-0.5818,0.0,0.0,0.0,0.0,0.0,0.0,-0.9061,-0.9713,0.0,-1.0467,-0.9073,-0.7817,-0.6764,-0.597,-0.5606,-0.5759,-0.5991,-0.6143,-0.621,-0.6366,-0.6583,-0.6675,-0.6675,-0.673,-0.6739,-0.6797,-0.6905,-0.701,-0.7059,-0.7107,-0.7142,0.4968,0.4364,0.3099,0.0,0.0259,0.0,-0.0,-0.0,-0.1499,-0.5758,-0.6526,-0.6612,-0.6685,-0.6559,-0.6929,-0.7971,0.0,0.0,0.0,-0.9296,-0.9744,-1.064,-1.0708,-1.0708,-1.0708,-1.0708,-0.9946,-0.8483,-0.7319,-0.6666,-0.6588,-0.5749,-0.5815,-0.6588,-0.5752,-0.5881,-0.6588,-0.5749,-0.5428,-0.5428,-0.5491,-0.5491,-0.5491,-0.5557,-0.6535,-0.7897,-0.7962,-0.7897,-0.7832,-0.7897,-0.6802,-0.5446,-0.5446,-0.5446,-0.5701,-0.7316,-0.7624,-0.7336,-0.7322,-0.7176,-0.6782,-0.6117,-0.5932,-0.5712,-0.4914,-0.4819,-0.482,-0.4572,-0.4663,-0.4306,-0.2631,-0.2196,-0.2703,-0.4674,-0.5033,-0.3854,-0.0472,0.0,-0.1565,0.0,0.0,0.0,0.0,-0.5868,-0.5844,0.0,0.0,0.0,0.0,0.0,-0.7486,-0.73,-0.8004,-0.8428,-0.8508,-0.8309,-0.7723,-0.6821,-0.6164,-0.5891,-0.6034,-0.62,-0.6346,-0.6481,-0.6634,-0.6705,-0.6715,-0.6715,-0.6722,-0.6746,-0.6888,-0.6943,-0.6959,-0.7092,-0.7139,-0.7163,0.0,0.0,0.5866,0.5494,0.2448,-0.0,-0.0,-0.0,-0.0954,-0.3574,-0.5336,-0.6384,-0.6529,-0.6495,-0.6645,-0.6841,-0.7485,-0.7902,-0.8165,-0.8841,-0.9372,-0.9674,-0.9669,-0.9669,-0.9669,-0.9669,-0.8995,-0.7633,-0.7117,-0.6467,-0.5686,-0.5491,-0.5491,-0.5686,-0.5491,-0.5491,-0.5686,-0.5491,-0.5428,-0.5425,-0.6141,-0.6396,-0.6461,-0.7116,-0.7242,-0.7111,-0.7767,-0.7116,-0.6145,-0.6789,-0.636,-0.5535,-0.5535,-0.5535,-0.5648,-0.5922,-0.5986,-0.5864,-0.5728,-0.5601,-0.5483,-0.5247,-0.5104,-0.5043,-0.4897,-0.4732,-0.4623,-0.4779,-0.4706,-0.4461,-0.4056,-0.2103,-0.0691,-0.1191,-0.1257,-0.0966,-0.0135,-0.0,0.0,0.0,-0.5881,-0.5644,-0.5888,-0.5844,-0.5861,0.0,0.0,0.0,0.0,-0.6257,-0.671,-0.7427,-0.8288,-0.8433,-0.7792,-0.7671,-0.7149,-0.6029,-0.5974,-0.5993,-0.6037,-0.6302,-0.6441,-0.6481,-0.6634,-0.6766,-0.6875,-0.6875,-0.6939,-0.7041,-0.7078,-0.7092,-0.7095,-0.7129,-0.7139,-0.718,0.7015,0.6813,0.6773,0.6885,0.3991,0.1293,0.016,-0.1662,-0.2901,-0.3047,-0.4985,-0.6314,-0.6376,-0.6376,-0.6376,-0.6376,-0.6843,-0.7099,-0.7099,-0.7633,-0.8161,-0.8618,-0.8618,-0.8618,-0.8618,-0.8618,-0.7965,-0.6647,-0.6414,-0.5977,-0.5428,-0.5428,-0.5428,-0.5428,-0.5428,-0.5428,-0.5428,-0.5815,-0.6009,-0.6075,-0.692,-0.7307,-0.7372,-0.7827,-0.7962,-0.7912,-0.8012,-0.7456,-0.6672,-0.6819,-0.6368,-0.5688,-0.5688,-0.5688,-0.5671,-0.5586,-0.5467,-0.5359,-0.5345,-0.5291,-0.5233,-0.5165,-0.4464,-0.3857,-0.3916,-0.3796,-0.3863,-0.4605,-0.4852,-0.4412,-0.272,-0.1132,-0.0,-0.0,0.1414,0.1885,0.0206,-0.0,0.0,-0.442,-0.5721,-0.623,-0.5988,-0.605,-0.5986,-0.5928,0.0,0.0,-0.6023,-0.603,-0.625,-0.6763,-0.7356,-0.7356,-0.6838,-0.6915,-0.6574,-0.5908,-0.6196,-0.6298,-0.624,-0.6542,-0.6681,-0.6688,-0.6837,-0.6949,-0.7024,-0.7024,-0.7071,-0.7139,-0.7139,-0.7139,-0.7143,-0.7064,-0.7108,-0.7111,0.681,0.6759,0.6681,0.6712,0.5173,0.2884,-0.0472,-0.4014,-0.5677,-0.383,-0.5168,-0.6278,-0.6264,-0.6264,-0.6268,-0.6264,-0.6264,-0.6264,-0.6338,-0.6338,-0.6718,-0.7557,-0.7553,-0.7553,-0.7553,-0.7553,-0.7013,-0.5837,-0.5694,-0.5617,-0.5466,-0.5442,-0.5446,-0.5466,-0.5463,-0.554,-0.5758,-0.6477,-0.6854,-0.7025,-0.7977,-0.8304,-0.8278,-0.8309,-0.8657,-0.9088,-0.828,-0.7937,-0.7761,-0.7095,-0.6459,-0.5837,-0.5837,-0.5837,-0.584,-0.5864,-0.5661,-0.5457,-0.5586,-0.5528,-0.5396,-0.5038,-0.401,-0.2936,-0.2445,-0.2317,-0.2602,-0.3606,-0.4205,-0.3614,-0.0587,-0.0,-0.0,-0.0,0.2597,0.3697,0.1137,0.0,-0.0638,-0.2402,-0.4787,-0.6235,-0.6067,-0.6162,-0.6125,-0.5888,-0.5945,-0.6017,0.0,-0.604,-0.604,-0.6064,-0.6193,-0.6196,-0.6064,-0.6196,-0.6207,-0.6101,-0.6485,-0.661,-0.6515,-0.68,-0.6929,-0.6936,-0.7078,-0.7139,-0.7139,-0.7139,-0.7139,-0.7139,-0.7139,-0.7139,-0.7058,-0.7101,-0.7108,-0.7053,0.6532,0.6623,0.6627,0.6725,0.6281,0.3312,-0.4173,-0.5849,-0.6159,-0.5883,-0.6126,-0.6288,-0.6278,-0.6285,-0.6288,-0.6278,-0.6274,-0.6271,-0.6338,-0.6338,-0.6338,-0.649,-0.6567,-0.6567,-0.6567,-0.6567,-0.6325,-0.5993,-0.5926,-0.5856,-0.5638,-0.5504,-0.5514,-0.5641,-0.5628,-0.6098,-0.6987,-0.7123,-0.7582,-0.825,-0.9338,-0.9649,-0.9475,-0.9548,-0.9215,-0.8597,-0.7588,-0.6824,-0.6122,-0.6008,-0.5957,-0.5993,-0.5993,-0.5993,-0.602,-0.6152,-0.5973,-0.5739,-0.5762,-0.5694,-0.5256,-0.3534,-0.4044,-0.419,-0.1084,-0.0434,-0.0506,-0.0652,-0.0752,-0.0694,-0.0076,-0.0,-0.0,-0.0,0.0456,0.1722,0.4213,0.0,-0.0146,-0.0449,-0.3925,-0.628,-0.623,-0.6135,-0.6098,-0.6183,-0.5969,-0.5949,-0.621,-0.6101,-0.6091,-0.622,-0.6247,-0.6251,-0.6227,-0.6247,-0.6308,-0.6403,-0.6474,-0.6563,-0.6671,-0.6848,-0.6929,-0.6936,-0.7078,-0.7139,-0.7139,-0.7139,-0.7139,-0.7139,-0.7139,-0.7139,-0.7071,-0.7128,-0.7103,-0.6786,0.6555,0.6513,0.6579,0.6848,0.4706,0.086,-0.5364,-0.6315,-0.6298,-0.6281,-0.6278,-0.6274,-0.6271,-0.6281,-0.6285,-0.6278,-0.6278,-0.6278,-0.6281,-0.6268,-0.6338,-0.6338,-0.6338,-0.6264,-0.6271,-0.6271,-0.6276,-0.6136,-0.6148,-0.5472,-0.4122,-0.4343,-0.4906,-0.5679,-0.5596,-0.5944,-0.6508,-0.7003,-0.7724,-0.8615,-0.9558,-0.9886,-0.9793,-0.9904,-0.9319,-0.8353,-0.7538,-0.6929,-0.6584,-0.6165,-0.6095,-0.6156,-0.6156,-0.6207,-0.6281,-0.6352,-0.6162,-0.5908,-0.5823,-0.5874,-0.55,-0.3261,-0.2624,-0.2055,-0.0386,-0.0,-0.0,-0.0,-0.0,-0.0,-0.0,-0.0,-0.0,-0.0,-0.0,0.0,0.0,0.2725,0.1799,-0.1302,-0.3386,-0.5032,-0.6183,-0.62,-0.6183,-0.6254,-0.6129,-0.6112,-0.6254,-0.6193,-0.6186,-0.6257,-0.6338,-0.6338,-0.6338,-0.642,-0.6488,-0.6474,-0.6715,-0.6827,-0.6827,-0.6976,-0.7044,-0.7048,-0.7112,-0.7139,-0.7139,-0.7139,-0.7139,-0.7149,-0.7231,-0.7265,-0.7285,-0.7267,-0.6423,-0.4869,0.6507,0.6035,0.568,0.6131,0.1976,-0.2579,-0.5836,-0.6298,-0.6278,-0.6274,-0.6376,-0.6397,-0.6397,-0.6359,-0.639,-0.639,-0.6356,-0.6339,-0.6267,-0.5817,-0.5789,-0.6268,-0.6271,-0.6274,-0.6281,-0.5802,-0.5582,-0.5541,-0.6051,-0.5383,-0.3528,-0.3498,-0.4356,-0.5856,-0.5768,-0.5912,-0.6339,-0.7207,-0.8179,-0.9059,-0.982,-1.009,-0.9968,-0.9537,-0.8913,-0.815,-0.7356,-0.7037,-0.699,-0.6486,-0.6312,-0.6315,-0.6352,-0.6437,-0.6525,-0.6525,-0.6363,-0.6159,-0.6044,-0.616,-0.593,-0.4097,-0.2196,-0.0798,-0.0729,-0.0322,-0.0,-0.0,-0.0,-0.0,-0.0,-0.0,-0.0,-0.0,0.0,0.0,0.0,0.1406,0.0927,-0.3306,-0.3864,-0.4562,-0.6109,-0.6264,-0.6338,-0.6338,-0.6338,-0.6338,-0.6338,-0.6338,-0.6338,-0.6338,-0.6291,-0.6295,-0.6338,-0.6552,-0.6641,-0.6529,-0.6909,-0.7051,-0.6983,-0.7092,-0.7139,-0.7139,-0.7139,-0.7139,-0.7139,-0.7139,-0.7139,-0.7156,-0.7312,-0.737,-0.7397,-0.7496,-0.6187,-0.411,0.6355,0.4693,0.3361,0.3368,-0.1722,-0.5921,-0.622,-0.6288,-0.6274,-0.6264,-0.6476,-0.6572,-0.6572,-0.6627,-0.6632,-0.6632,-0.6671,-0.6589,-0.6341,-0.4437,-0.4224,-0.6213,-0.6295,-0.6295,-0.6295,-0.4382,-0.3321,-0.3323,-0.5344,-0.6244,-0.5985,-0.4034,-0.4232,-0.6243,-0.6081,-0.66,-0.774,-0.8722,-0.9569,-1.0324,-1.063,-1.0589,-1.0185,-0.8566,-0.7893,-0.7744,-0.6696,-0.6395,-0.6419,-0.6486,-0.6458,-0.6481,-0.6624,-0.6675,-0.6681,-0.6681,-0.6668,-0.6651,-0.6637,-0.6637,-0.6585,-0.647,-0.4916,-0.3235,-0.2927,-0.1397,-0.0,-0.0,-0.0,-0.0,-0.0,-0.0,-0.0,-0.0,0.0,0.0,-0.0,-0.3533,-0.6183,-0.604,-0.6263,-0.6351,-0.6291,-0.6268,-0.6338,-0.6338,-0.6338,-0.6338,-0.6338,-0.6338,-0.6338,-0.6338,-0.6386,-0.6393,-0.6264,-0.6552,-0.6695,-0.6685,-0.6861,-0.7007,-0.7126,-0.7136,-0.7139,-0.7139,-0.7139,-0.7139,-0.7139,-0.7139,-0.7139,-0.7156,-0.7312,-0.737,-0.7407,-0.7617,-0.755,-0.66,0.6271,0.5646,0.4229,0.1641,-0.1876,-0.4787,-0.6136,-0.6281,-0.6298,-0.638,-0.6527,-0.6603,-0.6617,-0.6692,-0.6739,-0.6666,-0.6702,-0.6043,-0.4405,-0.4768,-0.4867,-0.4309,-0.4304,-0.4943,-0.6237,-0.5511,-0.5093,-0.5052,-0.5867,-0.5635,-0.4326,-0.4719,-0.5414,-0.6279,-0.6112,-0.6338,-0.6872,-0.7249,-0.7964,-0.8796,-0.8878,-0.8864,-0.874,-0.8181,-0.756,-0.695,-0.6659,-0.6532,-0.6542,-0.6597,-0.6614,-0.6624,-0.6681,-0.6766,-0.6858,-0.6946,-0.6912,-0.6861,-0.6949,-0.6875,-0.6763,-0.6812,-0.6257,-0.574,-0.5625,-0.4862,-0.3774,-0.2496,-0.2248,-0.2258,-0.2268,-0.2261,-0.2258,-0.2268,0.0,-0.2254,-0.222,-0.3785,-0.5317,-0.649,-0.6647,-0.6695,-0.6546,-0.6536,-0.6532,-0.6532,-0.6444,-0.639,-0.639,-0.6308,-0.6338,-0.6338,-0.6488,-0.6542,-0.6393,-0.6692,-0.6844,-0.6844,-0.699,-0.7088,-0.7139,-0.7139,-0.7139,-0.7139,-0.7139,-0.7139,-0.7146,-0.7244,-0.7285,-0.7305,-0.755,-0.7645,-0.7672,-0.7805,-0.7895,-0.7614,0.6271,0.6285,0.5179,0.1564,-0.0781,-0.3049,-0.5895,-0.6278,-0.6318,-0.6461,-0.6515,-0.6603,-0.6759,-0.6824,-0.6861,-0.6796,-0.6363,-0.5181,-0.321,-0.3899,-0.3675,-0.219,-0.2111,-0.2821,-0.4254,-0.5608,-0.6308,-0.6335,-0.6331,-0.5561,-0.4152,-0.5888,-0.66,-0.627,-0.6479,-0.646,-0.6338,-0.6644,-0.7176,-0.7783,-0.7783,-0.7783,-0.7795,-0.7532,-0.7058,-0.6485,-0.659,-0.6661,-0.6709,-0.6756,-0.6773,-0.678,-0.6824,-0.6943,-0.7085,-0.7183,-0.7177,-0.7149,-0.72,-0.7143,-0.7034,-0.6888,-0.7007,-0.7129,-0.7083,-0.6917,-0.6427,-0.4949,-0.4664,-0.4664,-0.4727,-0.4687,-0.4743,-0.4689,-0.4672,-0.4692,-0.4679,-0.4709,-0.5254,-0.6619,-0.6787,-0.6763,-0.6705,-0.6702,-0.6702,-0.6702,-0.6603,-0.6546,-0.6546,-0.6407,-0.6349,-0.6396,-0.6641,-0.6722,-0.6617,-0.6868,-0.6973,-0.6929,-0.7071,-0.7143,-0.7061,-0.7143,-0.717,-0.7224,-0.7217,-0.7241,-0.7292,-0.74,-0.7444,-0.7468,-0.7723,-0.7724,-0.7744,-0.7915,-0.7989,-0.8006,0.6338,0.6281,0.5652,0.3517,0.1407,-0.1409,-0.5578,-0.6285,-0.6332,-0.6324,-0.6535,-0.6679,-0.6757,-0.6974,-0.7061,-0.7084,-0.5496,-0.4095,-0.3181,-0.1205,-0.0078,-0.0,-0.0079,-0.0079,-0.0079,-0.4173,-0.6254,-0.6335,-0.6324,-0.6307,-0.6357,-0.7624,-0.7564,-0.6338,-0.7326,-0.7249,-0.6338,-0.7326,-0.7783,-0.7783,-0.7783,-0.7783,-0.771,-0.6648,-0.6352,-0.6474,-0.6478,-0.6576,-0.6725,-0.6878,-0.6929,-0.6956,-0.7099,-0.7248,-0.7373,-0.7373,-0.7482,-0.7567,-0.7414,-0.7373,-0.7336,-0.718,-0.7143,-0.7105,-0.6966,-0.6974,-0.7044,-0.6807,-0.6991,-0.7104,-0.7101,-0.7104,-0.7061,-0.7097,-0.7076,-0.7076,-0.7076,-0.7142,-0.7039,-0.686,-0.685,-0.6871,-0.6719,-0.6705,-0.6705,-0.6705,-0.6702,-0.6702,-0.6702,-0.6556,-0.6546,-0.6698,-0.6851,-0.6929,-0.6929,-0.7068,-0.7068,-0.6932,-0.7071,-0.7064,-0.7084,-0.7061,-0.7238,-0.74,-0.738,-0.7458,-0.7597,-0.76,-0.76,-0.7617,-0.7684,-0.765,-0.7667,-0.7932,-0.8006,-0.8026,0.6271,0.6285,0.6061,0.5433,0.2352,-0.0392,-0.1722,-0.4372,-0.6341,-0.6321,-0.5083,-0.493,-0.6832,-0.7064,-0.7091,-0.7098,-0.6477,-0.5861,-0.535,-0.4788,-0.3759,-0.2267,-0.3612,-0.4411,-0.4411,-0.416,-0.4768,-0.6304,-0.63,-0.629,-0.6276,-0.6736,-0.6681,-0.6338,-0.6644,-0.6567,-0.6338,-0.6641,-0.6718,-0.6718,-0.6718,-0.6783,-0.6893,-0.6687,-0.6661,-0.6807,-0.6905,-0.697,-0.7014,-0.7061,-0.7149,-0.7265,-0.7417,-0.7495,-0.7533,-0.7533,-0.7563,-0.759,-0.7543,-0.7533,-0.7495,-0.7339,-0.7302,-0.7319,-0.7383,-0.7438,-0.7431,-0.7275,-0.7366,-0.7411,-0.7104,-0.7333,-0.7431,-0.7372,-0.7344,-0.7344,-0.7344,-0.7156,-0.7082,-0.6994,-0.6991,-0.7058,-0.7014,-0.7007,-0.7007,-0.7007,-0.6837,-0.6743,-0.6646,-0.6681,-0.6681,-0.6736,-0.6861,-0.6847,-0.6853,-0.6984,-0.7119,-0.7078,-0.7048,-0.7078,-0.7084,-0.5985,-0.6103,-0.7171,-0.7168,-0.7332,-0.7588,-0.761,-0.7598,-0.7614,-0.7858,-0.6796,-0.5388,-0.7269,-0.8019,-0.751,0.6278,0.6295,0.6312,0.6329,0.2827,-0.0,-0.0,-0.2157,-0.4412,-0.6071,-0.4431,-0.3919,-0.5934,-0.616,-0.6183,-0.6183,-0.6461,-0.6572,-0.6358,-0.6335,-0.5727,-0.4457,-0.5581,-0.6312,-0.6315,-0.5021,-0.501,-0.6278,-0.6274,-0.6268,-0.6338,-0.6718,-0.6718,-0.6338,-0.6718,-0.6641,-0.6264,-0.6322,-0.6342,-0.6349,-0.641,-0.6485,-0.6573,-0.6664,-0.6797,-0.6939,-0.7024,-0.7092,-0.7149,-0.721,-0.7333,-0.7478,-0.757,-0.7638,-0.7682,-0.7682,-0.7726,-0.776,-0.7699,-0.7682,-0.7662,-0.7567,-0.7502,-0.7485,-0.758,-0.76,-0.7573,-0.7482,-0.7536,-0.7543,-0.7356,-0.7475,-0.757,-0.7478,-0.7411,-0.737,-0.737,-0.7238,-0.7163,-0.7224,-0.7231,-0.7231,-0.7231,-0.7231,-0.7207,-0.7146,-0.7027,-0.6857,-0.6823,-0.5902,-0.5817,-0.6837,-0.6019,-0.6051,-0.6947,-0.7027,-0.7061,-0.7139,-0.7074,-0.6811,-0.6174,-0.4862,-0.5458,-0.7197,-0.6191,-0.5889,-0.614,-0.6187,-0.6147,-0.6257,-0.7556,-0.6974,-0.5546,-0.5052,-0.4853,-0.4345,0.6281,0.6308,0.6169,0.5767,0.2594,-0.0,-0.0,-0.0,-0.1385,-0.5246,-0.4065,-0.3379,-0.4774,-0.493,-0.4975,-0.4984,-0.6017,-0.659,-0.6281,-0.6295,-0.6305,-0.6278,-0.6457,-0.6468,-0.6464,-0.6366,-0.6278,-0.6278,-0.6268,-0.6338,-0.6338,-0.7249,-0.7176,-0.6338,-0.7249,-0.7184,-0.6288,-0.6417,-0.6478,-0.6505,-0.6644,-0.6709,-0.6722,-0.6722,-0.6814,-0.6949,-0.6949,-0.7031,-0.7166,-0.7336,-0.7492,-0.7621,-0.7634,-0.7729,-0.7831,-0.7831,-0.7929,-0.8011,-0.7868,-0.7831,-0.7831,-0.7831,-0.7736,-0.7638,-0.7638,-0.7638,-0.7634,-0.7621,-0.7631,-0.7631,-0.7604,-0.7621,-0.7634,-0.7621,-0.7502,-0.7411,-0.7411,-0.7278,-0.7234,-0.7373,-0.738,-0.7377,-0.739,-0.738,-0.7309,-0.7153,-0.7142,-0.7051,-0.6897,-0.4741,-0.4474,-0.6732,-0.4917,-0.4919,-0.7104,-0.7104,-0.7084,-0.7143,-0.7074,-0.6361,-0.5015,-0.4292,-0.5039,-0.6789,-0.4758,-0.3849,-0.3607,-0.3612,-0.3616,-0.3919,-0.6372,-0.7305,-0.669,-0.1817,-0.0,-0.0,0.6312,0.6325,0.5288,0.1963,0.0628,-0.0,-0.0,-0.0,-0.0334,-0.1254,-0.0941,-0.1988,-0.5557,-0.5984,-0.6114,-0.6567,-0.6761,-0.6705,-0.6288,-0.6478,-0.6505,-0.6274,-0.735,-0.7905,-0.7774,-0.6787,-0.6264,-0.6264,-0.6264,-0.6338,-0.6338,-0.649,-0.649,-0.6338,-0.649,-0.6553,-0.6427,-0.6461,-0.6539,-0.6654,-0.6685,-0.6773,-0.6878,-0.6878,-0.697,-0.7095,-0.7095,-0.7112,-0.7183,-0.7458,-0.7645,-0.7787,-0.7906,-0.7967,-0.7991,-0.7991,-0.8014,-0.8031,-0.7997,-0.7991,-0.7991,-0.7991,-0.7967,-0.7943,-0.7943,-0.7943,-0.7909,-0.779,-0.7862,-0.7875,-0.7641,-0.7787,-0.7902,-0.7784,-0.7736,-0.7716,-0.7716,-0.759,-0.7512,-0.7546,-0.7444,-0.7417,-0.7539,-0.7441,-0.7309,-0.7153,-0.7136,-0.6599,-0.5356,-0.588,-0.57,-0.4378,-0.5622,-0.6668,-0.7353,-0.7336,-0.7275,-0.7078,-0.7084,-0.7062,-0.6995,-0.656,-0.4667,-0.1809,-0.4971,-0.4234,-0.0888,-0.0902,-0.0907,-0.0908,-0.1514,-0.1716,-0.1615,-0.0404,-0.0,-0.0,0.6271,0.4691,0.2601,0.0406,-0.0,-0.0,-0.0,-0.1939,-0.341,-0.3374,-0.225,-0.2354,-0.4568,-0.4761,-0.5384,-0.6763,-0.6831,-0.6719,-0.6485,-0.6614,-0.6873,-0.7263,-0.7979,-0.8598,-0.9148,-0.8489,-0.7845,-0.7219,-0.768,-0.7332,-0.6342,-0.6869,-0.6827,-0.6366,-0.6437,-0.6512,-0.6586,-0.6658,-0.6736,-0.6814,-0.6885,-0.6959,-0.7031,-0.7031,-0.7122,-0.7241,-0.7166,-0.7234,-0.7394,-0.7624,-0.7797,-0.7933,-0.8014,-0.8038,-0.8038,-0.8038,-0.8038,-0.8038,-0.8038,-0.8038,-0.8038,-0.8038,-0.8038,-0.8038,-0.8038,-0.8038,-0.8018,-0.7936,-0.7984,-0.7991,-0.7838,-0.7936,-0.8014,-0.7933,-0.7858,-0.7811,-0.7811,-0.7689,-0.7624,-0.7692,-0.7631,-0.7611,-0.7692,-0.7476,-0.7329,-0.7261,-0.7346,-0.6992,-0.6085,-0.6734,-0.6554,-0.527,-0.648,-0.7151,-0.7404,-0.7394,-0.7394,-0.7309,-0.6087,-0.6126,-0.7346,-0.7432,-0.605,-0.3387,-0.3655,-0.2289,-0.0,-0.0,-0.0,-0.0,-0.0,-0.0,-0.0,-0.0,-0.0,-0.0,0.5341,0.1744,-0.1179,-0.1179,-0.0841,-0.059,-0.0592,-0.3957,-0.6685,-0.7084,-0.516,-0.3599,-0.3197,-0.3503,-0.4547,-0.6546,-0.6746,-0.6756,-0.6705,-0.6913,-0.7492,-0.8324,-0.8786,-0.9548,-1.0502,-1.0789,-1.0105,-0.8577,-0.9207,-0.8492,-0.6645,-0.7398,-0.7304,-0.6515,-0.6644,-0.6715,-0.6749,-0.6875,-0.6943,-0.6973,-0.7092,-0.7139,-0.7139,-0.7139,-0.7238,-0.7356,-0.7224,-0.7377,-0.7655,-0.7773,-0.7913,-0.8038,-0.8038,-0.8038,-0.8038,-0.8038,-0.8038,-0.8038,-0.8038,-0.8038,-0.8038,-0.8038,-0.8038,-0.8038,-0.8038,-0.8038,-0.8038,-0.8038,-0.8038,-0.8038,-0.8038,-0.8038,-0.8038,-0.8038,-0.7933,-0.7848,-0.7848,-0.775,-0.7719,-0.7834,-0.7848,-0.7831,-0.778,-0.76,-0.7486,-0.7421,-0.7556,-0.7584,-0.7444,-0.726,-0.7168,-0.7168,-0.7144,-0.7238,-0.7475,-0.7475,-0.756,-0.763,-0.4992,-0.4407,-0.5942,-0.7259,-0.7635,-0.695,-0.2107,-0.0,-0.0,-0.0,-0.0,-0.0,-0.0,-0.0,-0.0,-0.0,-0.0,-0.0,0.1586,-0.294,-0.6173,-0.6173,-0.4457,-0.3121,-0.3097,-0.3635,-0.4772,-0.6867,-0.681,-0.58,-0.3783,-0.5304,-0.6619,-0.6715,-0.6936,-0.6973,-0.6715,-0.7874,-0.8581,-0.8414,-1.0559,-1.1786,-1.1834,-1.2983,-1.2349,-0.9913,-0.9013,-0.8431,-0.8085,-0.7226,-0.6833,-0.6671,-0.6692,-0.6773,-0.6898,-0.6919,-0.7,-0.7112,-0.7132,-0.7139,-0.7139,-0.7139,-0.7238,-0.7366,-0.735,-0.7533,-0.7784,-0.7804,-0.7913,-0.8038,-0.8038,-0.8038,-0.8038,-0.8038,-0.8038,-0.8038,-0.8038,-0.8038,-0.8038,-0.8038,-0.8038,-0.8038,-0.8038,-0.8038,-0.8038,-0.8038,-0.8038,-0.8038,-0.8038,-0.8038,-0.8038,-0.8038,-0.8021,-0.8007,-0.8007,-0.7991,-0.7987,-0.8007,-0.8007,-0.7909,-0.7651,-0.7723,-0.7723,-0.758,-0.7594,-0.7597,-0.7573,-0.7573,-0.7573,-0.7573,-0.7556,-0.7614,-0.7753,-0.7756,-0.7848,-0.7932,-0.5191,-0.2866,-0.1071,-0.5305,-0.7477,-0.7585,-0.232,-0.0,-0.0,-0.0,-0.0,-0.0,-0.0,-0.0,-0.0,-0.0,-0.0,-0.0,0.033,-0.3796,-0.7076,-0.7076,-0.6245,-0.5597,-0.5561,-0.5566,-0.592,-0.6997,-0.7092,-0.6673,-0.5562,-0.6304,-0.6901,-0.6827,-0.6946,-0.7256,-0.7885,-0.8541,-0.9411,-1.0569,-1.1691,-1.262,-1.3207,-1.3146,-1.2566,-1.1411,-1.0688,-0.9325,-0.7432,-0.7613,-0.7326,-0.6831,-0.6912,-0.6983,-0.7048,-0.7048,-0.7085,-0.7139,-0.7139,-0.719,-0.7272,-0.7272,-0.7414,-0.7628,-0.7712,-0.7773,-0.7824,-0.7909,-0.7984,-0.8038,-0.8038,-0.8038,-0.8038,-0.8038,-0.8038,-0.8038,-0.8038,-0.8038,-0.8038,-0.8038,-0.8038,-0.8038,-0.8038,-0.8038,-0.8038,-0.8038,-0.8038,-0.8038,-0.8038,-0.8038,-0.8038,-0.8038,-0.8038,-0.8038,-0.8038,-0.8038,-0.8038,-0.8038,-0.8038,-0.7987,-0.7858,-0.7902,-0.7879,-0.7729,-0.7797,-0.7807,-0.7723,-0.7719,-0.7719,-0.7719,-0.7641,-0.7672,-0.7731,-0.7731,-0.7825,-0.8009,-0.6773,-0.4014,-0.01,-0.2194,-0.3309,-0.3435,-0.101,-0.0,-0.0,-0.0,-0.0,-0.0,-0.0,-0.0,-0.0,-0.0,-0.0,-0.0]},{"header":{"parameterUnit":"m.s-1","parameterCategory":1,"la1":30.6,"la2":28.766,"lo1":-90.7593,"lo2":-88.6598,"dy":0.0162,"dx":0.0183,"nx":116,"ny":114,"refTime":"2024-05-10T06:00:00:Z","depth":0,"parameterNumber":3,"parameterNumberName":"V-component_of_WINDS"},"data":[0.0,0.0,0.0,0.0,0.0,0.0,0.0,0.0,0.0,0.0,0.0,0.0,0.0,0.0,0.0,0.0,0.0,0.0,0.0,0.0,0.0,0.0,0.0,0.0,0.0,0.0,0.0,0.0,0.0,0.0,0.0,0.0,0.0,0.0,0.0,0.0,0.0,0.0,0.0,0.0,0.0,0.0,0.0,0.0,0.0,0.0,0.0,0.0,0.0,0.0,0.0,0.0,0.0,0.0,0.0,0.0,0.0,0.0,0.0,0.0,0.0,0.0,0.0,0.0,0.0,0.0,0.0,0.0,0.0,0.0,0.0,0.0,0.0,0.0,0.0,0.0,0.0,0.0,0.0,0.0,0.0,0.0,0.0,0.0,0.0,0.0,0.0,0.0,0.0,0.0,0.0,0.0,0.0,0.0,0.0,0.0,0.0,0.0,0.0,0.0,0.0,0.0,0.0,0.0,0.0,0.0,0.0,0.0,0.0,0.0,0.0,0.0,0.0,0.0,0.0,0.0,0.0,0.0,0.0,0.0,0.0,0.0,0.0,0.0,0.0,0.0,0.0,0.0,0.0,0.0,0.0,0.0,0.0,0.0,0.0,0.0,0.0,0.0,0.0,0.0,0.0,0.0,0.0,0.0,0.0,0.0,0.0,0.0,0.0,0.0,0.0,0.0,0.0,0.0,0.0,0.0,0.0,0.0,0.0,0.0,0.0,0.0,0.0,0.0,0.0,0.0,0.0,0.0,0.0,0.0,0.0,0.0,0.0,0.0,0.0,0.0,0.0,0.0,0.0,0.0,0.0,0.0,0.0,0.0,0.0,0.0,0.0,0.0,0.0,0.0,0.0,0.0,0.0,0.0,0.0,0.0,0.0,0.0,0.0,0.0,0.0,0.0,0.0,0.0,0.0,0.0,0.0,0.0,0.0,0.0,0.0,0.0,0.0,0.0,0.0,0.0,0.0,0.0,0.0,0.0,0.0,0.0,0.0,0.0,0.0,0.0,0.0,0.0,0.0,0.0,0.0,0.0,0.0,0.0,0.0,0.0,0.0,0.0,0.0,0.0,0.0,0.0,0.0,0.0,0.0,0.0,0.0,0.0,0.0,0.0,0.0,0.0,0.0,0.0,0.0,0.0,0.0,0.0,0.0,0.0,0.0,0.0,0.0,0.0,0.0,0.0,0.0,0.0,0.0,0.0,0.0,0.0,0.0,0.0,0.0,0.0,0.0,0.0,0.0,0.0,0.0,0.0,0.0,0.0,0.0,0.0,0.0,0.0,0.0,0.0,0.0,0.0,0.0,0.0,0.0,0.0,0.0,0.0,0.0,0.0,0.0,0.0,0.0,0.0,0.0,0.0,0.0,0.0,0.0,0.0,0.0,0.0,0.0,0.0,0.0,0.0,0.0,0.0,0.0,0.0,0.0,0.0,0.0,0.0,0.0,0.0,0.0,0.0,0.0,0.0,0.0,0.0,0.0,0.0,0.0,0.0,0.0,0.0,0.0,0.0,0.0,0.0,0.0,0.0,0.0,0.0,0.0,0.0,0.0,0.0,0.0,0.0,0.0,0.0,0.0,0.0,0.0,0.0,0.0,0.0,0.0,0.0,0.0,0.0,0.0,0.0,0.0,0.0,0.0,0.0,0.0,0.0,0.0,0.0,0.0,0.0,0.0,0.0,0.0,0.0,0.0,0.0,0.0,0.0,0.0,0.0,0.0,0.0,0.0,0.0,0.0,0.0,0.0,0.0,0.0,0.0,0.0,0.0,0.0,0.0,0.0,0.0,0.0,0.0,0.0,0.0,0.0,0.0,0.0,0.0,0.0,0.0,0.0,0.0,0.0,0.0,0.0,0.0,0.0,0.0,0.0,0.0,0.0,0.0,0.0,0.0,0.0,0.0,0.0,0.0,0.0,0.0,0.0,0.0,0.0,0.0,0.0,0.0,0.0,0.0,0.0,0.0,0.0,0.0,0.0,0.0,0.0,0.0,0.0,0.0,0.0,0.0,0.0,0.0,0.0,0.0,0.0,0.0,0.0,0.0,0.0,0.0,0.0,0.0,0.0,0.0,0.0,0.0,0.0,0.0,0.0,0.0,0.0,0.0,0.0,0.0,0.0,0.0,0.0,0.0,0.0,0.0,0.0,0.0,0.0,0.0,0.0,0.0,0.0,0.0,0.0,0.0,0.0,0.0,0.0,0.0,0.0,0.0,0.0,0.0,0.0,0.0,0.0,0.0,0.0,0.0,0.0,0.0,0.0,0.0,0.0,0.0,0.0,0.0,0.0,0.0,0.0,0.0,0.0,0.0,0.0,0.0,0.0,0.0,0.0,0.0,0.0,0.0,0.0,0.0,0.0,0.0,0.0,0.0,0.0,0.0,0.0,0.0,0.0,0.0,0.0,0.0,0.0,0.0,0.0,0.0,0.0,0.0,0.0,0.0,0.0,0.0,0.0,0.0,0.0,0.0,0.0,0.0,0.0,0.0,0.0,0.0,0.0,0.0,0.0,0.0,0.0,0.0,0.0,0.0,0.0,0.0,0.0,0.0,0.0,0.0,0.0,0.0,0.0,0.0,0.0,0.0,0.0,0.0,0.0,0.0,0.0,0.0,0.0,0.0,0.0,0.0,0.0,0.0,0.0,0.0,0.0,0.0,0.0,0.0,0.0,0.0,0.0,0.0,0.0,0.0,0.0,0.0,0.0,0.0,0.0,0.0,0.0,0.0,0.0,0.0,0.0,0.0,0.0,0.0,0.0,0.0,0.0,0.0,0.0,0.0,0.0,0.0,0.0,0.0,0.0,0.0,0.0,0.0,0.0,0.0,0.0,0.0,0.0,0.0,0.0,0.0,0.0,0.0,0.0,0.0,0.0,0.0,0.0,0.0,0.0,0.0,0.0,0.0,0.0,0.0,0.0,0.0,0.0,0.0,0.0,0.0,0.0,0.0,0.0,0.0,0.0,0.0,0.0,0.0,0.0,0.0,0.0,0.0,0.0,0.0,0.0,0.0,0.0,0.0,0.0,0.0,0.0,0.0,0.0,0.0,0.0,0.0,0.0,0.0,0.0,0.0,0.0,0.0,0.0,0.0,0.0,0.0,0.0,0.0,0.0,0.0,0.0,0.0,0.0,0.0,0.0,0.0,0.0,0.0,0.0,0.0,0.0,0.0,0.0,0.0,0.0,0.0,0.0,0.0,0.0,0.0,0.0,0.0,0.0,0.0,0.0,0.0,0.0,0.0,0.0,0.0,0.0,0.0,0.0,0.0,0.0,0.0,0.0,0.0,0.0,0.0,0.0,0.0,0.0,0.0,0.0,0.0,0.0,0.0,0.0,0.0,0.0,0.0,0.0,0.0,0.0,0.0,0.0,0.0,0.0,0.0,0.0,0.0,0.0,0.0,0.0,0.0,0.0,0.0,0.0,0.0,0.0,0.0,0.0,0.0,0.0,0.0,0.0,0.0,0.0,0.0,0.0,0.0,0.0,0.0,0.0,0.0,0.0,0.0,0.0,0.0,0.0,0.0,0.0,0.0,0.0,0.0,0.0,0.0,0.0,0.0,0.0,0.0,0.0,0.0,0.0,0.0,0.0,0.0,0.0,0.0,0.0,0.0,0.0,0.0,0.0,0.0,0.0,0.0,0.0,0.0,0.0,0.0,0.0,0.0,0.0,0.0,0.0,0.0,0.0,0.0,0.0,0.0,0.0,0.0,0.0,0.0,0.0,0.0,0.0,0.0,0.0,0.0,0.0,0.0,0.0,0.0,0.0,0.0,0.0,0.0,0.0,0.0,0.0,0.0,0.0,0.0,0.0,0.0,0.0,0.0,0.0,0.0,0.0,0.0,0.0,0.0,0.0,0.0,0.0,0.0,0.0,0.0,0.0,0.0,0.0,0.0,0.0,0.0,0.0,0.0,0.0,0.0,0.0,0.0,0.0,0.0,0.0,0.0,0.0,0.0,0.0,0.0,0.0,0.0,0.0,0.0,0.0,0.0,0.0,0.0,0.0,0.0,0.0,0.0,0.0,0.0,0.0,0.0,0.0,0.0,0.0,0.0,0.0,0.0,0.0,0.0,0.0,0.0,0.0,0.0,0.0,0.0,0.0,0.0,0.0,0.0,0.0,0.0,0.0,0.0,0.0,0.0,0.0,0.0,0.0,0.0,0.0,0.0,0.0,0.0,0.0,0.0,0.0,0.0,0.0,0.0,0.0,0.0,0.0,0.0,0.0,0.0,0.0,0.0,0.0,0.0,0.0,0.0,0.0,0.0,0.0,0.0,0.0,0.0,0.0,0.0,0.0,0.0,0.0,0.0,0.0,0.0,0.0,0.0,0.0,0.0,0.0,0.0,0.0,0.0,0.0,0.0,0.0,0.0,0.0,0.0,0.0,0.0,0.0,0.0,0.0,0.0,0.0,0.0,0.0,0.0,0.0,0.0,0.0,0.0,0.0,0.0,0.0,0.0,0.0,0.0,0.0,0.0,0.0,0.0,0.0,0.0,0.0,0.0,0.0,0.0,0.0,0.0,0.0,0.0,0.0,0.0,0.0,0.0,0.0,0.0,0.0,0.0,0.0,0.0,0.0,0.0,0.0,0.0,0.0,0.0,0.0,0.0,0.0,0.0,0.0,0.0,0.0,0.0,0.0,0.0,0.0,0.0,0.0,0.0,0.0,0.0,0.0,0.0,0.0,0.0,0.0,0.0,0.0,0.0,0.0,0.0,0.0,0.0,0.0,0.0,0.0,0.0,0.0,0.0,0.0,0.0,0.0,0.0,0.0,0.0,0.0,0.0,0.0,0.0,0.0,0.0,0.0,0.0,0.0,0.0,0.0,0.0,0.0,0.0,0.0,0.0,0.0,0.0,0.0,0.0,0.0,0.0,0.0,0.0,0.0,0.0,0.0,0.0,0.0,0.0,0.0,0.0,0.0,0.0,0.0,0.0,0.0,0.0,0.0,0.0,0.0,0.0,0.0,0.0,0.0,0.0,0.0,0.0,0.0,0.0,0.0,0.0,0.0,0.0,0.0,0.0,0.0,0.0,0.0,0.0,0.0,0.0,0.0,0.0,0.0,0.0,0.0,0.0,0.0,0.0,0.0,0.0,0.0,0.0,0.0,0.0,0.0,0.0,0.0,0.0,0.0,0.0,0.0,0.0,0.0,0.0,0.0,0.0,0.0,0.0,0.0,0.0,0.0,0.0,0.0,0.0,0.0,0.0,0.0,0.0,0.0,0.0,0.0,0.0,0.0,0.0,0.0,0.0,0.0,0.0,0.0,0.0,0.0,0.0,0.0,0.0,0.0,0.0,0.0,0.0,0.0,0.0,0.0,0.0,0.0,0.0,0.0,0.0,0.0,0.0,0.0,0.0,0.0,0.0,0.0,0.0,0.0,0.0,0.0,0.0,0.0,0.0,0.0,0.0,0.0,0.0,0.0,0.0,0.0,0.0,0.0,0.0,0.0,0.0,0.0,0.0,0.0,0.0,0.0,0.0,0.0,0.0,0.0,0.0,0.0,0.0,0.0,0.0,0.0,0.0,0.0,0.0,0.0,0.0,0.0,0.0,0.0,0.0,0.0,0.0,0.0,0.0,0.0,0.0,0.0,0.0,0.0,0.0,0.0,0.0,0.0,0.0,0.0,0.0,0.0,0.0,0.0,0.0,0.0,0.0,0.0,0.0,0.0,0.0,0.0,0.0,0.0,0.0,0.0,0.0,0.0,0.0,0.0,0.0,0.0,0.0,0.0,0.0,0.0,0.0,0.0,0.0,0.0,0.0,0.0,0.0,0.0,0.0,0.0,0.0,0.0,0.0,0.0,0.0,0.0,0.0,0.0,0.0,0.0,0.0,0.0,0.0,0.0,0.0,0.0,0.0,0.0,0.0,0.0,0.0,0.0,0.0,0.0,0.0,0.0,0.0,0.0,0.0,0.0,0.0,0.0,0.0,0.0,0.0,0.0,0.0,0.0,0.0,0.0,0.0,0.0,0.0,0.0,0.0,0.0,0.0,0.0,0.0,0.0,0.0,0.0,0.0,0.0,0.0,0.0,0.0,0.0,0.0,0.0,0.0,0.0,0.0,0.0,0.0,0.0,0.0,0.0,0.0,0.0,0.0,0.0,0.0,-2.2596,0.0,0.0,0.0,0.0,0.0,0.0,0.0,0.0,0.0,0.0,0.0,0.0,0.0,0.0,0.0,0.0,0.0,0.0,0.0,0.0,0.0,0.0,0.0,0.0,0.0,0.0,0.0,0.0,0.0,0.0,0.0,0.0,0.0,0.0,0.0,0.0,0.0,0.0,0.0,0.0,0.0,0.0,0.0,0.0,0.0,0.0,0.0,0.0,0.0,0.0,0.0,0.0,0.0,0.0,0.0,0.0,0.0,0.0,0.0,0.0,0.0,0.0,0.0,0.0,0.0,0.0,0.0,0.0,0.0,0.0,0.0,0.0,0.0,0.0,0.0,0.0,0.0,0.0,0.0,0.0,0.0,0.0,0.0,0.0,0.0,0.0,0.0,0.0,0.0,0.0,0.0,0.0,0.0,0.0,0.0,0.0,0.0,0.0,0.0,0.0,0.0,0.0,0.0,0.0,0.0,0.0,0.0,0.0,0.0,0.0,0.0,0.0,0.0,0.0,0.0,0.0,-2.698,0.0,0.0,0.0,0.0,0.0,0.0,0.0,0.0,0.0,0.0,0.0,0.0,0.0,0.0,0.0,0.0,0.0,0.0,0.0,0.0,0.0,0.0,0.0,0.0,0.0,0.0,0.0,0.0,0.0,0.0,0.0,0.0,0.0,0.0,0.0,0.0,0.0,0.0,0.0,0.0,0.0,0.0,0.0,0.0,0.0,0.0,0.0,0.0,0.0,0.0,0.0,0.0,0.0,0.0,0.0,0.0,0.0,0.0,0.0,0.0,0.0,0.0,0.0,0.0,0.0,0.0,0.0,0.0,0.0,0.0,0.0,0.0,0.0,0.0,0.0,0.0,0.0,0.0,0.0,0.0,0.0,0.0,0.0,0.0,0.0,0.0,0.0,0.0,0.0,0.0,0.0,0.0,0.0,0.0,0.0,0.0,0.0,0.0,0.0,0.0,0.0,0.0,0.0,0.0,0.0,0.0,0.0,0.0,-3.3452,-3.4672,-3.5752,-3.6933,-3.747,-3.7335,-3.4225,-3.2798,-3.2632,-3.2515,0.0,0.0,0.0,0.0,0.0,0.0,0.0,0.0,0.0,0.0,0.0,0.0,0.0,0.0,0.0,0.0,0.0,0.0,0.0,0.0,0.0,0.0,0.0,0.0,0.0,0.0,0.0,0.0,0.0,0.0,0.0,0.0,0.0,0.0,0.0,0.0,0.0,0.0,0.0,0.0,0.0,0.0,0.0,0.0,0.0,0.0,0.0,0.0,0.0,0.0,0.0,0.0,0.0,0.0,0.0,0.0,0.0,0.0,0.0,0.0,0.0,0.0,0.0,0.0,0.0,0.0,0.0,0.0,0.0,0.0,0.0,0.0,0.0,0.0,0.0,0.0,0.0,0.0,0.0,0.0,0.0,0.0,0.0,0.0,0.0,0.0,-1.74,-1.948,0.0,0.0,0.0,0.0,0.0,0.0,0.0,0.0,0.0,0.0,0.0,0.0,0.0,-2.6303,-2.8978,-3.2204,-3.501,-3.7433,-4.1325,-4.2817,-4.2178,-4.2362,-4.255,-4.2679,-4.2185,0.0,-3.528,-3.5214,0.0,0.0,0.0,0.0,0.0,0.0,0.0,0.0,0.0,0.0,0.0,0.0,0.0,0.0,0.0,0.0,0.0,0.0,0.0,0.0,0.0,0.0,0.0,0.0,0.0,0.0,0.0,0.0,0.0,0.0,0.0,0.0,0.0,0.0,0.0,0.0,0.0,0.0,0.0,0.0,0.0,-0.0103,-0.3525,-0.3126,0.0,0.0,0.0,0.0,0.0,0.0,0.0,0.0,0.0,0.0,0.0,0.0,0.0,0.0,0.0,0.0,0.0,0.0,0.0,0.0,0.0,0.0,0.0,0.0,0.0,0.0,0.0,0.0,0.0,0.0,0.0,0.0,0.0,0.0,0.0,0.0,0.0,0.0,0.0,0.0,0.0,-1.3931,-1.9786,-2.7994,-3.0514,-2.7311,0.0,0.0,0.0,0.0,0.0,0.0,0.0,0.0,0.0,-3.0914,-3.5955,-3.9648,-4.1745,-4.3127,-4.4454,-4.5741,-4.7379,-4.7928,-4.7509,-4.7501,-4.6658,-4.5155,-4.5153,-4.3703,-4.1188,-3.949,-3.7594,-3.5621,0.0,0.0,0.0,0.0,-3.2083,-3.4709,0.0,0.0,0.0,0.0,0.0,0.0,0.0,0.0,0.0,0.0,0.0,0.0,0.0,0.0,0.0,0.0,0.0,0.0796,0.2605,0.0969,0.0,0.0,0.0,0.0,0.0,0.0,0.0,0.0,0.0,0.0,0.0,0.0,-0.0847,-0.2494,-0.6969,-0.6324,-0.2043,-0.188,-0.1859,-0.1866,0.0,0.0,0.0,0.0,0.0,0.0,0.0,0.0,0.0,0.0,0.0,0.0,0.0,0.0,0.0,0.0,0.0,0.0,0.0,0.0,0.0,0.0,0.0,0.0,0.0,0.0,0.0,0.0,0.0,0.0,0.0,0.0,0.0,0.0,0.0,0.0,0.0,-1.3494,-2.0469,-3.4105,-3.6087,-3.2082,0.0,0.0,0.0,0.0,0.0,0.0,-2.3796,-3.4611,-4.1665,-4.3408,-4.7517,-5.0438,-5.2091,-5.2025,-5.2155,-5.2499,-5.172,-5.112,-5.0683,-5.024,-4.8601,-4.613,-4.6111,-4.5918,-4.5428,-4.3226,-4.0807,-3.8369,-3.7461,-3.6345,-3.5178,-3.4553,-3.6307,-3.9097,0.0,0.0,0.0,0.0,0.0,0.0,0.0,0.0,0.0,0.0,0.0,0.0,0.0,0.0,0.0,0.0,0.0,0.2913,0.9734,0.3743,0.0,0.0,0.0,0.0,0.0,0.0,0.0,0.0,0.0,0.0,0.0,0.0,-0.3017,-0.8503,-0.8784,-0.8462,-0.76,-0.6992,-0.6752,-0.6762,-0.7359,0.0,0.0,0.0,0.0,0.0,0.0,0.0,0.0,0.0,0.0,0.0,0.0,0.0,0.0,0.0,0.0,0.0,0.0,0.0,0.0,0.0,0.0,0.0,0.0,0.0,0.0,0.0,0.0,0.0,0.0,0.0,0.0,0.0,0.0,0.0,0.0,0.0,0.0,-3.4616,-3.7623,0.0,0.0,0.0,0.0,-3.8291,-3.9041,-4.3682,-5.3809,-5.5085,-5.4621,-5.2606,-5.3058,-5.4177,-5.5903,-5.5609,-5.5455,-5.5453,-5.3846,-5.2242,-5.0643,-4.899,-4.7279,-4.5643,-4.564,-4.562,-4.5586,-4.5447,-4.5291,-4.4851,-4.2011,-4.0878,-4.0972,-4.2519,-4.2734,-4.2251,0.0,0.0,0.0,0.0,0.0,0.0,0.0,0.0,0.0,0.0,0.0,0.0,0.0,0.0,0.0,0.0,0.0,0.2734,0.9118,0.3511,0.0,0.0,0.0,0.0,0.0,0.0,0.0,0.0,0.0,0.0,-0.0101,-0.3577,-0.6263,-0.8367,-0.8309,-0.8213,-0.8037,-0.775,-0.7634,-0.7589,-0.7092,-0.6157,0.0,0.0,0.0,0.0,0.0,0.0,0.0,0.0,0.0,0.0,0.0,0.0,0.0,0.0,0.0,0.0,0.0,0.0,0.0,0.0,0.0,0.0,0.0,0.0,0.0,0.0,0.0,0.0,0.0,0.0,0.0,0.0,0.0,0.0,0.0,0.0,0.0,-4.2409,-4.1086,0.0,-4.042,-3.9755,-4.1353,-4.6551,-4.8925,-5.1847,-5.5792,-5.6232,-5.5974,-5.5151,-5.5016,-5.4996,-5.5103,-5.4998,-5.4386,-5.3322,-5.3245,-5.2322,-5.0635,-4.8893,-4.7184,-4.5591,-4.5587,-4.5586,-4.5586,-4.5586,-4.5586,-4.5505,-4.4441,-4.4112,-4.4317,-4.5092,-4.5133,-4.4795,0.0,0.0,0.0,0.0,0.0,0.0,0.0,0.0,0.0,0.0,0.0,0.0,0.0,0.0,0.0,0.0,0.0,0.1699,0.5675,0.2201,0.0,0.0,0.0,0.0,0.0,-0.182,-0.273,-0.2707,-0.2688,-0.2686,-0.2807,-0.6287,-0.7991,-0.7994,-0.7988,-0.8049,-0.8079,-0.9883,-1.0633,-1.0428,-0.7933,-0.7079,-0.7439,0.0,0.0,0.0,0.0,0.0,0.0,0.0,0.0,0.0,0.0,0.0,0.0,0.0,0.0,0.0,0.0,0.0,0.0,0.0,0.0,0.0,0.0,0.0,0.0,0.0,0.0,0.0,0.0,0.0,0.0,0.0,0.0,0.0,0.0,-2.4141,-3.2633,-4.7251,-4.5813,-4.5494,-5.0344,-4.8885,-4.9046,-5.2424,-5.455,-5.5584,-5.5306,-5.5655,-5.5872,-5.5911,-5.5676,-5.5306,-5.4732,-5.4685,-5.3936,-5.2416,-5.2675,-5.2011,-5.0435,-4.8582,-4.7104,-4.6032,-4.5726,-4.5591,-4.5586,-4.5586,-4.5586,-4.5605,-4.568,-4.5785,-4.5925,-4.6208,-4.6222,-4.6023,0.0,0.0,0.0,0.0,0.0,0.0095,0.019,0.0193,0.0196,0.0,0.0,0.0,0.0,0.0,0.0,0.0,0.0,0.0,0.0,0.0,0.0,0.0,0.0,-0.0101,-0.0201,-0.5328,-0.8024,-0.7989,-0.8031,-0.8021,-0.7972,-0.7972,-0.7959,-0.8038,-0.8038,-0.8004,-0.835,-1.3567,-1.5763,-1.5364,-1.0303,-0.7462,-0.6459,0.0,0.0,0.0,0.0,0.0,0.0,0.0,0.0,0.0,0.0,0.0,0.0,0.0,0.0,0.0,0.0,0.0,0.0,0.0,0.0,0.0,0.0,0.0,0.0,0.0,0.0,0.0,0.0,0.0,0.0,0.0,0.0,0.0,-3.0611,-3.6532,-4.2317,-4.8316,-5.1473,-5.3853,-5.5566,-5.5707,-5.594,-5.6527,-5.6035,-5.5357,-5.4585,-5.4944,-5.522,-5.5275,-5.5313,-5.5255,-5.5134,-5.5088,-5.4467,-5.3194,-5.2326,-5.1235,-4.9935,-4.7894,-4.692,-4.6819,-4.595,-4.5589,-4.5586,-4.5586,-4.5586,-4.5605,-4.5815,-4.5892,-4.5911,-4.6159,-4.6131,-4.5851,0.0,0.0,0.0,0.0,0.0,0.121,0.4578,0.5104,0.3929,0.049,0.0,0.0,0.0,0.0,0.0,0.0,0.0,0.0,0.0,0.0,0.0,0.0,0.0,-0.1784,-0.5741,-0.7205,-0.8004,-0.7952,-0.7995,-0.7992,-0.8048,-0.8048,-0.8045,-0.8038,-0.7997,-0.8045,-0.8387,-1.3556,-1.5817,-1.5671,-1.4266,-1.1189,-0.7638,0.0,0.0,0.0,0.0,0.0,0.0,0.0,0.0,0.0,0.0,0.0,0.0,0.0,0.0,0.0,0.0,0.0,0.0,0.0,0.0,0.0,0.0,0.0,0.0,0.0,0.0,0.0,0.0,0.0,0.0,0.0,-2.0566,-2.8946,-3.373,-3.7436,-4.1931,-4.8241,-5.1505,-5.4037,-5.6145,-5.5962,-5.577,-5.5923,-5.5789,-5.5603,-5.5384,-5.4937,-5.468,-5.4714,-5.5288,-5.5587,-5.5538,-5.4962,-5.418,-5.3161,-5.0911,-4.9072,-4.7613,-4.6828,-4.6485,-4.6428,-4.5598,-4.5379,-4.5586,-4.5586,-4.5586,-4.5605,-4.5643,-4.568,-4.562,-4.5148,-4.457,-4.3863,0.0,0.0,0.0,0.0,0.0,0.1637,0.6406,0.7069,0.5387,0.0579,0.0,0.0,0.0,0.0,0.0,0.0,0.0,0.0,0.0,0.0,0.0,0.0,0.0,-0.2491,-0.7873,-0.8018,-0.7967,-0.8038,-0.8038,-0.8038,-0.8038,-0.8038,-0.8038,-0.8038,-0.798,-0.9237,-1.1424,-1.4461,-1.583,-1.5805,-1.5837,-1.3956,-1.1085,-0.9222,-0.807,-0.7521,-0.7499,-0.7326,-0.7133,-0.7649,0.0,0.0,0.0,0.0,0.0,0.0,0.0,0.0,0.0,0.0,0.0,0.0,0.0,0.0,0.0,0.0,0.0,0.0,0.0,0.0,0.0,0.0,0.0,0.0,-2.6173,-3.3365,-3.5558,-3.8856,-4.3031,-4.8381,-5.2121,-5.4759,-5.6086,-5.5274,-5.4937,-5.566,-5.5711,-5.5698,-5.5696,-5.525,-5.4683,-5.3986,-5.4887,-5.5145,-5.4667,-5.4183,-5.3506,-5.2632,-5.1017,-4.9013,-4.6788,-4.6092,-4.5644,0.0,-4.5048,-4.5074,-4.54,-4.5531,-4.5513,0.0,0.0,0.0,0.0,0.0,-4.4211,-4.2884,0.0089,0.0,0.0,0.0,0.0445,0.2226,0.6447,0.7131,0.5395,0.0661,0.0,0.0,0.0,0.0,0.0,0.0,0.0,0.0,0.0,0.0,0.0,0.0,0.0,-0.2534,-0.7895,-0.8036,-0.8048,-0.7965,-0.8048,-0.8048,-0.7962,-0.8048,-0.8038,-0.8038,-0.798,-1.0886,-1.5784,-1.5757,-1.583,-1.5832,-1.5832,-1.5809,-1.5214,-1.0018,-0.8014,-0.8105,-0.8687,-0.8552,-0.8244,-0.9355,0.0,0.0,0.0,0.0,0.0,0.0,0.0,0.0,0.0,0.0,0.0,0.0,0.0,0.0,0.0,0.0,0.0,0.0,0.0,0.0,0.0,0.0,0.0,0.0,-3.1125,-3.6387,-3.6397,-4.0349,-4.4858,-4.8988,-5.3174,-5.569,-5.5702,-5.4175,-5.3894,-5.5573,-5.57,-5.5689,-5.5708,0.0,0.0,0.0,0.0,-5.4393,-5.2934,-5.29,-5.2532,-5.1755,-5.177,-4.9946,-4.659,-4.55,-4.4697,-4.4124,-4.4365,-4.4743,-4.5175,-4.5477,-4.538,-4.5065,-4.5194,-4.547,-4.5778,-4.578,-4.4276,-4.236,0.0678,0.0,0.0,0.0,0.3175,0.5994,0.6992,0.7131,0.5395,0.0661,0.0,0.0,0.0,0.0,0.0,0.0,0.0,0.0,0.0,0.0,0.0,0.0,0.0,-0.2471,-0.7898,-0.8049,-0.8016,-0.8014,-0.7999,-0.8002,-0.8011,-0.7995,-0.8038,-0.8038,-0.798,-1.0886,-1.5784,-1.5757,-1.583,-1.5832,-1.5832,-1.5843,-1.5255,-0.997,-0.8004,-0.856,-1.2786,-1.4184,-1.4143,-1.4349,-1.4368,-1.3482,-0.9147,-0.7482,0.0,0.0,0.0,0.0,0.0,0.0,0.0,0.0,0.0,0.0,0.0,0.0,0.0,0.0,0.0,0.0,0.0,0.0,0.0,-3.006,-3.4097,-3.6354,-3.6426,-4.0367,-4.554,-5.1652,-5.4345,-5.5703,-5.5706,-5.4183,-5.3913,-5.5559,-5.5691,-5.5701,-5.5714,-5.5708,-5.5543,-5.5224,-5.5886,-5.4628,-5.122,-5.118,-5.1081,-5.0926,0.0,0.0,-4.4183,-4.4535,-4.4302,-4.3639,-4.3705,-4.4397,-4.55,-4.5583,-4.5252,-4.4712,-4.4896,-4.5258,-4.5476,-4.4162,-4.2499,-4.0889,0.3562,0.3159,0.3246,0.3537,0.5548,0.7094,0.7064,0.7098,0.535,0.0652,0.0,0.0,0.0,0.0,0.0,0.0,0.0,0.0,0.0,0.0,0.0,0.0,0.0,-0.1243,-0.3975,-0.663,-0.7985,-0.8049,-0.8285,-0.8285,-0.8049,-0.7972,-0.8038,-0.8035,-0.8048,-0.9413,-1.2047,-1.4719,-1.5783,-1.5832,-1.5832,-1.5763,-1.5504,-1.2912,-1.1925,-1.2266,-1.4873,-1.582,-1.5758,-1.5785,-1.5757,-1.5306,-1.2686,-0.9864,-0.7485,0.0,0.0,0.0,0.0,0.0,0.0,0.0,0.0,0.0,0.0,0.0,0.0,0.0,0.0,-1.4965,-1.8042,0.0,-2.9577,-3.4011,-3.5706,-3.724,-3.9546,-4.1855,-4.5784,-5.2408,-5.468,-5.5054,-5.3354,-5.3974,-5.4797,-5.564,-5.598,-5.6013,-5.5724,-5.569,-5.5708,-5.5707,-5.6006,-5.4386,-5.074,-5.0702,-5.0702,-5.0683,-4.898,-4.6518,-4.3498,-4.3881,-4.3832,-4.35,-4.3498,-4.411,-4.5096,-4.5096,-4.5105,-4.5046,-4.4461,-4.4041,-4.384,-4.4212,-4.2725,-4.0489,0.6288,0.6311,0.6443,0.6831,0.7045,0.7073,0.696,0.6291,0.4382,0.0547,0.0,0.0,0.0,0.0,0.0,0.0,0.0,0.0,0.0,0.0,0.0,0.0,0.0,-0.0522,-0.1482,-0.5826,-0.7959,-0.7982,-0.8496,-0.8496,-0.7982,-0.8009,-0.8002,-0.7959,-0.7994,-0.8543,-0.9803,-1.4004,-1.583,-1.5803,-1.575,-1.5763,-1.5817,-1.5754,-1.5767,-1.5767,-1.5767,-1.5805,-1.5792,-1.5805,-1.6404,-1.708,-1.6102,-1.2913,-0.9218,-0.7721,-0.3849,0.0,0.0,0.0,0.0,0.0,0.0,0.0,0.0,-0.7804,-1.0481,-1.4859,-1.6584,-1.882,-2.4063,-3.0102,-3.4464,-3.4744,-3.645,-3.9067,-4.2792,-4.3323,-4.5557,-5.1545,-5.4303,-5.4425,-5.1152,-5.3202,-5.4765,-5.4861,-5.5819,-5.6261,-5.5899,-5.5869,-5.5518,-5.4744,-5.4726,-5.3415,-5.0718,-5.0702,-5.0702,-5.0643,-4.7229,-4.4851,-4.3491,-4.3497,-4.3494,-4.349,-4.3495,-4.3849,-4.4383,-4.4383,-4.4692,-4.504,-4.3239,-4.2203,-4.194,-4.3883,-4.2865,-4.0489,0.6268,0.6291,0.6356,0.6414,0.6801,0.6902,0.6421,0.3196,0.0598,0.0089,0.0,0.0,0.0,0.0,0.0,0.0,0.0,0.0,0.0,0.0,0.0,0.0,0.0,-0.2225,-0.7032,-0.7712,-0.8026,-0.8031,-0.8034,-0.8034,-0.8034,-0.7949,-0.8014,-0.8049,-0.7952,-1.0606,-1.4986,-1.5515,-1.5771,-1.5765,-1.583,-1.5774,-1.5758,-1.583,-1.575,-1.575,-1.575,-1.5766,-1.58,-1.5765,-1.8716,-2.1551,-1.7174,-1.536,-1.4029,-0.9258,-0.415,-0.009,-0.0611,-0.0671,-0.1884,-0.658,-0.7104,-0.6444,0.0,-0.9981,-1.3907,-1.5463,-1.9248,-2.4283,-3.0783,-3.5627,-3.6636,-3.02,-3.6707,-4.2717,-4.325,-4.3318,-4.4669,-4.8422,-5.2885,-5.4552,-5.16,-5.1288,-5.143,-5.1845,-5.4326,-5.6012,-5.6464,-5.6496,-5.4885,-5.1374,-5.1258,-5.1078,-5.0694,-5.0698,-5.07,-5.0654,-4.7232,-4.4874,-4.3517,-4.3504,-4.349,-4.3498,-4.3507,-4.3548,-4.3605,-4.3631,-4.3682,-4.3434,-4.0421,-3.9815,-4.0687,-4.0969,-4.0835,-4.0489,0.6264,0.6338,0.6281,0.6267,0.6496,0.5696,0.3082,0.116,0.0,0.0,0.0,0.0,0.0,0.0,0.0,0.0,0.0,0.0,0.0,0.0,0.0,0.0,0.0,-0.2543,-0.788,-0.8008,-0.7979,-0.8032,-0.8014,-0.8143,-0.8526,-0.814,-0.8143,-0.8656,-1.2103,-1.4773,-1.6814,-1.6069,-1.5793,-1.5834,-1.6579,-1.642,-1.5784,-1.5805,-1.5824,-1.5837,-1.5837,-1.5798,0.0,-1.343,-1.5479,-1.8464,-1.6491,-1.5826,-1.5388,-1.3138,-0.8576,-0.3539,-0.0711,0.0,-0.1111,-0.5855,-0.6867,-0.7698,-1.101,-1.3477,-1.607,-1.9364,-2.1679,-2.4757,-3.0208,-3.3645,-3.5496,-3.4905,-3.9538,-4.3289,-4.331,-4.5195,-4.6515,-4.6191,-4.7973,-4.9702,-5.0874,-5.081,-5.0782,-5.0979,-5.2102,-5.302,-5.3553,-5.3302,-5.2408,-5.076,-5.0702,-5.0699,-5.0703,-4.9784,-4.8766,-4.7694,-4.6263,-4.5295,-4.4731,-4.4713,-4.4719,-4.4719,-4.4713,-4.473,-4.4735,-4.4716,-4.3558,-4.1631,-4.0257,-4.0072,-4.0501,-4.0499,-4.0507,-4.0489,0.6264,0.6338,0.6264,0.6278,0.5321,0.3553,0.0491,0.0,0.0,0.0,0.0,0.0,0.0,0.0,0.0,0.0,0.0,0.0,0.0,0.0,0.0,0.0,-0.16,-0.4208,-0.7919,-0.8014,-0.8002,-0.8002,-0.7981,-0.8333,-0.8962,-1.014,-1.0828,-1.1442,-1.5725,-1.7551,-1.7545,-1.6619,-1.6304,-1.6371,-1.7295,-1.7996,-1.8357,-1.6515,-1.5604,-1.5306,-1.5308,-1.5085,-1.4482,-1.1939,-1.2714,-1.4909,-1.5205,-1.5333,-1.5297,-1.494,-1.0187,-0.4408,-0.0892,0.0,-0.1057,-0.5439,-0.8001,-1.0619,-1.488,-1.5798,-1.7169,-2.2122,-2.3099,-2.4098,-2.7334,-2.8411,-3.1132,-3.828,-4.2518,-4.491,-4.4856,-4.6581,-4.6673,-4.3723,-4.3367,-4.3757,-4.4842,-4.8446,-5.0698,-5.071,-5.0694,-5.0899,-5.1366,-5.1076,-5.0394,-4.9335,-4.9297,-4.9297,-4.9289,-4.7745,-4.6326,-4.503,-4.5413,-4.5597,-4.5606,-4.5601,-4.5603,-4.5603,-4.5603,-4.5608,-4.5536,-4.4577,-4.2728,-4.0501,-4.05,-4.0501,-4.05,-4.05,-4.0492,-4.0504,0.6338,0.6338,0.6264,0.6278,0.288,0.0156,0.0,0.0,0.0,0.0,0.0,0.0,0.0,0.0,0.0,0.0,0.0,0.0,0.0,0.0,0.0,0.0,-0.5498,-0.8429,-0.7994,-0.7965,-0.8051,-0.8051,-0.8008,-0.8259,-0.9017,-1.4696,-1.73,-1.7375,-1.7574,-1.7593,-1.7582,-1.7521,-1.7583,-1.7537,-1.7554,-2.0728,-2.466,-1.8273,-1.5141,-1.4146,-1.4123,-1.3411,-1.2402,-1.2306,-1.2326,-1.2596,-1.3814,-1.4162,-1.3887,-1.2751,-0.6634,-0.0173,-0.0,0.0,-0.1135,-0.585,-1.1349,-1.5568,-1.5765,-1.5825,-1.7223,-2.2084,-2.3089,-2.3162,-2.3294,-2.0417,-2.2742,-3.7044,-4.4728,-4.8853,-4.8852,-4.6451,-4.3584,-4.0594,-4.0247,-3.7643,-3.1055,-4.2716,-5.0708,-5.0703,-5.0698,-5.0906,-5.1362,-5.1382,-4.9654,-4.5876,-4.5744,-4.5744,-4.5745,-4.4345,-4.3617,-4.3589,-4.4959,-4.5587,-4.5605,-4.5587,-4.5587,-4.5587,-4.5587,-4.5605,-4.5334,-4.2019,-4.06,-4.0502,-4.0511,-4.0508,-4.0508,-4.0508,-4.0489,-4.0504,0.6338,0.6338,0.6264,0.6278,0.5162,0.4217,0.4153,0.1798,0.0,0.0,0.0,0.0,0.0,0.0,0.0,0.0,0.0,0.0,0.0,0.0,0.0,0.0,-0.5359,-0.8183,-0.7961,-0.8031,-0.8176,-0.86,-0.857,-0.8735,-0.9007,-1.4842,-1.7572,-1.7595,-1.7611,-1.8081,-1.8763,-1.8752,-1.8814,-1.9017,-2.1829,-2.335,-2.3754,-2.1454,-1.9007,-1.6684,0.0,-1.4803,-1.2283,-1.2312,-1.2312,-1.2369,-1.2745,-1.2888,-1.2407,-0.9678,-0.4687,0.0,0.0,-0.263,-0.5727,-0.7263,-0.9185,-1.1526,-1.5019,-1.5833,-1.6251,-1.7926,-1.8233,-1.721,-1.3693,-1.2034,-1.5389,-2.8202,-3.4868,-4.022,-4.5343,-4.5226,-4.0707,-3.0079,-3.1464,-3.2347,-3.002,-3.9583,-4.6315,-4.7256,-4.9404,-5.0774,-5.0918,-5.1238,-4.9612,-4.5719,-4.5607,-4.5589,-4.559,-4.5138,-4.491,-4.4884,-4.5361,-4.5586,-4.5586,-4.5586,-4.5603,-4.5601,-4.5603,-4.5601,-4.5327,-4.1918,-4.0499,-4.0531,-4.085,-3.954,-3.751,-3.751,-3.751,-3.7799,0.0,0.6335,0.6335,0.6267,0.6267,0.0,0.0,0.0,0.0,0.0,0.0,0.0,0.0,0.0,0.0,0.0,0.0,0.0,0.0,0.0,0.0,0.0,-0.3342,-0.5118,-0.5174,-0.5127,-0.6399,-0.8866,-0.8898,-0.8909,-0.9014,-1.4849,-1.7795,-1.819,-1.8185,-1.8625,-1.9405,-1.8909,-1.8744,-1.9199,-2.4489,-2.5189,-2.3063,-2.3122,-2.139,0.0,-1.6646,-1.4411,-1.2277,-1.2318,-1.2282,-1.2303,-1.2298,-1.1331,-0.939,-0.5624,-0.2388,0.0,0.0,-0.2519,-0.5626,-0.7488,-0.803,-0.9415,-1.4563,-1.579,-1.5825,-1.5789,-1.4166,-1.1505,-0.779,-0.7249,-0.9395,-1.556,-2.2036,-3.0251,-4.1398,-4.3,-3.9854,-3.1401,-3.3398,-3.5432,-3.5447,-4.0791,-4.3039,-4.0159,-4.4271,-4.8087,-5.0815,-4.9924,-4.818,-4.5688,-4.559,-4.5589,-4.5602,-4.5092,-4.5103,-4.5607,-4.5591,-4.5586,-4.5586,-4.5603,-4.5603,-4.5543,-4.4299,-4.3879,-4.3866,-4.1652,-4.0017,-3.8988,-3.9918,-3.8909,-3.6841,-3.6237,-3.599,-3.6431,0.0,0.0,0.6308,0.0,0.0,0.0,0.0,0.0,0.0,0.0,0.0,0.0,0.0,0.0,0.0,0.0,0.0,0.0,0.0,0.0,0.0,0.0,0.0,0.0,0.0,0.0,-0.2815,-0.8455,-0.8411,-0.8603,-0.8938,-1.4562,-1.7812,-1.9257,-1.9306,-1.9305,-1.9212,-1.807,-1.76,-1.8103,-2.486,-2.5633,-2.2639,-2.2666,-2.1617,-1.949,-1.423,-1.2283,-1.229,-1.2265,-1.2142,-1.1983,-1.1983,-0.9391,-0.5476,-0.121,0.0167,0.0349,0.0365,0.0093,-0.143,-0.6694,-0.8079,-0.9478,-1.4479,-1.5544,-1.5576,-1.5393,-1.0756,-0.637,-0.5073,-0.5117,-0.423,-0.0766,-0.7903,-1.9795,-3.6857,-3.9706,-4.0884,-4.3317,-4.4833,-4.561,-4.5638,-4.564,-4.1447,-3.137,0.0,-4.3534,-5.0747,-4.7611,-4.5603,-4.5601,-4.5534,-4.5529,-4.5595,-4.4204,-4.4208,-4.5592,-4.5592,-4.5605,-4.5603,-4.5601,-4.5505,-4.5163,-4.192,-4.0789,-4.1198,-4.1205,-3.9256,-3.6409,-3.7892,-3.8455,-3.8271,-3.6705,-3.6086,-3.6414,0.0,0.0,0.0,0.0,0.0,0.0,0.0,0.0,0.0,0.0,0.0,0.0,0.0,0.0,0.0,0.0,0.0,0.0,0.0,0.0,0.0,0.0,0.0,0.0,0.0,0.0,-0.0757,-0.2295,-0.2301,-0.43,-0.8245,-0.9743,-1.2735,-1.68,-1.7651,-1.8033,-1.8013,-1.7698,-1.7073,-1.6303,-1.7368,-1.7189,-1.6378,-1.6392,-1.5582,-1.4209,-1.2839,-1.23,-1.2277,-1.2311,-1.0318,-0.7848,-0.7791,-0.7152,-0.5507,-0.1267,0.2517,0.5399,0.5823,0.1622,-0.3791,-0.7123,-0.8996,-1.0378,-1.2229,-1.2438,-1.1839,-1.0323,-0.5758,-0.1112,0.2036,0.4821,0.4482,-0.2038,-0.693,-1.4129,-2.5837,-3.4025,-4.0414,-4.4749,-4.5586,-4.5827,-4.5815,-4.5815,-4.4696,-4.1993,-4.3278,-4.5198,-4.7485,-4.6325,-4.5611,-4.5611,-4.4596,-4.4537,-4.5592,-4.4195,-4.4221,-4.5615,-4.5592,-4.5611,-4.5601,-4.5601,-4.4218,-4.1761,-4.1248,-4.1079,-4.1196,-4.1192,-4.0674,-3.9649,-3.7507,-3.6668,-3.6773,-3.7619,-3.7123,-3.6108,0.0,0.0,0.0,0.0,0.0,0.0,0.0,0.0,0.0,0.0,0.0,0.0,0.0,0.0,0.0,0.0,0.0,0.0,0.0,0.0,0.0,0.0,0.0,0.0,0.0,0.0,0.0,0.0,0.0,-0.1553,-0.4582,-0.6924,-0.9562,-1.2427,-1.282,-1.2977,-1.3013,-1.2978,-1.3832,0.0,0.0,-1.4065,-1.4076,-1.4142,-1.3696,-1.3035,-1.2459,-1.1323,-0.9964,-0.9782,-0.8132,-0.6367,-0.6558,-0.5254,-0.3033,-0.0706,0.3529,0.7578,0.7921,0.1266,-0.615,-0.7656,-0.8715,-0.9753,-1.0829,-1.0062,-0.8727,-0.7533,-0.2846,0.2363,0.6877,0.997,1.0948,0.8162,0.4083,-0.2574,-1.3723,-2.6477,-3.7096,-4.3767,-4.5337,-4.5742,-4.5376,-4.5605,-4.5605,-4.5184,-4.5158,-4.5398,-4.5956,-4.5742,-4.5323,-4.4702,-4.3895,-4.3876,-4.4673,-4.3874,-4.3911,-4.471,-4.5299,-4.5607,-4.5552,-4.4049,-4.2299,-4.0531,0.0,-4.1205,-4.1194,-4.1197,-4.0296,-3.8786,-3.7506,-3.6535,-3.5989,-3.6968,-3.6716,-3.5873,0.0,0.0,0.0,0.0,0.0,0.0,0.0,0.0,0.0,0.0,0.5879,0.4068,0.0407,0.0,0.0,0.0,0.0,0.0,0.0,0.0,0.0,0.0,0.0,0.0,0.0,0.0,0.0,-0.0,-0.0525,-0.054,-0.0091,-0.5405,-0.7879,-0.7858,-0.7318,-0.7061,-0.713,-0.7066,-0.9418,-1.3115,-1.3181,-1.3145,-1.3234,0.0,-1.3881,-1.3694,-1.2388,-0.9765,-0.6876,-0.6502,-0.6019,-0.5566,-0.6005,-0.3285,0.0,0.0,0.3296,0.696,0.6899,-0.0099,-0.7566,-0.7885,-0.811,-0.8605,-0.9835,-0.845,-0.6874,-0.6421,-0.176,0.3862,0.897,1.1338,1.4382,2.0158,1.7819,1.0987,-0.1473,-1.7859,-3.1358,-3.8826,-4.3175,-4.5317,-4.4675,-4.5165,-4.5207,-4.4374,-4.4519,-4.4916,-4.5481,-4.551,-4.4889,-4.3547,-4.3495,-4.3492,-4.349,-4.352,-4.3506,-4.3521,-4.4743,-4.5175,-4.4823,-4.1853,-4.0502,-4.0511,-4.0923,0.0,-4.1152,-4.0703,-3.8727,-3.613,-3.7417,-3.7011,-3.568,-3.568,-3.568,-3.5699,0.0,0.0,0.0,0.0,0.0,0.0,0.0,0.0,0.0,0.0,0.3564,0.0831,0.0,0.0,0.0,0.0,0.0,0.0,0.0,0.0,0.0,0.0,0.0,0.0,0.0,0.0,0.0,-0.0,-0.3496,-0.3392,-0.0088,-0.5005,-0.7217,-0.7278,-0.7184,-0.7077,-0.7062,-0.685,-0.7104,-0.7658,-0.8118,-0.8272,-0.8639,-1.1488,0.0,0.0,-1.0466,-0.8216,-0.6122,-0.6732,-0.4368,-0.1146,-0.1177,-0.0648,0.0,0.0,0.0679,0.1368,0.1395,-0.1601,-0.522,-0.7472,-0.8739,-0.9135,-0.8001,-0.8025,-0.7918,-0.6827,-0.2924,0.1552,0.5584,0.8308,1.0404,1.1794,1.7766,1.8811,0.8769,-0.9124,-2.1836,-2.3431,-3.5588,-4.407,-4.4632,-4.4993,-4.5125,-4.4959,-4.4993,-4.5027,-4.5027,-4.5016,-4.4533,-4.3513,-4.3512,-4.3492,-4.349,-4.3506,-4.3521,-4.3491,-4.3751,-4.2988,-4.1359,-4.0768,-4.0498,-4.0489,-4.0583,0.0,-4.0976,-3.8086,-3.6541,-3.6007,-3.5996,-3.5795,-3.5545,-3.5545,-3.5545,-3.5545,0.0,0.0,0.0,0.0,0.0,0.0,0.6674,0.6728,0.6881,0.7476,0.5604,0.3103,0.0347,0.0,0.0,0.0,0.0,0.0,0.0,0.0,0.0,0.0,0.0,0.0,0.0,0.0,0.0,-0.0,0.0,-0.2021,-0.0087,-0.489,-0.7144,-0.7094,-0.7138,-0.6989,-0.6843,-0.6756,-0.6597,-0.6538,-0.6972,-0.7109,-0.7277,0.0,0.0,0.0,-0.9612,-0.7916,-0.6105,-0.617,-0.4294,-0.165,-0.0364,0.0,0.0,0.0,0.0,-0.059,-0.341,-0.4123,-0.4816,-0.8457,-0.8956,-0.8486,-0.7974,-0.7725,-0.7202,-0.6212,-0.3443,0.0138,0.4586,0.69,0.9156,1.2179,1.837,2.2285,2.0921,0.409,-0.9751,-1.418,-2.7201,-3.7152,-4.0575,-4.1675,-4.2719,-4.4014,-4.4554,-4.4877,-4.5001,-4.4927,-4.4812,-4.4591,-4.3876,-4.3853,-4.459,-4.4589,-4.3375,-4.0998,-4.0985,-4.0488,-3.9585,-4.0213,-4.0507,-4.0489,-4.0489,0.0,-4.0937,-3.7438,-3.5996,-3.5976,-3.5831,-3.5768,-3.5756,-3.5756,-3.5659,-3.5493,0.0,0.0,0.0,0.0,0.0,0.0,0.6987,0.7126,0.7355,0.7949,0.7983,0.6369,0.2198,0.1194,0.0734,0.0,0.0,0.0,0.0,0.0,0.0,0.0,0.0,0.0,0.0,0.0,0.0,0.0,0.0,0.0,0.0,0.0,0.0,0.0,-0.7109,-0.6944,-0.6741,-0.6646,-0.6672,0.0,0.0,-0.7031,-0.7159,0.0,0.0,0.0,0.0,-0.7949,-0.6416,-0.5778,-0.4663,-0.3253,-0.0796,0.0,0.0,0.0,0.0,-0.0886,-0.5107,-0.5632,-0.5827,-0.9863,-0.9168,-0.7763,-0.8493,-0.7488,-0.6196,-0.5569,-0.3626,-0.0684,0.3773,0.6004,0.8737,1.3691,1.7906,2.2829,2.9182,1.4899,0.0866,-0.6999,-1.9587,-3.0326,-3.7211,-3.9238,-4.0999,-4.3204,-4.4147,-4.4744,-4.4969,-4.5029,-4.5155,-4.5451,-4.4486,-4.4478,-4.5602,-4.4876,-4.2683,-3.9081,-3.9091,-3.9085,-3.9128,-4.0072,-4.0495,-4.0489,-4.0504,0.0,0.0,-3.7402,-3.5996,-3.5996,-3.5996,-3.6001,-3.5992,-3.5992,-3.5823,-3.5607,0.0,0.0,0.0,0.0,0.0,0.0,0.6955,0.7286,0.7513,0.7941,0.7952,0.7776,0.7337,0.4902,0.3312,0.0,0.0,0.0,0.0,0.0,0.0,0.0,0.0,0.0,0.0,0.0,0.0,0.0,0.0,0.0,0.0,0.0,0.0,0.0,0.0,-0.6943,-0.6823,-0.6617,0.0,0.0,0.0,0.0,0.0,0.0,0.0,0.0,0.0,-0.7808,-0.7273,-0.6307,-0.5039,-0.3394,-0.0814,0.0,0.0,0.0,0.0,-0.0098,-0.059,-0.4081,-0.8285,-1.1128,-0.9577,-0.7624,-0.8467,-0.7305,-0.5902,-0.551,-0.3476,-0.1009,0.1653,0.4867,0.8215,1.1471,1.5003,1.9957,2.7377,1.6955,0.6287,0.0145,-1.4324,-2.794,-3.8473,-4.1031,-4.2532,-4.3763,-4.4363,-4.4681,-4.465,-4.5201,-4.5357,-4.4971,-4.5241,-4.5477,-4.5595,-4.2521,-4.0765,-4.0326,-4.0347,-4.0331,-4.0349,-4.0444,-4.0497,-4.0504,-4.0515,0.0,0.0,-3.7258,-3.5996,-3.5996,-3.5996,-3.5996,-3.5995,-3.5995,-3.5974,-3.5947,0.0,0.0,0.0,0.0,0.0,0.0,0.6815,0.7066,0.7369,0.7777,0.6509,0.5774,0.6366,0.6321,0.6064,0.5742,0.4786,0.0,0.0,0.0,0.0,0.0,0.0,0.0,0.0,0.0,0.0,0.0,0.0,0.0,0.0,0.0,0.0,0.0,0.0,-0.6929,-0.6915,-0.6702,0.0,0.0,0.0,0.0,0.0,0.0,0.0,0.0,0.0,0.0,-0.6718,-0.6315,-0.5709,-0.5036,-0.4052,-0.205,0.0591,0.3406,0.4533,0.4038,0.0678,-0.2474,-0.5797,-0.9769,-0.8982,-0.7519,-0.9228,-0.7643,-0.5708,-0.544,-0.4666,-0.2817,0.1081,0.5014,0.8333,1.0528,1.403,1.8432,2.3994,1.8778,1.1506,0.3788,-0.748,-1.9731,-3.2769,-3.7013,-3.9959,-4.2464,-4.3336,-4.3856,-4.4064,-4.4656,-4.4865,-4.4551,-4.5226,-4.5124,-4.4114,-4.1701,-4.0496,-4.0492,-3.8439,-3.7486,-3.7513,-3.8539,-3.9007,-3.8988,-3.9119,0.0,0.0,-3.6461,-3.6,-3.5996,-3.5996,-3.5996,-3.5996,-3.5996,-3.5996,-3.5996,0.0,0.0,0.0,0.0,0.0,0.6384,0.658,0.6805,0.6937,0.6625,0.5787,0.5149,0.5003,0.6767,0.7818,0.7366,0.7142,0.0,0.0,0.0,0.0,0.0,0.0,0.0,0.0,0.0,0.0,0.0,0.0,-0.2753,0.0,0.0,-0.5757,-0.739,0.0,0.0,0.0,0.0,0.0,0.0,0.0,0.0,0.0,0.0,0.0,0.0,0.0,0.0,0.0,0.0,0.0,-0.6139,-0.6237,-0.3829,0.0077,0.5154,0.7165,0.6863,0.3085,0.0096,-0.3226,-0.8026,-0.8422,-0.7979,-0.9311,-0.7505,-0.5549,-0.5403,-0.5386,-0.4161,-0.0,0.4317,0.7702,0.9214,1.2873,1.697,2.1147,2.046,1.6269,0.7546,-0.0202,-1.0559,-2.5212,-3.3545,-3.9146,-4.18,-4.2956,-4.356,-4.3774,-4.4041,-4.425,-4.4357,-4.4564,-4.4068,-4.2841,-4.0791,-3.9792,-3.983,-3.6986,-3.5605,-3.5537,-3.6752,-3.7305,-3.7324,-3.7459,0.0,0.0,-3.5911,-3.5988,-3.5996,-3.5996,-3.5996,-3.5996,-3.5996,-3.5996,-3.5996,0.0,0.0,0.0,0.0,0.0,0.6295,0.6317,0.6569,0.6122,0.4242,0.6313,0.6938,0.431,0.6448,0.7912,0.7824,0.7329,0.0,0.0,0.0,0.0,0.0,0.0,0.0,0.0,0.0,0.0,0.0,0.0,-0.2747,-0.7993,-0.7726,-0.7466,-0.739,0.0,0.0,0.0,0.0,0.0,0.0,0.0,0.0,0.0,0.0,0.0,0.0,0.0,0.0,0.0,0.0,0.0,0.0,0.0,-0.4815,-0.196,0.3726,0.6251,0.7187,0.7744,0.3823,-0.1506,-0.5985,-0.8119,-0.9032,-0.834,-0.684,-0.5545,-0.5459,-0.5379,-0.464,-0.22,0.2192,0.5793,0.6919,1.0941,1.5332,1.9354,2.2007,2.0474,1.2207,0.7395,-0.1245,-1.654,-3.2041,-4.1541,-4.2439,-4.357,0.0,-4.3984,-4.3572,-4.3677,-4.4474,-4.3167,-4.235,-4.2214,-3.9435,-3.8129,-3.8302,-3.674,-3.5823,-3.5508,-3.5648,-3.5724,0.0,0.0,0.0,0.0,-3.592,-3.6012,-3.5996,-3.5996,-3.5996,-3.5996,-3.5996,-3.5996,-3.5991,0.0,0.0,0.0,0.0,0.0,0.0,0.6248,0.6398,0.6357,0.6166,0.7201,0.6976,0.4319,0.6399,0.7949,0.7974,0.775,0.0,0.0,0.0,0.0,0.0,0.0,0.0,0.0,0.0,0.0,0.0,0.0,-0.09,-0.2593,-0.6187,-0.7716,-0.7346,-0.7125,-0.7075,0.0,0.0,0.0,0.0,0.0,0.0,-0.7064,0.0,0.0,0.0,0.0,0.0,0.0,0.0,0.0,0.0,0.0,0.0,0.0,0.0355,0.3742,0.6175,0.7144,0.5032,0.1555,-0.2943,-0.5755,-0.7468,-0.7681,-0.658,-0.542,-0.5439,-0.5379,-0.464,-0.2267,0.1128,0.4361,0.6728,1.0863,1.5158,1.919,2.1434,1.9708,1.1838,-0.4393,-2.0447,-3.4486,-3.8452,-4.078,-4.2394,-4.205,-4.2123,-4.2875,-4.2791,-4.2772,-4.2799,-4.2544,-4.2007,-4.1182,-3.9051,-3.7458,-3.6384,-3.5942,-3.5666,-3.5578,-3.5654,-3.5688,0.0,0.0,0.0,0.0,-3.5954,-3.6007,-3.5996,-3.5996,-3.5996,-3.5996,-3.5996,-3.597,-3.5931,0.0,0.0,0.0,0.0,0.0,0.0,0.6271,0.6339,0.6458,0.6776,0.5711,0.5132,0.5446,0.703,0.8004,0.8035,0.795,0.0,0.0,0.0,0.0,0.0,0.0,0.0,0.0,0.0,0.0,-0.0,-0.2007,-0.252,-0.1607,-0.5932,-0.7773,-0.7503,-0.7249,-0.7193,0.0,0.0,0.0,0.0,0.0,0.0,-0.7094,0.0,0.0,0.0,0.0,0.0,0.0,0.0,0.0,0.0,0.0,0.0,0.0,0.0,0.1565,0.3818,0.5893,0.5857,0.4061,-0.0551,-0.3895,-0.6302,-0.6766,-0.6086,-0.5428,-0.5432,-0.5379,-0.4703,-0.2538,-0.0066,0.2713,0.591,0.9352,1.266,1.5774,2.0131,2.1133,1.5995,0.1417,-1.5883,-3.5488,-3.9058,-4.0422,-4.1064,-4.0888,-4.112,-4.1942,-4.2022,-4.1877,-4.1566,-4.2004,-4.1611,-4.0296,-3.8809,-3.7397,-3.6009,-3.5736,-3.5601,-3.5644,-3.5735,-3.5784,0.0,0.0,0.0,0.0,-3.5974,-3.5981,-3.5968,-3.5991,-3.5996,-3.5996,-3.597,-3.5948,-3.5892,0.0,0.0,0.0,0.0,0.0,0.0,0.0,0.6298,0.626,0.6278,0.2897,0.2367,0.7372,0.7935,0.7993,0.8014,0.8031,0.0,0.0,0.0,0.0,0.0,0.0,0.0,0.0,0.0,0.0,-0.0,-0.4956,-0.6369,-0.4318,-0.6625,-0.7671,-0.7594,-0.7451,-0.7288,0.0,0.0,0.0,0.0,-0.4676,-0.4969,0.0,0.0,0.0,0.0,0.0,0.0,0.0,0.0,0.0,0.0,0.0,0.0,0.0,0.0,0.0,0.0,0.0,0.5819,0.552,0.113,-0.2503,-0.5123,-0.564,-0.5481,0.0,-0.5376,-0.5379,-0.4903,-0.3215,-0.1337,0.1199,0.5005,0.6958,0.871,1.0741,1.9142,2.4702,2.3621,1.9181,0.5282,-2.2658,-3.4386,-3.9871,-3.8992,-4.0051,-4.0859,-4.1182,-4.1167,-4.1017,-4.0719,-4.137,-4.1031,-3.9605,-3.8614,-3.768,-3.6863,-3.5993,-3.563,-3.568,-3.5839,-3.5895,0.0,0.0,0.0,0.0,-3.5976,-3.5963,-3.5917,-3.5981,-3.5996,-3.5984,-3.5919,-3.5892,-3.5853,0.0,0.0,0.0,0.0,0.0,0.0,0.0,0.0,0.0,0.0,0.5769,0.5951,0.7184,0.7695,0.7931,0.0,0.0,0.0,0.0,0.0,0.0,0.0,0.094,0.0,0.0,0.0,0.0,-0.0,-0.1313,-0.3635,-0.7086,-0.765,-0.7781,-0.7419,-0.7563,-0.7336,0.0,0.0,0.0,0.0,-0.5772,-0.4446,0.0,0.0,0.0,0.0,-0.5974,-0.3582,0.0,0.0,0.0,0.0,0.0,0.0,0.0,0.0,0.0,0.0203,0.1027,0.0,0.1397,0.0277,-0.0618,-0.1978,0.0,-0.4386,-0.3751,-0.5116,-0.5399,-0.5269,-0.4858,-0.2146,0.16,0.6597,0.7733,1.0137,1.6209,2.571,3.0905,2.7809,1.0543,-0.5574,-1.6894,-2.705,-3.4657,-3.8815,-3.9586,-4.0005,-4.0289,-3.998,-3.9791,-3.9877,-3.9307,-3.9205,-3.9605,-3.8022,-3.6953,-3.643,-3.5878,-3.5528,-3.5407,-3.575,-3.5933,0.0,0.0,0.0,-3.5976,-3.5937,-3.5933,-3.5988,-3.5994,-3.5962,-3.5908,-3.592,-3.5795,-3.5661,0.0,0.0,0.0,0.0,0.0,0.0,0.0,0.0,0.0,0.0,0.6739,0.7118,0.7065,0.7539,0.7743,0.0,0.0,0.0,0.0,0.0,0.0,0.3703,0.1248,0.0,0.0,0.0,0.0,-0.0,-0.1211,-0.3327,-0.6158,-0.7307,-0.7748,-0.7506,-0.7362,-0.7255,0.0,0.0,0.0,-0.5131,-0.4246,0.0,0.0,0.0,0.0,0.0,-0.3542,-0.1963,0.0,0.0,0.0,0.0,0.0,0.0,0.0,0.0,0.117,0.2493,0.2493,0.1292,0.0,0.0,0.0,-0.0546,-0.2466,-0.2776,-0.2746,-0.2883,-0.356,-0.3899,-0.3086,-0.0066,0.4268,1.0411,1.179,1.4788,2.2556,2.8495,3.2519,3.3752,1.3916,-0.2963,-1.0959,-2.2374,-3.1456,-3.6624,-3.7706,-3.835,-3.8861,-3.8767,-3.8777,-3.895,-3.8064,-3.7883,-3.8482,-3.7436,-3.6603,-3.5959,-3.5278,-3.493,-3.4847,-3.4724,-3.4929,0.0,0.0,0.0,-3.5424,-3.5753,-3.5703,-3.5449,-3.584,-3.5961,-3.5892,-3.5834,-3.5468,-3.5007,0.0,0.0,0.0,0.0,0.0,0.0,0.0,0.0,0.0,0.0,0.0,0.0,0.0,0.0,0.0,0.0,0.0,0.0,0.0,0.0,0.6657,0.3832,0.1264,0.0,0.0,0.0,0.0,-0.0,-0.2716,-0.4017,-0.4014,-0.6538,-0.7684,-0.7587,-0.7278,-0.7129,-0.7021,-0.6858,-0.6887,-0.6636,-0.2259,0.0,0.0,0.0,0.0,0.0,0.0,0.0,0.0,0.0,0.0467,0.0933,0.083,0.0,0.0,0.0,0.0,0.0,0.5681,0.3664,0.1273,0.028,0.0209,0.0489,0.0767,-0.0546,-0.1538,-0.0268,-0.1003,-0.1201,0.0929,0.4467,0.9081,1.5517,1.8072,2.1844,2.9217,3.0019,3.199,3.7685,2.0864,0.4625,-0.5886,-1.9367,-2.9305,-3.3862,-3.5593,-3.6719,-3.7374,-3.7619,-3.7805,-3.8003,-3.7102,-3.6676,-3.6797,-3.6631,-3.608,-3.5128,-3.4391,-3.4032,-3.4024,-3.3471,-3.3639,-3.4394,0.0,0.0,-3.4558,-3.5226,-3.5112,-3.457,-3.5307,-3.5548,-3.5489,-3.5495,-3.4891,-3.4064,0.0,0.0,0.0,0.0,0.0,0.0,0.0,0.0,0.0,0.0,0.0,0.0,0.0,0.0,0.0,0.0,0.0,0.0,0.0,0.8041,0.6813,0.4083,0.138,0.0,0.0,0.0,0.0,-0.0,-0.2686,-0.3975,-0.4016,-0.6734,-0.7791,-0.7587,-0.7278,-0.7075,-0.6963,-0.688,-0.681,-0.6569,-0.4078,0.0,0.0,0.0,0.0,0.0,0.0,0.0,0.0,0.0,0.2395,0.5237,0.4701,0.0,0.0,0.0,0.0,0.0,0.6809,0.7906,0.6921,0.1371,0.1166,0.2707,0.423,0.3165,0.1538,0.0268,0.1003,0.299,0.6759,1.2192,1.7347,2.1149,2.6395,3.1418,3.5379,3.3916,3.2176,3.1506,1.8469,0.5674,-0.424,-1.7316,-2.7402,-3.2808,-3.5334,-3.661,-3.6498,-3.6549,-3.6728,-3.7089,-3.5669,-3.493,-3.5,-3.4974,-3.4327,-3.3064,-3.3134,-3.3097,-3.2953,-3.3115,-3.3301,-3.3496,0.0,-3.3537,-3.3607,-3.3672,-3.3653,-3.3612,-3.3677,-3.3662,-3.3689,-3.4291,-3.391,-3.309,0.0,0.0,0.0,0.0,0.0,0.0,0.0,0.0,0.0,0.0,0.0,0.0,0.0,0.0,0.0,0.0,0.0,0.0,0.0,0.7962,0.7459,0.6237,0.3589,0.1497,0.0,0.0,0.0,-0.0,-0.2707,-0.4004,-0.4014,-0.6606,-0.7655,-0.7346,-0.7204,-0.7102,-0.7037,-0.6959,-0.6908,-0.6733,0.0,0.0,0.0,0.0,0.0,0.0,0.0,0.0,0.0,0.0,0.2714,0.4502,0.5342,0.0,0.0,0.0,0.0,0.0,0.7851,0.8967,0.8911,0.6388,0.517,0.4753,0.5461,0.4893,0.3951,0.3098,0.5014,0.7428,0.9328,1.4869,2.0365,2.4166,2.9003,3.2579,3.3355,3.1381,3.0125,3.0793,1.7821,0.5987,-0.1293,-1.4492,-2.5307,-3.1812,-3.4053,-3.487,-3.4287,-3.4378,-3.4563,-3.4787,-3.4145,-3.3587,-3.3143,-3.3189,-3.3094,-3.2909,-3.2501,-3.2269,-3.2197,-3.1879,-3.2028,-3.2545,0.0,-3.254,-3.2619,-3.3033,-3.2947,-3.2635,-3.3082,-3.3208,-3.3113,-3.2788,-3.2412,-3.1929,0.0,0.0,0.0,0.0,0.0,0.0,0.0,0.0,0.0,0.0,0.0,0.0,0.0,0.0,0.0,0.0,0.0,0.0,0.0,0.8007,0.7932,0.7972,0.5986,0.3586,0.1008,0.0296,0.0,-0.0,-0.2605,-0.4196,-0.4891,-0.6753,-0.7455,-0.7193,-0.7193,-0.716,-0.7088,-0.698,-0.702,-0.695,0.0,0.0,0.0,0.0,0.0,0.0,0.0,0.0,0.0,0.0,0.0,0.0,0.0,0.0,0.0,0.7327,0.7484,0.7414,0.8516,0.9226,0.9771,1.0522,0.8793,0.695,0.6962,0.6691,0.6483,0.6689,0.8591,1.0785,1.2472,1.7431,2.2501,2.6458,3.013,3.2245,3.1574,2.951,2.876,3.0518,1.8312,0.6748,-0.0805,-1.4044,-2.4862,-3.1479,-3.3082,-3.3372,-3.2553,-3.2709,-3.287,-3.2987,-3.2937,-3.2567,-3.1911,-3.1538,-3.1767,-3.2562,-3.1785,-3.1436,-3.1455,-3.0802,-3.089,-3.1569,-3.1525,-3.1553,-3.1635,-3.2249,-3.215,-3.1661,-3.226,-3.254,-3.2478,-3.1393,-3.1074,-3.0983,0.0,0.0,0.0,0.0,0.0,0.0,0.0,0.0,0.0,0.0,0.0,0.0,0.0,0.0,0.0,0.0,0.0,0.0,0.7952,0.7841,0.7902,0.7965,0.7604,0.6308,0.3812,0.1262,0.0,-0.0,-0.2436,-0.4938,-0.7388,-0.7498,-0.7512,-0.7356,-0.7356,-0.73,-0.7139,-0.7128,-0.7056,-0.706,-0.688,0.0,0.0,0.0,0.0,0.0,0.0,0.0,0.0,0.0,0.0,0.0,0.0,0.0,0.6767,0.6783,0.7118,0.7653,0.8584,0.9506,1.0398,1.0952,1.011,0.9389,1.0096,0.9875,0.9723,1.0428,1.0188,1.1928,1.8737,2.2632,2.579,2.8693,3.1452,3.3612,3.4767,3.2544,3.0084,2.8035,2.0004,0.883,-0.59,-1.8719,-2.7965,-3.2478,-3.3242,-3.3206,-3.2553,-3.2566,-3.274,-3.2987,-3.2355,-3.1965,-3.1892,-3.0236,-2.9836,-3.0694,-3.0614,-3.0564,-3.0506,-3.051,-3.053,-3.0602,-3.066,-3.0691,-3.0694,-3.076,-3.0741,-3.0671,-3.0499,-3.0725,-3.1083,-3.0373,-3.033,-3.0519,0.0,0.0,0.0,0.0,0.0,0.0,0.0,0.0,0.0,0.0,0.0,0.0,0.0,0.0,0.0,0.0,0.0,0.0,0.7646,0.7634,0.7709,0.7777,0.7668,0.7133,0.6094,0.5373,0.3318,-0.0,-0.2395,-0.4973,-0.7637,-0.7543,-0.7428,-0.7366,-0.7272,-0.7177,-0.7078,-0.6973,-0.7017,-0.7094,-0.6732,-0.1764,0.0,0.0,0.0,0.0,0.0,0.0,0.0,0.0,0.572,0.6281,0.6108,0.7057,0.8419,0.8918,0.9389,0.9906,1.078,1.1704,1.2241,1.1827,1.2858,1.371,1.2702,1.4608,1.5973,1.3741,1.8354,2.3125,2.4285,2.3067,2.295,2.621,2.8146,2.9922,3.1805,3.0034,2.8704,2.9178,2.2003,1.1415,-0.2813,-1.6134,-2.6022,-3.1221,-3.1659,-3.1322,-3.05,-2.9998,-2.9788,-2.9897,-2.9628,-2.9418,-2.9284,-2.861,-2.8351,-2.8517,-2.9134,-2.9735,-3.028,-3.0089,-3.0022,-3.0056,-3.006,-3.0034,-3.0034,-3.0034,-3.0034,-3.0034,-3.0083,-3.0108,-3.0165,-2.9912,-2.9831,-2.9783,0.0,0.0,0.0,0.0,0.0,0.0,0.0,0.0,0.0,0.0,0.0,0.0,0.0,0.0,0.0,0.0,0.0,0.0,0.7238,0.7336,0.7431,0.7522,0.7438,0.736,0.7299,0.7534,0.5476,0.1305,-0.1202,-0.4185,-0.7476,-0.7437,-0.7379,-0.7363,-0.721,-0.7064,-0.7064,-0.616,-0.5438,-0.4819,-0.448,-0.0761,0.0,0.0,0.0,0.0,0.0,0.0,0.0,0.0,0.5691,0.6531,0.6764,0.7959,0.9463,1.0424,1.116,1.1769,1.2189,1.3241,1.3992,1.338,1.4983,1.6717,1.6847,1.8505,1.9681,1.8232,2.4121,2.8107,2.3536,2.1498,2.1119,2.2879,2.4567,2.6236,2.7705,2.692,2.6648,2.7874,2.4577,1.6202,0.0896,-1.1081,-2.1385,-2.9827,-2.9857,-2.9192,0.0,-2.7943,-2.7694,-2.7806,-2.7803,-2.7749,-2.7614,-2.7209,-2.7089,-2.7289,-2.7311,-2.8001,-2.9289,-2.9044,-2.8981,-2.9006,-2.8962,-2.9091,-2.9298,-2.9034,-2.9038,-2.9249,-2.9715,-2.9729,-2.9494,-2.957,-2.9474,-2.9246,0.0,0.0,0.0,0.0,0.0,0.0,0.0,0.0,0.7139,0.7139,0.7275,0.0,0.0,0.0,0.0,0.0,0.6619,0.6766,0.6754,0.6843,0.7058,0.735,0.7082,0.699,0.7132,0.6796,0.5758,0.3927,0.1311,-0.2388,-0.7037,-0.7278,-0.7369,-0.736,-0.7207,-0.7061,-0.6969,-0.4612,-0.2231,0.0,0.0079,0.1141,0.2904,0.0,0.0,0.0,0.0,0.0,0.0,0.0,0.5393,0.6198,0.7379,0.8508,0.9666,1.0821,1.2045,1.2931,1.2413,1.3768,1.5393,1.5557,1.6118,1.7858,2.2776,2.1195,1.9907,2.4119,2.5956,2.4159,1.5447,1.8229,2.1194,1.9157,2.1304,2.3221,2.3154,2.3832,2.4009,2.3217,2.7827,2.3493,0.4213,-0.4094,-1.4235,-2.8563,-2.8051,0.0,0.0,-2.6837,-2.7037,-2.7354,-2.737,-2.737,-2.737,-2.6109,-2.6085,-2.7236,-2.5117,-2.5218,-2.7289,-2.7289,-2.7289,-2.7289,-2.7289,-2.7746,-2.8426,-2.7629,-2.7614,-2.8203,-2.9286,-2.9398,-2.904,-2.9289,-2.9225,-2.8994,0.0,0.0,0.0,0.0,0.0,0.0,0.0,0.0,0.7139,0.7139,0.718,0.0,0.0,0.0,0.0,0.0,0.0,0.6522,0.6478,0.6556,0.6647,0.6736,0.6654,0.6627,0.6668,0.5028,0.3188,0.1199,0.0418,-0.1437,-0.4328,-0.6288,-0.7166,-0.7058,-0.701,-0.6946,-0.6854,-0.6331,-0.3755,0.0243,0.3252,0.3739,0.2904,0.0,0.0,0.0,0.0,0.0,0.0,0.0,0.0,0.0,0.9003,1.1052,1.3199,1.4014,1.5181,1.6296,1.6491,1.7103,1.7609,1.7248,1.9757,2.2372,2.2535,2.0845,2.003,2.2751,2.1327,1.8988,1.7102,1.7146,1.6959,1.5407,1.6168,1.7726,1.978,1.9799,2.0683,2.3664,2.6633,2.2353,0.6897,-0.17,-1.1787,-2.4901,-2.5193,0.0,0.0,-2.5246,-2.5023,-2.555,-2.511,-2.4912,-2.5005,-2.441,-2.4194,-2.4399,-2.3772,-2.4617,-2.6711,-2.5982,-2.5834,-2.6091,-2.6091,-2.6366,-2.6817,-2.6816,-2.7224,-2.7941,-2.8389,-2.8572,-2.8615,-2.8893,-2.8658,-2.8228,0.0,0.0,0.0,0.0,0.0,0.0,0.0,0.0,0.7054,0.7054,0.7054,0.7024,0.0,0.0,0.0,0.0,0.6373,0.6264,0.6183,0.6196,0.6261,0.6383,0.6329,0.6329,0.64,0.5053,0.2942,-0.0,-0.1693,-0.2702,-0.3161,-0.6414,-0.782,-0.7517,-0.7603,-0.7693,-0.7718,-0.7178,-0.4323,0.0159,0.4262,0.511,0.3993,0.0,0.0,0.0,0.0,0.0,0.0,0.0,0.0,0.0,1.0034,1.2274,1.4458,1.5706,1.7096,1.8247,1.839,1.9402,2.0427,2.0366,2.2127,2.3164,2.0374,2.1077,2.1972,2.0799,1.867,1.6512,1.4676,1.3947,1.3132,1.1927,1.2258,1.3271,1.4934,1.5323,1.6224,1.8502,2.0899,1.8744,0.9459,0.1026,-0.8884,-2.1051,0.0,0.0,0.0,-2.3537,-2.358,-2.3933,-2.3682,-2.3536,-2.3448,-2.3271,-2.3018,-2.2675,-2.2617,-2.3257,-2.4515,-2.4337,-2.4408,-2.4655,-2.4999,-2.5062,-2.4998,-2.585,-2.6281,-2.6504,-2.7287,-2.7671,-2.7807,-2.8265,-2.821,-2.7897,0.0,0.0,0.6325,0.6468,0.0,0.0,0.0,0.0,0.6929,0.6929,0.6929,0.6922,0.0,0.0,0.0,0.0,0.0,0.0,0.6013,0.5881,0.5928,0.6207,0.6112,0.6056,0.5993,0.6002,0.4014,-0.0,-0.3849,-0.4895,-0.3497,-0.742,-0.8931,-0.8447,-0.8615,-0.8866,-0.9189,-0.7223,-0.4269,-0.054,0.3702,0.5538,0.5653,0.5501,0.0,0.0,0.0,0.0,0.0,0.0,0.0,0.0,1.0697,1.2567,1.4279,1.6377,1.8118,1.9286,1.9013,2.1007,2.3318,2.3901,2.3335,2.167,1.8047,2.1766,2.425,1.8139,1.7195,1.5686,0.9911,0.979,1.0117,0.8911,0.9448,0.9936,0.9586,1.0723,1.1233,1.0264,1.2712,1.334,1.0464,0.3201,-0.6151,-1.779,0.0,0.0,0.0,-2.1967,-2.266,-2.265,-2.2961,-2.2895,-2.2479,-2.2565,-2.2319,-2.1754,-2.1619,-2.1519,-2.1483,-2.2574,-2.3069,-2.317,-2.3925,-2.3819,-2.3271,-2.4779,-2.5027,-2.4647,-2.61,-2.6774,-2.6932,-2.7621,-2.784,-2.7783,0.0,0.0,0.6474,0.6624,0.0,0.0,0.0,0.0,0.0,0.6929,0.6929,0.0,0.0,0.0,0.0,0.0,0.0,0.0,0.5812,0.5913,0.5916,0.5898,0.6098,0.5494,0.3857,0.3791,0.2506,-0.0,-0.0924,-0.2786,-0.5665,-0.8129,-0.9221,-0.8986,-0.8334,-0.8707,-0.9697,-0.5617,-0.429,-0.4438,0.2783,0.5604,0.5507,0.5559,0.5446,0.0,0.0,0.0,0.0,0.0,0.0,0.0,1.2181,1.4369,1.6058,1.7866,1.9721,2.137,2.208,2.2979,2.3599,2.3125,2.3237,2.3535,2.3967,2.2732,1.9904,1.4201,1.3457,1.2971,0.9913,1.0129,1.0144,0.8102,0.7946,0.8283,0.8831,0.8145,0.823,0.9757,1.0805,0.8618,0.1559,-0.0124,-0.6355,0.0,0.0,0.0,-2.1105,-2.1955,-2.2607,-2.3052,-2.2695,-2.2197,-2.1595,-2.1749,-2.1393,0.0,-2.0959,-2.1118,-2.1134,-2.1698,-2.2136,-2.2508,-2.2903,-2.2979,-2.284,-2.3446,-2.4329,-2.5295,-2.5631,-2.6423,-2.7382,-2.7539,-2.731,-2.6971,0.0,0.0,0.0,0.0,0.0,0.0,0.0,0.0,0.0,0.0,0.0,0.0,0.0,0.0,0.0,0.0,0.5325,0.4778,0.4859,0.5364,0.5737,0.5796,0.6256,0.5877,0.4636,0.3608,0.2104,0.0,0.0,-0.2114,-0.6264,-0.8604,-0.9813,-0.9921,-0.9476,-0.9097,-0.8604,-0.4711,-0.2969,-0.251,0.1404,0.4028,0.5562,0.5596,0.5409,0.5121,0.4112,0.0,0.0,0.0,0.0,0.0,0.0,0.0,1.5838,1.8023,2.0001,2.1702,2.2849,2.361,2.3818,2.2709,2.3117,2.3705,2.3238,2.0623,1.7369,1.3908,1.2238,1.0701,0.8403,0.8651,0.8391,0.6117,0.6015,0.6149,0.5858,0.5315,0.4727,0.4307,0.4195,0.1014,-0.6888,-0.7708,-1.1405,0.0,0.0,-2.0758,-2.0783,-2.1881,-2.2466,-2.2441,-2.2354,-2.201,-2.1464,-2.1532,-2.1133,-2.0252,-2.0765,-2.1167,-2.1487,-2.1374,-2.1446,-2.1705,-2.2034,-2.2186,-2.2214,-2.2605,-2.3256,-2.4033,-2.4729,-2.5468,-2.6153,-2.685,-2.6957,-2.6691,0.0,0.0,0.0,0.0,0.0,0.0,0.0,0.0,0.0,0.0,0.0,0.0,0.0,0.0,0.6064,0.0,0.0,0.0,0.3695,0.4789,0.5542,0.5827,0.628,0.6379,0.5927,0.4083,0.2074,0.0,0.0,-0.2008,-0.5829,-0.9076,-1.0593,-1.0707,-1.0771,-0.9619,-0.7569,-0.4656,-0.1776,0.0721,0.0187,0.1955,0.4823,0.5278,0.5419,0.5325,0.4955,0.4834,0.5045,0.6965,0.0,0.0,0.0,0.0,1.4842,1.7456,1.9505,2.1227,2.266,2.3447,2.359,2.2425,2.2547,2.2436,2.034,1.8046,1.6075,1.4982,1.2078,0.9053,0.6903,0.6819,0.6333,0.4111,0.4118,0.3958,0.2587,0.247,0.1442,-0.1577,-0.2755,-0.6076,-1.3173,-1.4758,-1.6836,0.0,0.0,-2.1633,-2.0639,-2.1995,-2.2495,-2.1857,-2.2169,-2.2073,-2.1458,-2.1552,-2.1149,-2.0299,-2.0682,-2.1194,-2.1758,-2.1189,-2.102,-2.1183,-2.1516,-2.1636,-2.1628,-2.2023,-2.2341,-2.2672,-2.3892,-2.4577,-2.5011,-2.6236,-2.6691,-2.6691,0.0,0.0,0.0,0.0,0.0,0.0,0.0,0.0,0.0,0.0,0.6427,0.6447,0.6305,0.6301,0.5538,0.364,0.4924,0.499,0.3,0.0,0.0,0.5986,0.5935,0.5491,0.4517,0.3556,0.2052,0.0,0.0,-0.1338,-0.4097,-0.951,-1.1462,-1.039,-1.0272,-0.9796,-0.8884,-0.5918,-0.2784,0.0124,0.006,0.0302,0.1116,0.4222,0.54,0.5347,0.4758,0.5292,0.6516,0.8021,0.8586,0.0,0.0,0.0,1.4169,1.6365,1.85,2.0582,2.2629,2.2669,2.2163,2.2271,2.0599,1.9194,1.9905,1.8171,1.6115,1.5245,1.2061,0.8964,0.7323,0.6457,0.5465,0.3744,0.297,0.2287,0.1404,0.0279,-0.094,-0.2041,-0.4187,-0.7829,-1.3607,-1.4487,0.0,0.0,-2.1739,-2.1662,-2.2166,-2.2797,-2.3017,-2.2814,-2.2694,-2.209,-2.091,-2.1381,-2.1133,-2.0206,-2.0351,-2.0562,-2.088,-2.079,-2.1152,-2.1869,-2.1936,-2.1811,-2.1582,-2.1691,-2.2438,-2.3617,-2.3818,-2.4906,-2.6421,-2.664,-2.6691,-2.6691,0.0,0.0,0.0,0.0,0.0,0.0,0.0,0.0,0.0,0.0,0.0,0.62,0.6139,0.6009,0.5201,0.3402,0.3701,0.4015,0.4069,0.494,0.5559,0.5776,0.5734,0.548,0.488,0.4557,0.2926,0.0,0.0,-0.1215,-0.373,-1.0199,-1.2753,-1.1884,-1.2013,-1.1349,-0.9886,-0.6361,-0.3418,-0.1162,-0.0349,0.0,0.0359,0.3669,0.4894,0.4697,0.3337,0.4615,0.6996,0.648,0.7399,0.8974,1.0238,0.0,0.0,0.0,1.759,1.9575,2.2002,2.2613,2.246,2.1927,2.0917,2.0102,2.023,1.8584,1.6789,1.604,1.3416,1.0539,0.8108,0.7173,0.5885,0.3178,0.2111,0.1164,0.0056,-0.1711,-0.3447,-0.498,-0.8009,-1.1711,-1.6127,-1.7838,0.0,0.0,-2.319,-2.315,-2.3288,-2.3657,-2.3694,-2.3303,-2.3204,-2.2733,-2.1871,-2.2073,-2.1745,-2.0926,-2.1196,-2.1401,-2.1599,-2.1637,-2.1519,-2.1312,-2.1774,-2.1713,-2.1291,-2.179,-2.2365,-2.3117,-2.478,-2.5942,-2.6689,-2.6691,-2.6336,-2.5927,0.0,0.0,0.0,0.0,0.0,0.0,0.0,0.0,0.0,0.0,0.0,0.5959,0.5922,0.0,0.0,0.0,0.3189,0.3434,0.4902,0.5189,0.5318,0.5467,0.552,0.5477,0.5321,0.5272,0.3784,0.0657,0.0195,-0.1167,-0.3603,-0.9918,-1.2931,-1.3118,-1.3765,-1.2687,-1.0092,-0.6719,-0.4345,-0.2692,-0.1545,-0.0227,0.1098,0.0491,0.2017,0.386,-0.0959,-0.063,0.2221,0.2857,0.4752,0.7132,0.8996,1.0442,0.0,0.0,0.0,1.9296,2.1564,2.2491,2.2636,2.1788,2.131,2.0826,2.013,1.8682,1.7181,1.6242,1.4572,1.2374,0.934,0.8265,0.6892,0.3808,0.2211,0.0774,-0.0887,-0.3377,-0.5809,-0.7972,-1.1612,-1.5171,-1.8198,-2.0589,0.0,0.0,-2.4309,-2.4374,-2.4312,-2.4431,-2.4268,-2.3802,-2.368,-2.3382,-2.2919,-2.2785,-2.2435,-2.1773,-2.1981,-2.2292,-2.2624,-2.2394,-2.1941,-2.1332,-2.1678,-2.1514,-2.1071,-2.181,-2.2195,-2.2551,-2.498,-2.626,-2.6684,-2.669,-2.6217,-2.5671,0.0,0.0,0.0,0.0,0.0,0.0,0.0,0.0,0.0,0.0,0.0,0.5762,0.5627,0.5477,0.5325,0.5031,0.4653,0.4519,0.4822,0.488,0.5006,0.5148,0.5098,0.0,0.5142,0.497,0.4141,0.2533,0.0827,-0.1077,-0.3199,-0.7758,-1.0997,-1.3057,-1.4598,-1.3074,-0.9191,-0.7424,-0.5807,-0.436,-0.4235,-0.0776,0.3113,-0.7291,-0.47,0.2863,-0.9714,-1.3397,-1.1141,-0.3276,0.0304,0.2289,0.7269,0.9762,1.1223,0.0,0.0,0.0,2.176,2.1996,2.1908,2.2028,2.0883,1.9544,1.8921,1.8014,1.6827,1.5121,1.4706,1.381,1.1156,0.9548,0.8128,0.6541,0.3932,0.1368,-0.0814,-0.4547,-0.7854,-0.9998,-1.3837,-1.6965,-1.8535,-2.0742,0.0,0.0,-2.4254,-2.4511,-2.5367,-2.5013,-2.4712,-2.4557,-2.417,-2.3815,-2.3473,-2.3275,-2.2944,-2.2548,-2.2235,-2.2595,-2.3489,-2.2469,-2.2378,-2.2917,-2.1795,-2.1227,-2.1023,-2.1446,-2.1897,-2.2421,-2.3516,-2.5082,-2.6684,-2.669,-2.6674,-2.6489,0.0,0.0,0.0,0.0,0.0,0.0,0.0,0.0,0.0,0.0,0.0,0.0,0.0,0.5453,0.5258,0.4877,0.469,0.47,0.4857,0.4944,0.5121,0.5274,0.5277,0.5237,0.5081,0.4942,0.4563,0.3832,0.1247,-0.0982,-0.29,-0.6974,-0.9685,-1.1243,-1.3815,-1.413,-1.2578,-0.9358,-0.5516,-0.1461,-0.1537,-0.4296,-0.7842,-0.3221,-0.0,0.1435,-0.2885,-0.37,-0.235,-0.0145,-0.0291,-0.0191,0.6646,0.8397,0.892,1.3858,1.7472,2.016,2.152,2.2288,2.2846,2.3437,2.26,2.137,2.0234,1.8337,1.6514,1.5507,1.4303,1.3195,1.225,1.0588,0.8736,0.6802,0.4091,0.1254,-0.1396,-0.588,-0.9707,-1.1883,-1.5981,-1.8921,-1.9717,-2.1536,-2.3185,0.0,0.0,-2.4832,-2.5472,-2.529,-2.5077,-2.4867,-2.4714,-2.4492,-2.4137,-2.3534,-2.3236,-2.331,-2.3445,-2.3539,-2.3575,-2.3009,-2.2732,-2.2638,-2.2066,-2.164,-2.1399,-2.1869,-2.2157,-2.2416,-2.3739,-2.4675,-2.5399,-2.6352,-2.642,-2.606,0.0,0.0,0.0,0.0,0.0,0.6356,0.5927,0.5805,0.5694,0.561,0.0,0.0,0.0,0.0,0.5168,0.4789,0.4769,0.4809,0.4911,0.5006,0.5128,0.5284,0.5287,0.5247,0.5229,0.4493,0.4285,0.4521,0.1489,-0.0902,-0.2785,-0.5892,-0.8319,-1.0137,-1.2423,-1.3458,-1.3434,-1.1038,-0.5891,0.0611,-0.0405,-0.438,-0.9237,-0.4102,-0.1367,-0.0702,-0.403,-0.4219,-0.2914,-0.2909,-0.4336,-0.4656,0.3771,0.7361,0.9568,1.4928,1.7921,1.984,2.1446,2.2624,2.3516,2.4231,2.3809,2.2738,2.1022,1.9139,1.7312,1.577,1.4325,1.3077,1.2223,1.038,0.8553,0.712,0.4635,0.1513,-0.2461,-0.7115,-1.1314,-1.4505,-1.8344,-2.0896,-2.1343,-2.2597,-2.3651,0.0,0.0,0.0,-2.5109,-2.5103,-2.5019,-2.4943,-2.4974,-2.4872,-2.4591,-2.4025,-2.385,-2.4061,-2.4233,-2.4224,-2.4091,-2.3554,-2.3196,-2.303,-2.2617,-2.2124,-2.1642,-2.2198,-2.2388,-2.2429,-2.3777,-2.4283,-2.4441,-2.5894,-2.6247,-2.6101,0.0,0.0,0.6753,0.6898,0.6559,0.6345,0.6338,0.6,0.5749,0.561,0.0,0.0,0.0,0.0,0.0,0.4931,0.4925,0.4925,0.4925,0.4928,0.4999,0.5085,0.5078,0.5219,0.5389,0.3601,0.3248,0.4386,0.1441,-0.09,-0.2691,-0.4532,-0.7048,-0.9914,-1.0612,-1.0923,-1.1147,-1.2104,-0.7157,0.1106,-0.1259,-0.0875,-0.005,-1.0933,-0.9701,-0.3567,-1.4332,-1.6814,-1.4592,-1.2194,-1.2127,-1.1331,-0.1514,0.6625,1.3124,1.6057,1.8021,1.966,0.0,0.0,0.0,2.4282,2.4199,2.3416,2.111,2.0458,1.9359,1.5894,1.4762,1.3648,1.1103,0.885,0.7407,0.7407,0.5597,0.2018,-0.4165,-0.8286,-1.2656,-1.7959,-2.0926,-2.2788,-2.3354,-2.3813,0.0,0.0,-2.4043,-2.4113,-2.434,-2.4375,-2.4503,-2.4775,-2.4911,-2.4924,-2.4804,-2.4804,-2.4804,-2.4804,-2.4476,-2.4579,-2.5045,-2.4,-2.3809,-2.4237,-2.3525,-2.2609,-2.1685,-2.2415,-2.2546,-2.2417,-2.3433,-2.3826,-2.3949,-2.5415,-2.6289,-2.6707,0.0,0.6875,0.6844,0.6776,0.6569,0.638,0.6278,0.6,0.5749,0.0,0.0,0.0,0.5233,0.5024,0.5051,0.5265,0.5158,0.5021,0.5021,0.5182,0.5264,0.5311,0.5304,0.5311,0.5404,0.3631,0.2224,0.1218,0.0434,-0.025,-0.081,-0.3944,-0.6269,-0.7957,-0.9533,-1.0405,-1.0742,-1.0813,-0.8844,-0.5341,-0.1945,-0.339,-0.7792,-0.9357,-0.818,-0.6181,-0.9985,-1.0548,-0.9644,-1.0681,-1.3471,-1.4739,-0.454,0.3565,1.0328,1.5716,1.8548,2.029,2.1706,0.0,0.0,0.0,0.0,0.0,2.2809,2.1632,1.997,1.701,1.4305,1.228,1.1589,0.6558,0.244,0.244,0.0657,-0.2563,-0.7736,-1.2304,-1.64,-1.9753,-2.2362,-2.3781,-2.3564,0.0,0.0,0.0,-2.2773,-2.264,-2.3087,-2.3572,-2.4007,-2.4425,-2.47,-2.4842,-2.4804,-2.4804,-2.4804,-2.4804,-2.4708,-2.4663,-2.4652,-2.4264,-2.3984,-2.3849,-2.3798,-2.3392,-2.2762,-2.2807,-2.2814,-2.2733,-2.2754,-2.3016,-2.3701,-2.6364,-2.7063,-2.67,0.6719,0.6773,0.6807,0.6715,0.6573,0.6444,0.6363,0.6146,0.5942,0.0,0.0,0.0,0.5365,0.454,0.4151,0.4617,0.4996,0.5237,0.5237,0.5315,0.5432,0.5379,0.5369,0.5372,0.5396,0.3639,0.1839,0.0,0.0,0.0,-0.0063,-0.2944,-0.5005,-0.6322,-0.8142,-0.9181,-0.9627,-0.9784,-0.9367,-0.8349,-0.601,-0.7741,-1.1697,-1.1408,-1.1152,-1.0966,-1.1205,-1.1261,-1.1456,-1.2941,-1.463,-1.5031,-0.8833,-0.2108,0.4755,1.1195,1.4091,1.5752,1.8231,1.8783,1.897,2.0046,0.0,0.0,2.2348,2.2295,2.1547,1.9546,1.6908,1.4586,1.3244,0.8008,0.272,-0.0803,-0.415,-0.7759,-1.192,-1.5012,-1.8128,-2.1621,-2.3118,-2.3847,-2.3807,-2.3566,-2.3106,-2.2351,-2.1712,-2.1559,-2.2046,-2.2634,-2.3349,-2.4153,-2.4463,-2.4685,-2.4877,-2.4877,-2.4877,-2.4877,-2.4877,-2.4799,-2.4623,-2.4529,-2.4381,-2.4174,-2.428,-2.4155,-2.3853,-2.3687,-2.3382,-2.3006,-2.3021,-2.3216,-2.3845,-2.6809,-2.7908,-2.7924,0.0,0.6688,0.6702,0.6702,0.6573,0.6471,0.6471,0.6335,0.6186,0.0,0.5898,0.5766,0.5524,0.3997,0.3249,0.3773,0.4764,0.5428,0.5428,0.5428,0.5432,0.5379,0.5369,0.5372,0.5396,0.3816,0.2043,0.0,0.0,-0.0198,-0.0644,-0.1977,-0.3605,-0.5353,-0.6763,-0.7698,-0.8229,-0.9056,-0.9569,-0.9923,-1.1732,-1.2808,-1.3486,-1.5408,-1.6221,-1.6267,-1.5483,-1.5916,-1.6873,-1.7325,-1.5976,-1.3956,-1.3196,-0.8457,-0.1907,0.4707,0.7275,0.8814,1.2665,1.286,1.2372,1.4068,1.5795,0.0,2.0244,2.1977,2.2848,2.2186,2.0466,1.8198,1.5286,1.1365,0.6048,-0.1592,-0.8014,-1.3137,-1.6184,-1.7128,-1.8982,-2.3088,-2.3359,-2.334,-2.3651,-2.3119,-2.2281,-2.1091,-2.0623,-2.056,-2.092,-2.1585,-2.2481,-2.366,-2.4081,-2.447,-2.4886,-2.4943,-2.4986,-2.4986,-2.4986,-2.4917,-2.4804,-2.4818,-2.4799,-2.4804,-2.4818,-2.4799,-2.4785,-2.4676,-2.4116,-2.3428,-2.4113,-2.4357,-2.4632,-2.7037,-2.8728,-2.9732,0.6515,0.6617,0.6702,0.6702,0.6573,0.6471,0.6471,0.6247,0.6064,0.6034,0.5845,0.5498,0.4593,0.4745,0.4975,0.5283,0.5376,0.5376,0.5376,0.5432,0.5369,0.5393,0.5382,0.5386,0.541,0.5029,0.3249,0.0,0.0,-0.1493,-0.4341,-0.2914,-0.3801,-0.6459,-0.6849,-0.7448,-0.8261,-0.9157,-1.2169,-1.6203,-1.4333,-1.5168,-1.7418,-1.6561,-1.6492,-1.6705,-1.625,-1.6718,-1.7894,-1.982,-1.8962,-1.6616,-1.3558,-0.9414,-0.4463,0.1873,0.534,0.749,0.9059,0.9426,0.9439,0.987,1.0699,0.0,1.6853,1.8377,1.9307,2.0841,1.8349,1.5722,1.5132,1.1375,0.7487,0.4808,-0.7212,-1.6802,-1.8477,-2.0798,-2.2283,-2.2135,-2.316,-2.314,-2.1227,-2.126,-2.081,-1.9385,-1.8861,-1.8636,-1.8639,-2.0124,-2.1233,-2.1809,-2.3279,-2.41,-2.419,-2.4625,-2.4842,-2.4842,-2.4842,-2.4832,-2.4804,-2.4917,-2.4904,-2.4804,-2.4917,-2.4904,-2.4804,-2.4766,-2.4588,-2.4484,-2.6051,-2.6839,-2.7201,-2.7841,-2.9062,-3.0396,0.638,0.6485,0.6566,0.6491,0.6568,0.6544,0.6386,0.64,0.6325,0.6166,0.6101,0.5836,0.5295,0.5555,0.5708,0.5693,0.5607,0.5528,0.5382,0.5379,0.5382,0.5396,0.4567,0.4025,0.4036,0.4932,0.4501,0.2704,0.0857,-0.0917,-0.2715,-0.329,-0.4687,-0.6703,-0.7177,-0.8603,-1.0698,-1.1443,-1.4976,-1.983,-1.6516,-1.7896,-2.1666,-1.963,-1.9086,-1.9295,-1.8716,-1.8892,-1.9602,-2.0875,-2.0797,-1.9608,-1.6622,-1.4341,-1.151,-0.5003,-0.2087,-0.0403,0.2344,0.2486,0.2121,0.306,0.4073,0.0,0.0,1.0122,1.0721,1.0774,1.0023,0.8952,0.7624,0.5603,0.3271,0.0554,-0.8465,-1.5855,-1.7829,-1.8968,-1.9512,-1.9279,-1.9805,-1.9804,-1.8722,-1.8928,-1.878,-1.8072,-1.7308,-1.7323,-1.8343,-1.9447,-2.0447,-2.1286,-2.2638,-2.3548,-2.3988,-2.4262,-2.4487,-2.4654,-2.4654,-2.47,-2.4804,-2.4883,-2.4943,-2.5037,-2.5118,-2.5107,-2.5056,-2.5056,-2.5018,-2.5082,-2.635,-2.6968,-2.7277,-2.8356,-2.9276,-3.0047,0.6244,0.6332,0.6386,0.6244,0.6434,0.6331,0.5783,0.589,0.6105,0.6298,0.6312,0.6116,0.5512,0.5849,0.5744,0.5024,0.4815,0.4518,0.4074,0.4151,0.4183,0.418,0.2865,0.1999,0.1656,0.3129,0.4077,0.435,0.1402,-0.0198,-0.058,-0.346,-0.5482,-0.6745,-0.8056,-1.0352,-1.3324,-1.4509,-1.7624,-2.1599,-1.8954,-2.0789,-2.485,-2.2606,-2.1919,-2.2054,-2.1182,-2.0926,-2.107,-2.1437,-2.1817,-2.1765,-1.9841,-1.9139,-1.7841,-1.1891,-0.9827,-0.8586,-0.4698,-0.4755,-0.5614,-0.433,-0.3046,-0.1646,0.0,0.0,0.0,0.0865,0.0634,0.0174,-0.1262,-0.2543,-0.4292,-0.7038,-1.0608,-1.3627,0.0,-1.4571,0.0,-1.4833,-1.4888,0.0,-1.5396,-1.6191,-1.6613,-1.6365,-1.6272,-1.6737,-1.7917,-1.8804,-1.9803,-2.0942,-2.1916,-2.2818,-2.3635,-2.3852,-2.4081,-2.4355,-2.4409,-2.4578,-2.4804,-2.4804,-2.4975,-2.5303,-2.5303,-2.5303,-2.5303,-2.5303,-2.5303,-2.5389,-2.6151,-2.6562,-2.6943,-2.8752,-2.9524,-2.9757,0.6088,0.6179,0.624,0.6098,0.62,0.5699,0.3728,0.3478,0.416,0.6054,0.6265,0.5311,0.2879,0.4754,0.5191,0.2456,0.1586,0.0593,-0.0776,-0.0463,-0.0253,-0.0377,0.0065,-0.046,-0.2048,-0.1608,-0.071,0.0582,0.0194,-0.0839,-0.2436,-0.3804,-0.537,-0.7071,-0.9903,-1.2142,-1.3942,-1.746,-1.9813,-2.1311,-2.2493,-2.3789,-2.4873,-2.3589,-2.3119,-2.3001,-2.19,-2.129,-2.1167,-2.2198,-2.2047,-2.1306,-2.0699,-1.9475,-1.7757,-1.4743,-1.2708,-1.1021,-0.9315,-0.9446,-1.0097,-1.0344,-0.9867,-0.8535,-0.5457,0.0,-0.2435,0.0301,0.0,-0.9479,-0.6152,0.0,0.0,-1.254,-1.2861,-1.2849,-1.1097,-0.908,-0.7902,-0.8174,-0.9096,0.0,0.0,-1.3055,-1.4531,-1.3392,-1.6462,-1.7384,-1.5167,-1.7498,-1.9134,-1.9764,-2.0878,-2.173,-2.2293,-2.3247,-2.3738,-2.3798,-2.4095,-2.4426,-2.4804,-2.4804,-2.4975,-2.5303,-2.5303,-2.5303,-2.5303,-2.5303,-2.5341,-2.5476,-2.632,-2.7138,-2.7948,-2.9079,-2.994,-3.0578,0.6159,0.6217,0.6294,0.6228,0.5182,0.4568,0.4919,0.1675,-0.0858,-0.1016,0.1034,0.1192,-0.2224,-0.09,-0.0951,-0.3911,-0.4895,-0.6108,-0.7814,-1.0801,-1.2449,-1.2328,-1.0428,-0.9459,-0.9542,-0.8679,-0.719,-0.503,-0.4664,-0.4571,-0.4938,-0.8016,-1.0673,-1.2748,-1.3459,-1.5661,-1.9021,-2.0518,-2.2494,-2.4596,-2.486,-2.5386,-2.5875,-2.4524,-2.3682,-2.3146,-2.2299,-2.1915,-2.1754,-2.171,-2.1967,-2.1983,-2.0206,-1.9717,-1.9293,-1.6774,-1.5351,-1.4329,-1.3238,-1.2962,-1.312,-1.3591,-1.3485,-1.3127,-1.2487,-1.2642,-1.2869,-1.2609,0.0,0.0,0.0,0.0,0.0,0.0,-1.4168,-1.2292,-0.9826,0.0,-0.694,-0.6919,0.0,0.0,0.0,0.0,0.0,0.0,-1.3274,-1.4578,-1.4911,-1.7214,-1.9027,-2.0139,-2.1799,-2.269,-2.2664,-2.3578,-2.3997,-2.3868,-2.4211,-2.4556,-2.4917,-2.4917,-2.5061,-2.5303,-2.5303,-2.5303,-2.5303,-2.5303,-2.5341,-2.5438,-2.584,-2.6558,-2.7538,-2.902,-2.9776,-3.0146,0.6176,0.6234,0.6283,0.6179,0.4438,0.2697,0.1395,-0.2392,-0.6129,-0.8946,-0.671,-0.6159,-0.9924,-1.0357,-1.0963,-1.2456,-1.3789,-1.5198,-1.6672,-1.9545,-2.0976,-2.0449,-1.8452,-1.6769,-1.5602,-1.4766,-1.3246,-1.0929,-0.994,-0.9713,-1.0316,-1.3449,-1.5896,-1.7679,-1.7199,-1.9299,-2.3186,-2.3299,-2.4591,-2.6484,-2.5711,-2.5629,-2.5832,-2.4764,-2.378,-2.2908,-2.247,-2.231,-2.2242,-2.1814,-2.2149,0.0,-2.0425,-2.0176,-2.0196,-1.8058,-1.7099,-1.6654,-1.6182,-1.5937,-1.5972,-1.6409,-1.6773,-1.7214,-1.7891,-1.9132,-2.0569,-2.2096,-2.1972,0.0,0.0,0.0,-2.0155,-1.9085,0.0,-1.3658,-1.1101,-0.9579,-0.828,0.0,0.0,0.0,0.0,0.0,0.0,0.0,0.0,-1.2986,-1.4634,-1.68,-1.8737,-2.0286,-2.2147,-2.316,-2.3254,-2.3892,-2.4247,-2.4318,-2.4502,-2.4731,-2.501,-2.5005,-2.5126,-2.5303,-2.5303,-2.5303,-2.5303,-2.5303,-2.5322,-2.539,-2.5478,-2.5933,-2.6774,-2.8396,-2.9394,-3.0059,0.604,0.6159,0.6176,0.5905,0.4318,-0.0225,-1.0209,-1.0102,-1.0796,-1.6325,-1.6616,-1.7571,-2.0871,-2.4073,-2.5131,-2.3035,-2.5386,-2.7236,-2.7763,-2.4198,-2.1586,-2.0534,-2.036,-1.9647,-1.8295,-1.8639,-1.8036,-1.6544,-1.4849,-1.603,-1.9937,-1.9441,-1.9381,-1.9767,-2.082,-2.2537,-2.4691,-2.5606,-2.5671,-2.5115,-2.4643,-2.4182,-2.3808,-2.3967,-2.3315,-2.2338,-2.231,0.0,0.0,-2.3093,-2.2747,0.0,0.0,0.0,0.0,0.0,-1.7612,-1.7299,0.0,0.0,0.0,-1.9526,0.0,0.0,0.0,0.0,-2.237,-2.2638,-2.3681,-2.4895,-2.5906,-2.5437,-2.4473,-2.3214,-2.0599,0.0,0.0,-1.3795,-1.1518,-0.7977,0.0,0.0,0.0,0.0,0.0,0.0,0.0,0.0,-1.3476,-1.5869,-1.7987,-1.9659,-2.0939,-2.2242,-2.367,-2.3843,-2.4331,-2.5162,-2.4907,-2.4869,-2.501,-2.5063,-2.5168,-2.5303,-2.5303,-2.5303,-2.5303,-2.5303,-2.5303,-2.5322,-2.5457,-2.5592,-2.5879,-2.7047,-2.8906,-3.0859,0.2449,0.4538,0.6238,0.6186,0.3435,-0.2104,-1.2093,-1.5316,-1.7915,-2.1467,-2.0688,-2.1246,-2.4962,-2.6515,-2.7661,-2.8589,-3.081,-3.2058,-3.1757,-3.0678,-2.9776,-2.9191,-2.7625,-2.6757,-2.6751,-2.4968,-2.34,-2.2093,-2.0849,-2.0406,-2.0738,-2.1177,-2.2131,-2.3438,-2.3522,-2.4411,-2.5912,-2.6321,-2.5915,-2.5016,-2.4626,-2.424,-2.3837,-2.3345,-2.3033,-2.2832,-2.2443,-2.2106,0.0,-2.2136,-2.2116,-2.1933,-2.1487,-2.1345,-2.1111,-2.0231,-1.9863,0.0,0.0,0.0,-2.0485,-2.1159,0.0,0.0,0.0,0.0,0.0,0.0,-2.4233,-2.5118,-2.5808,-2.6065,-2.604,-2.5657,-2.3544,-2.1552,0.0,-1.842,-1.6093,-1.3484,-1.0637,-0.922,0.0,0.0,0.0,0.0,0.0,0.0,0.0,-1.556,-1.7906,-2.021,-2.2235,-2.3702,-2.4542,-2.5536,-2.5895,-2.5669,-2.5828,-2.5716,-2.5328,-2.5351,-2.5386,-2.5428,-2.5428,-2.5428,-2.5428,-2.5341,-2.5341,-2.5447,-2.5486,-2.628,-2.7465,-2.7849,-2.8496,-2.9336,-0.1026,0.1635,0.3802,0.4164,-0.0768,-0.7336,-1.496,-1.9552,-2.3115,-2.5652,-2.5757,-2.6681,-2.9678,-3.0287,-3.1329,-3.3461,-3.491,-3.5444,-3.4853,-3.5044,-3.4573,-3.3233,-3.2153,-3.1258,-3.0626,-2.9418,-2.7909,-2.6088,-2.5775,-2.4902,-2.3579,-2.3861,-2.507,-2.6947,-2.6182,-2.643,-2.7393,-2.7009,-2.6284,-2.534,-2.4471,-2.4064,-2.3865,0.0,-2.2955,-2.335,0.0,-2.1957,-2.1823,-2.1658,-2.1709,-2.1779,-2.1358,-2.1392,-2.155,-2.1135,-2.0991,-2.1087,-2.1472,-2.1616,0.0,-2.22,-2.2655,0.0,-2.2995,0.0,-2.4413,0.0,0.0,-2.5634,-2.5823,-2.636,-2.6805,-2.683,-2.5444,-2.4042,0.0,-2.1233,-1.9405,-1.8091,-1.5131,-1.2684,-1.1235,0.0,0.0,0.0,0.0,0.0,0.0,0.0,-1.8228,-2.043,-2.3173,-2.5021,-2.591,-2.6827,-2.7031,-2.654,-2.6595,-2.6202,-2.5467,-2.5488,-2.5499,-2.5468,-2.5492,-2.5495,-2.5487,-2.5408,-2.5447,-2.5678,-2.6946,-2.815,-2.9062,-2.7832,-2.8164,-2.9394,-0.4212,-0.2567,-0.1394,-0.0651,-0.8218,-1.5586,-1.8978,-2.2981,-2.6554,-2.9148,-3.1932,-3.4134,-3.5324,-3.5776,-3.645,-3.7669,-3.7882,-3.7721,-3.7169,-3.7058,-3.5652,-3.2506,-3.3617,-3.2967,-3.0063,-3.1792,-3.1335,-2.8524,-2.9363,-2.9329,-2.8417,-2.7437,-2.8042,-2.9911,-2.8676,-2.8431,-2.8907,-2.7648,-2.673,-2.5974,-2.4181,-2.3659,-2.3836,-2.2722,-2.3014,-2.3777,-2.2204,-2.1949,-2.231,-2.1781,-2.1645,-2.1661,-2.1628,-2.1368,-2.1055,-2.1055,-2.1055,-2.1295,-2.2373,-2.2696,-2.2696,-2.2729,0.0,0.0,0.0,0.0,-2.5355,0.0,0.0,0.0,-2.6007,-2.6509,-2.7,-2.6976,-2.6429,-2.5453,-2.3881,-2.2502,-2.1661,-2.1615,-1.8622,-1.5799,-1.3871,-1.4438,0.0,0.0,0.0,-1.4608,0.0,0.0,-1.8882,-2.0329,-2.3588,-2.6064,-2.7633,-2.7687,-2.7714,-2.7715,-2.7144,-2.6347,-2.5409,-2.5468,-2.5486,-2.5473,-2.5504,-2.5507,-2.5508,-2.5514,-2.5678,-2.6281,-2.9608,-3.0898,-3.0508,-2.7187,-2.8047,-3.0898,-0.9276,-0.9092,-1.0053,-1.2878,-1.743,-2.0899,-2.12,-2.7062,-3.2297,-3.4723,-3.7316,-3.9315,-4.0266,-4.0064,-3.9615,-3.8945,-3.8833,-3.8013,-3.6108,-3.6173,-3.4995,-3.2091,-3.288,-3.2721,-3.1333,-3.1551,-3.1183,-3.0191,-2.9824,-2.9366,-2.8839,-2.8271,-2.8563,-2.9525,-2.8692,-2.7997,-2.7456,-2.7255,-2.6454,-2.5236,-2.4522,-2.444,-2.4601,0.0,-2.3014,-2.3848,-2.2587,-2.2722,-2.335,-2.2417,-2.2249,-2.2382,-2.217,-2.2049,-2.1991,-2.1991,-2.1991,-2.2024,-2.2324,-2.2421,-2.2538,-2.3076,-2.3452,-2.3735,0.0,0.0,0.0,0.0,0.0,0.0,0.0,0.0,-2.7254,-2.7779,-2.7635,-2.7078,-2.6036,-2.5643,-2.5227,-2.4532,-2.27,-2.0176,-1.6788,-1.6561,-1.6021,0.0,0.0,0.0,0.0,0.0,0.0,-2.1482,-2.3982,-2.6234,-2.8183,-2.8834,-2.8742,-2.7924,-2.7825,-2.6958,-2.5464,-2.5483,-2.5834,-2.6415,-2.5876,-2.5655,-2.5657,-2.5644,-2.7203,-2.9647,-3.0545,-3.0898,-3.0781,-2.9902,-3.0137,-3.0898,-1.2987,-1.3677,-1.5486,-1.9003,-2.3178,-2.5826,-2.5313,-3.0885,-3.5693,-3.7175,-3.9292,-4.0721,-4.0789,-4.0717,-4.0324,-3.948,-3.8912,-3.7774,-3.5906,-3.5581,-3.4424,-3.2132,-3.2436,-3.2259,-3.1304,-3.0951,-3.0543,-3.0016,-2.9204,-2.8809,-2.8731,-2.8423,-2.8671,-2.9394,-2.91,-2.8612,-2.7939,-2.7296,-2.6631,-2.5875,-2.4573,-2.4368,0.0,-2.3294,-2.3369,-2.4133,-2.3481,-2.3429,-2.3627,-2.3157,-2.3223,-2.3407,-2.2946,-2.2784,-2.2733,-2.2395,-2.2388,-2.249,-2.249,-2.2581,-2.279,-2.3204,-2.3199,-2.3294,-2.4081,-2.4105,-2.4002,0.0,0.0,0.0,0.0,0.0,-2.7006,-2.7906,-2.7973,-2.7703,-2.7123,-2.7036,-2.6841,-2.6318,-2.5361,-2.3707,-2.1052,-1.895,-1.7264,0.0,0.0,0.0,0.0,0.0,0.0,-2.2146,-2.5409,-2.7741,-2.897,-3.0071,-2.9936,-2.8569,-2.8586,-2.789,-2.6591,-2.6582,-2.6853,-2.7295,-2.6923,-2.6868,-2.705,-2.7128,-2.8589,-3.0777,-3.0777,-3.1262,-3.1992,-3.1992,-3.1523,-3.0898,-1.5992,-1.7216,-1.9221,-2.1981,-2.6844,-3.0433,-3.0794,-3.4843,-3.7981,-3.8302,-3.9821,-4.0499,-3.9524,-3.9754,-3.9833,-3.9397,-3.8571,-3.7393,-3.5812,-3.5244,-3.4121,-3.2252,-3.2263,-3.1793,-3.0695,-3.0295,-2.9783,-2.9142,-2.8345,-2.8142,-2.8478,-2.8329,-2.8648,-2.9372,-2.957,-2.9439,-2.8938,-2.7425,-2.6898,-2.6909,-2.462,-2.4083,-2.4635,-2.3846,-2.3934,-2.4523,-2.4625,-2.4272,-2.387,-2.3964,-2.4292,-2.4492,-2.3663,-2.3422,-2.3328,-2.257,-2.2554,-2.2772,-2.2772,-2.2972,-2.3189,-2.3189,-2.2972,-2.2963,-2.3649,-2.3549,-2.3328,-2.3328,-2.3808,-2.3935,0.0,0.0,-2.6446,-2.7756,-2.7838,-2.7724,-2.771,-2.7603,-2.7552,-2.7625,-2.7198,0.0,0.0,0.0,0.0,0.0,0.0,0.0,0.0,0.0,0.0,-2.2693,-2.7222,0.0,-2.991,0.0,-3.1013,-2.9433,-2.9264,-2.8775,-2.7984,-2.7997,-2.8046,-2.8161,-2.8172,-2.8487,-2.9021,-2.914,-2.9745,-3.0626,-3.0814,-3.1919,-3.3392,-3.3652,-3.2812,-3.1562,-1.9835,-2.1134,-2.3147,-2.6402,-3.0369,-3.42,-3.7411,-3.9906,-4.1521,-4.1781,-4.2724,-4.289,-4.169,-4.1244,-4.0268,-3.8359,-3.863,-3.755,-3.4319,-3.5155,-3.4454,-3.154,-3.1968,-3.1907,-3.1104,-3.0432,-3.0041,-2.9911,-2.9171,-2.8838,-2.8887,-2.9079,-2.914,-2.9089,-2.9332,-2.8569,-2.7056,-2.6823,-2.6526,-2.6175,-2.5485,-2.549,-2.5781,-2.4713,-2.4404,-2.4591,-2.5186,-2.5727,-2.5947,-2.4785,-2.4867,-2.5169,-2.3816,-2.3579,-2.366,-2.285,-2.2848,-2.3117,-2.3117,-2.3165,-2.3189,-2.3189,-2.3165,-2.3153,-2.3287,-2.3057,-2.2824,-2.2824,-2.2771,-2.2829,-2.3192,0.0,0.0,-2.796,-2.7752,-2.7656,-2.8693,-2.9081,-2.9425,-2.9875,-2.9026,-2.8286,0.0,0.0,0.0,0.0,0.0,0.0,0.0,0.0,0.0,0.0,-2.8005,0.0,0.0,0.0,-3.1256,-3.0206,-2.9467,-2.8698,-2.7928,-2.7909,-2.8285,-2.8901,-2.8687,-2.9175,-3.0129,-3.0147,-3.0323,-3.0728,-3.1992,-3.2794,-3.3421,-3.4964,-3.5351,-3.5117,-2.4789,-2.5728,-2.7461,-3.1176,-3.4293,-3.7263,-4.0142,-4.1999,-4.2662,-4.149,-4.1315,-4.1066,-4.0488,-4.0594,-4.0229,-3.9135,-3.8465,-3.7113,-3.4735,-3.4335,-3.3299,-3.128,-3.1529,-3.1546,-3.1207,-2.987,-2.9593,-3.0396,-2.8422,-2.8083,-2.9307,-2.8907,-2.8823,-2.8998,-2.8713,-2.8064,-2.7196,0.0,0.0,-2.6561,-2.5875,-2.5697,-2.5785,-2.5223,-2.5027,-2.5131,-2.59,-2.6662,-2.7182,-2.6241,-2.6333,-2.6519,-2.4975,-2.4599,-2.4489,-2.3323,-2.3189,-2.3459,-2.3459,-2.3588,-2.3714,-2.3714,-2.3588,-2.3459,-2.3459,-2.3189,-2.2972,-2.2972,-2.2857,-2.2972,-2.3734,-2.4796,0.0,0.0,0.0,0.0,-2.9307,-2.9655,-2.9806,-2.9646,-2.9293,-2.8957,-2.8685,-2.6294,-2.3734,-2.1171,-2.002,0.0,0.0,0.0,0.0,0.0,0.0,0.0,0.0,0.0,0.0,-3.0379,-2.9967,-2.9563,-2.9198,-2.9198,-2.941,-2.9775,-2.964,-2.9898,-3.0487,-3.0979,-3.1223,-3.1388,-3.259,-3.3401,-3.4044,-3.4948,-3.5588,-3.5996,-2.9746,-3.0548,-3.1994,-3.5447,-3.7874,-3.9877,-4.1539,-4.268,-4.2717,-4.0864,-3.9853,-3.9357,-3.9395,-3.9719,-3.991,-3.9853,-3.8209,-3.6643,-3.5351,-3.3777,-3.2423,-3.1351,-3.1312,-3.1312,-3.1312,-2.9523,-2.9174,-3.0449,-2.7995,-2.7615,-2.9199,-2.8765,-2.8611,-2.87,-2.8264,0.0,0.0,0.0,-2.6862,-2.7266,-2.6433,-2.5993,-2.5859,-2.5782,-2.5747,-2.5835,-2.6462,-2.727,-2.7964,-2.7631,-2.7707,-2.7649,-2.6233,-2.5701,-2.5344,-2.3958,-2.3688,-2.3816,-2.3816,-2.3996,-2.419,-2.419,-2.3996,-2.3816,-2.3816,-2.3544,-2.3323,-2.3323,-2.3378,-2.3708,-2.4513,-2.5512,0.0,0.0,0.0,0.0,0.0,-3.0174,-2.9932,-2.8981,-2.9264,-2.9306,-2.8688,0.0,0.0,0.0,0.0,0.0,0.0,0.0,0.0,0.0,0.0,-3.1,-3.0476,0.0,-3.1059,0.0,-3.0463,-3.0398,-3.0398,-3.0398,-3.0417,-3.0417,-3.0448,-3.0579,-3.0846,-3.1623,-3.2019,-3.2285,-3.3156,-3.3972,-3.4652,-3.4797,-3.5463,-3.6289,-3.3945,-3.5387,-3.6906,-3.8328,-4.0291,-4.1984,-4.2898,-4.2431,-4.2063,-4.2256,-4.1568,-4.1072,-4.1072,-4.0055,-3.9279,-3.9031,-3.7847,-3.6471,-3.4954,-3.4461,-3.3494,-3.1823,-3.1752,-3.1752,-3.1752,-3.0197,-2.9499,-2.9681,-2.9422,-2.8808,0.0,-2.937,-2.926,0.0,0.0,0.0,0.0,-2.7767,-2.8016,-2.7734,-2.7692,-2.7433,-2.7004,-2.6703,-2.6586,-2.6604,-2.6674,-2.7415,-2.8368,-2.8298,-2.8129,-2.7756,-2.6933,-2.6336,-2.5805,-2.4982,-2.446,-2.4151,-2.4151,-2.417,-2.419,-2.419,-2.417,-2.4151,-2.4151,-2.3896,-2.3649,-2.3649,-2.3986,-2.4622,-2.5715,-2.622,-2.7308,0.0,0.0,0.0,0.0,-3.1177,-3.0658,-2.924,-2.9855,-2.9777,-2.8223,-2.6468,0.0,0.0,-2.2217,0.0,0.0,0.0,0.0,-2.7557,0.0,-3.1874,-3.1395,-3.1328,0.0,-3.1206,-3.0663,-3.0398,-3.0398,-3.0467,-3.0487,-3.0487,-3.0544,-3.1023,-3.1787,-3.1941,-3.2463,-3.3265,-3.4124,-3.4568,-3.4771,-3.5435,-3.6328,-3.7207,-3.7033,-3.7612,0.0,0.0,0.0,0.0,0.0,-4.2104,-4.1687,-4.1336,-4.1029,-4.0628,-4.0149,-3.9634,-3.8969,-3.8191,-3.705,-3.5839,-3.4527,-3.3954,-3.3098,-3.1861,-3.2057,-3.2196,-3.2196,-3.0705,-3.0269,-3.1044,-3.0062,0.0,0.0,0.0,0.0,0.0,0.0,-2.7915,-2.7365,-2.7835,-2.7949,-2.7838,-2.8367,-2.8161,-2.7547,-2.7429,-2.7357,-2.7357,-2.7357,-2.8062,-2.8971,-2.8803,-2.8676,-2.8431,-2.7659,-2.6931,-2.6198,-2.5418,-2.4734,-2.419,-2.419,-2.419,-2.419,-2.419,-2.419,-2.4228,-2.4339,-2.4284,-2.4211,-2.4335,-2.4504,-2.4931,-2.5875,-2.6524,-2.7489,0.0,0.0,0.0,0.0,0.0,-3.0228,-2.8637,-2.8845,-2.8618,-2.7396,-2.6816,0.0,0.0,0.0,0.0,0.0,0.0,0.0,-2.8048,0.0,-3.0527,-3.0535,-3.0415,-3.0405,-3.0528,-3.0439,-3.0398,-3.0398,-3.0417,-3.0737,-3.1299,-3.1395,-3.1937,-3.2793,-3.3381,-3.3838,-3.4237,-3.5093,-3.5469,-3.5562,-3.6303,-3.6819,-3.7258,-3.9229,0.0,-4.0023,0.0,-4.1453,-4.1349,-4.1928,-4.17,-4.1239,-4.0585,-4.0489,-4.0277,-3.97,-3.9431,-3.893,-3.8057,-3.671,-3.5525,-3.4641,-3.3811,-3.3027,-3.2264,-3.2533,0.0,-3.2713,-3.1413,-3.0969,-3.1465,-3.0567,0.0,0.0,0.0,0.0,0.0,-2.8547,-2.8186,-2.792,-2.8204,-2.8357,-2.8413,-2.8966,-2.8727,-2.8025,-2.8025,-2.7964,-2.788,-2.788,-2.8542,-2.9372,-2.9181,-2.916,-2.9092,-2.8364,-2.7603,-2.6833,-2.6264,-2.5364,-2.4538,-2.4538,-2.4373,-2.4209,-2.4266,-2.4284,-2.4339,-2.4526,-2.4575,-2.4623,-2.4775,-2.4978,-2.5393,-2.6201,-2.7078,-2.8082,-2.937,0.0,0.0,0.0,-3.0871,-3.0386,-2.8956,-2.9102,-2.8835,-2.7672,-2.7737,0.0,0.0,0.0,0.0,0.0,0.0,0.0,0.0,0.0,0.0,0.0,-2.9802,-2.9713,-2.9924,-3.015,-3.0323,-3.0398,-3.0686,-3.1322,-3.2211,-3.2308,-3.285,-3.3703,-3.4378,-3.4773,-3.5086,-3.5942,-3.6294,-3.6398,-3.717,-3.7618,-3.792,-4.0364,-4.1386,-4.226,-4.2295,-4.2285,-4.2213,-4.2035,-4.1258,-4.0658,-4.0508,-4.0489,-4.0489,-4.0489,-3.9777,-3.9196,-3.8916,-3.7051,-3.5778,-3.5501,-3.4423,-3.3606,0.0,0.0,-3.3184,-3.3184,-3.2408,-3.142,-3.0228,0.0,0.0,-2.8165,0.0,-2.9138,-2.8146,-2.9212,-2.9082,-2.8165,-2.9231,-2.9677,-2.9677,-2.9696,-2.9204,-2.8501,-2.8501,-2.833,-2.8109,-2.8109,-2.8649,-2.9412,-2.9392,-2.9532,-2.9607,-2.9141,-2.8429,-2.7769,-2.7769,-2.6631,-2.5403,-2.5403,-2.4795,-2.4247,-2.4444,-2.4495,-2.4561,-2.4746,-2.4804,-2.4804,-2.4804,-2.5435,-2.623,-2.7053,-2.8055,-2.9355,-3.1099,0.0,0.0,0.0,-3.1884,-3.1583,-3.0756,-3.1369,-3.12,-2.9531,-2.9244,0.0,0.0,0.0,0.0,0.0,0.0,0.0,-3.1388,-3.0618,0.0,-3.081,-2.9867,-2.9494,-2.9713,-2.9908,-3.015,-3.0417,-3.1359,-3.2308,-3.3174,-3.3174,-3.3686,-3.449,-3.449,-3.4964,-3.5762,-3.6654,-3.6997,-3.7094,-3.7949,-3.8825,-3.9569,-4.0777,-4.1199,-4.1542,-4.1542,-4.0976,-4.0504,-4.0433,-3.9575,-3.8911,-3.8873,-3.9335,-3.9681,-3.9681,-3.8911,-3.8066,0.0,-3.5875,-3.4824,0.0,-3.396,-3.3606,-3.3214,-3.3465,-3.3606,-3.3606,-3.2812,-3.1934,-3.1017,0.0,0.0,0.0,-3.0633,-3.0292,-2.9396,-2.9616,-2.951,-2.9212,-2.9565,-2.9696,-2.9696,-2.9696,-2.9563,-2.9317,-2.9317,-2.9283,-2.9157,-2.9043,-2.9345,-2.9763,-2.9494,-2.9607,-2.9861,-2.957,-2.8933,-2.8277,-2.8277,-2.7528,-2.657,-2.5972,-2.5618,-2.5298,-2.4817,-2.47,-2.476,-2.4904,-2.5049,-2.5138,-2.5138,-2.5375,-2.6037,-2.7484,-2.8068,-2.8867,-3.058,-3.0684,0.0,-3.0975,0.0,-3.0772,-2.9979,-3.0113,-2.9812,-2.8703,-2.9531,0.0,0.0,0.0,0.0,0.0,0.0,0.0,0.0,-3.0641,0.0,-3.1008,-3.0618,-3.0243,-2.9908,-3.015,-3.0618,-3.1333,-3.2212,-3.3102,-3.3959,-3.4052,-3.4901,-3.6195,-3.6195,-3.6709,-3.7494,-3.7783,-3.7894,-3.7983,-3.8762,-3.9234,-3.9611,-4.0808,-4.0976,-4.0962,-4.0683,-4.0117,-3.959,-3.9258,-3.8633,-3.8188,-3.8094,-3.8527,-3.8849,-3.8815,-3.8027,0.0,-3.6837,-3.5875,-3.4938,-3.4073,-3.408,-3.3968,-3.3588,-3.3813,-3.3935,-3.3935,0.0,0.0,-3.1685,-3.131,-3.1032,-3.0803,-3.0925,-3.0619,-2.9999,-2.9973,-2.9912,-2.9813,-2.9912,-2.9962,-2.9962,-2.9962,-2.9962,-2.9962,-2.9962,-2.9848,-2.9678,-2.9551,-2.9678,-2.9845,-2.9607,-2.9799,-3.0122,-3.0007,-2.9616,-2.9182,-2.9007,-2.8388,-2.7629,-2.7085,-2.6726,-2.6382,-2.5963,-2.5844,-2.581,-2.5631,-2.5943,-2.6197,-2.59,-2.613,-2.6824,-2.8266,-2.8565,-2.9148,-3.0849,-3.0849,-3.0671,-3.0704,0.0,-3.0681,0.0,0.0,0.0,0.0,-3.12,-3.1776,0.0,0.0,0.0,0.0,0.0,0.0,-3.1862,-3.1281,0.0,-3.151,-3.1127,-3.0781,-3.0509,-3.1072,-3.1795,-3.266,-3.3551,-3.4397,-3.5218,-3.5647,-3.6402,-3.7377,-3.7377,-3.7685,-3.8219,-3.8546,-3.8666,-3.8766,-3.9531,-3.98,-3.9992,-4.0458,-4.0665,-4.0507,0.0,-3.9608,0.0,-3.8457,-3.8262,-3.8154,-3.7964,-3.7978,-3.7983,-3.7911,-3.7199,-3.6934,-3.7502,0.0,0.0,0.0,-3.4694,-3.4551,-3.4265,-3.4223,-3.4223,-3.4223,-3.4223,-3.3577,-3.2222,-3.0782,-3.0071,-3.0028,-3.0279,-3.0267,-3.0028,-3.0299,-3.0254,-3.0028,-3.0279,-3.0398,-3.0398,-3.0367,-3.0367,-3.0367,-3.0355,-3.0099,-2.9731,-2.9713,-2.9731,-2.9748,-2.9731,-3.006,-3.0494,-3.0494,-3.0494,-3.0388,-2.9899,-2.9217,-2.8626,-2.8569,-2.8001,-2.7456,-2.7592,-2.7612,-2.7459,-2.6839,-2.7332,-2.7689,-2.6959,-2.7498,-2.8386,-2.9335,-2.9547,-3.0133,-3.1748,-3.1337,-3.0834,-3.0895,0.0,-3.1172,0.0,0.0,0.0,0.0,-3.3712,-3.3141,0.0,0.0,0.0,0.0,0.0,-3.2749,-3.2591,-3.2405,-3.2297,-3.2317,-3.1561,-3.1267,-3.1416,-3.2467,-3.341,-3.4218,-3.5161,-3.5988,-3.6757,-3.7623,-3.8027,-3.8084,-3.8084,-3.8123,-3.8257,-3.9065,-3.9373,-3.9469,-4.0219,-4.0489,-4.0623,0.0,0.0,-3.9844,-3.9719,-3.8633,-3.7734,-3.7578,-3.6953,-3.6433,-3.6289,-3.6803,-3.7151,-3.7026,-3.6834,-3.6748,-3.691,-3.5987,-3.5278,-3.5018,-3.4813,-3.4674,-3.4591,-3.4572,-3.4572,-3.4572,-3.4572,-3.3865,-3.2414,-3.1451,-3.0753,-3.0311,-3.0367,-3.0367,-3.0311,-3.0367,-3.0367,-3.0311,-3.0367,-3.0398,-3.0379,-3.0182,-3.0089,-3.0075,-2.9927,-2.9877,-2.9908,-2.9765,-2.9927,-3.0202,-3.0003,-3.0576,-3.1391,-3.1391,-3.1391,-3.1232,-3.0465,-3.0094,-2.9819,-2.913,-2.8816,-2.8541,-2.7969,-2.7876,-2.7887,-2.7775,-2.7902,-2.8,-2.7815,-2.8501,-2.941,-3.0296,-3.1042,-3.1672,-3.2087,-3.1987,-3.1626,-3.0996,-3.0898,0.0,0.0,-3.2122,-3.2422,-3.2974,-3.3141,-3.3237,0.0,0.0,0.0,0.0,-3.3761,-3.3734,-3.3503,-3.324,-3.3204,-3.342,-3.3227,-3.2924,-3.2532,-3.3455,-3.3987,-3.4237,-3.5738,-3.6526,-3.6757,-3.7623,-3.8373,-3.8988,-3.8988,-3.9354,-3.9931,-4.0142,-4.0219,-4.0239,-4.0431,-4.0489,-4.0719,-3.9281,-3.9138,-3.8907,-3.9046,-3.7974,-3.7028,-3.6757,-3.6251,-3.5859,-3.573,-3.6043,-3.6271,-3.6161,-3.6161,-3.6161,-3.6161,-3.5618,-3.5289,-3.5289,-3.5157,-3.4999,-3.4889,-3.4889,-3.4889,-3.4889,-3.4889,-3.4162,-3.267,-3.1881,-3.1111,-3.0398,-3.0398,-3.0398,-3.0398,-3.0398,-3.0398,-3.0398,-3.0267,-3.0209,-3.0196,-2.9973,-2.9861,-2.9845,-2.9729,-2.9713,-2.9787,-3.0165,-3.0468,-3.0729,-3.1077,-3.1651,-3.2256,-3.2256,-3.2256,-3.216,-3.1679,-3.1006,-3.039,-3.0314,-3.0006,-2.9679,-2.9671,-2.9429,-2.9298,-2.9743,-2.9838,-2.9849,-2.9921,-3.0634,-3.1391,-3.1896,-3.2402,-3.2754,-3.2754,-3.2391,-3.1956,-3.1542,-3.1445,0.0,-3.2474,-3.2865,-3.321,-3.3532,-3.3878,-3.3949,-3.3622,0.0,0.0,-3.416,-3.4199,-3.4139,-3.4002,-3.4238,-3.4238,-3.3987,-3.437,-3.4218,-3.3506,-3.5141,-3.5718,-3.5391,-3.7103,-3.7892,-3.793,-3.8777,-3.9411,-3.9835,-3.9835,-4.0104,-4.0489,-4.0489,-4.0489,-4.0508,-4.0581,-4.0831,-4.1386,-3.8623,-3.8334,-3.7892,-3.8065,-3.7398,-3.6644,-3.6071,-3.5929,-3.5842,-3.5693,-3.5643,-3.5603,-3.5526,-3.5526,-3.5545,-3.5526,-3.5526,-3.5526,-3.5493,-3.5493,-3.5383,-3.5174,-3.5155,-3.5155,-3.5155,-3.5155,-3.447,-3.3103,-3.2295,-3.1455,-3.0609,-3.0475,-3.0494,-3.0609,-3.059,-3.0636,-3.0695,-3.0472,-3.0289,-3.0129,-3.0033,-2.9944,-2.985,-2.9963,-2.9945,-2.996,-3.0902,-3.1254,-3.1419,-3.2336,-3.2847,-3.3103,-3.3103,-3.3103,-3.3122,-3.3256,-3.2102,-3.0948,-3.1679,-3.1352,-3.0999,-3.181,-3.1523,-3.121,-3.1957,-3.2124,-3.216,-3.228,-3.3054,-3.3674,-3.3608,-3.3809,-3.3945,-3.3809,-3.3003,-3.2446,-3.2558,0.0,-3.2513,-3.3312,-3.406,-3.448,-3.441,-3.4949,-3.4737,-3.3391,-3.3718,-3.4122,0.0,-3.4257,-3.4257,-3.4391,-3.5122,-3.5141,-3.4391,-3.5141,-3.5199,-3.4603,-3.6776,-3.7488,-3.6949,-3.8565,-3.9296,-3.9335,-4.0142,-4.0489,-4.0489,-4.0489,-4.0489,-4.0489,-4.0489,-4.0489,-4.0543,-4.0793,-4.1366,-4.2148,-3.7046,-3.7089,-3.7108,-3.719,-3.6554,-3.6039,-3.593,-3.5913,-3.5842,-3.5631,-3.5649,-3.5661,-3.5603,-3.5641,-3.5661,-3.5603,-3.5584,-3.5565,-3.5493,-3.5493,-3.5493,-3.5446,-3.5432,-3.5432,-3.5432,-3.5432,-3.4979,-3.3987,-3.3186,-3.2385,-3.1571,-3.0821,-3.0879,-3.159,-3.1513,-3.1744,-3.218,-3.213,-3.1583,-3.0789,-3.1272,-3.1075,-3.0516,-3.1229,-3.1614,-3.1808,-3.2224,-3.2454,-3.2634,-3.2814,-3.3359,-3.3987,-3.3987,-3.3987,-3.4141,-3.4891,-3.3872,-3.2545,-3.2679,-3.2711,-3.2725,-3.2936,-3.2936,-3.2938,-3.3127,-3.3161,-3.316,-3.3197,-3.4464,-3.5364,-3.4629,-3.5703,-3.6445,-3.5723,-3.486,-3.4293,-3.4313,0.0,-3.3476,-3.4294,-3.4445,-3.473,-3.5334,-3.4795,-3.4584,-3.5064,-3.3853,-3.3737,-3.5218,-3.4603,-3.4545,-3.5276,-3.543,-3.5449,-3.5315,-3.543,-3.5776,-3.6315,-3.6719,-3.7219,-3.7834,-3.8834,-3.9296,-3.9335,-4.0142,-4.0489,-4.0489,-4.0489,-4.0489,-4.0489,-4.0489,-4.0489,-4.062,-4.1482,-4.1882,-4.2251,-3.6704,-3.6474,-3.6383,-3.6949,-3.6357,-3.581,-3.589,-3.5815,-3.5718,-3.5622,-3.5603,-3.5584,-3.5565,-3.5622,-3.5641,-3.5603,-3.5603,-3.5603,-3.5622,-3.5545,-3.5493,-3.5493,-3.5493,-3.5526,-3.5565,-3.5565,-3.5147,-3.4359,-3.3999,-3.3145,-3.1844,-3.14,-3.1416,-3.1802,-3.1737,-3.2071,-3.2718,-3.2596,-3.2172,-3.16,-3.1757,-3.1595,-3.1297,-3.1651,-3.197,-3.2297,-3.2978,-3.331,-3.348,-3.4095,-3.4564,-3.4911,-3.4911,-3.5199,-3.5622,-3.6026,-3.4949,-3.3506,-3.3026,-3.3314,-3.3774,-3.3867,-3.4294,-3.4842,-3.5388,-3.5137,-3.5078,-3.6016,-3.6465,-3.6719,-3.6797,-3.707,-3.7168,-3.6777,-3.5547,0.0,0.0,-3.4619,-3.4328,-3.5093,-3.5169,-3.5248,-3.552,-3.5161,-3.5064,-3.5468,-3.4757,-3.4661,-3.5468,-3.5122,-3.5084,-3.5488,-3.5493,-3.5493,-3.5493,-3.6411,-3.6796,-3.6719,-3.8084,-3.8719,-3.8719,-3.9565,-3.995,-3.9969,-4.0335,-4.0489,-4.0489,-4.0489,-4.0489,-4.0546,-4.1008,-4.12,-4.1316,-4.229,-4.298,-4.3576,-3.6435,-3.6061,-3.5861,-3.6639,-3.6196,-3.5766,-3.5836,-3.5718,-3.5603,-3.5584,-3.5705,-3.582,-3.582,-3.6065,-3.6238,-3.6238,-3.6045,-3.5949,-3.6001,-3.5721,-3.5547,-3.5545,-3.5565,-3.5584,-3.5622,-3.5624,-3.5244,-3.4499,-3.4314,-3.3516,-3.221,-3.1938,-3.201,-3.2385,-3.2301,-3.2692,-3.3388,-3.3191,-3.2804,-3.239,-3.2371,-3.2247,-3.2101,-3.2456,-3.2693,-3.2993,-3.3879,-3.4205,-3.4355,-3.5427,-3.5795,-3.5815,-3.6026,-3.6507,-3.7007,-3.7007,-3.6084,-3.493,-3.4276,-3.4493,-3.4969,-3.5271,-3.5909,-3.6593,-3.7102,-3.6874,-3.6875,-3.8047,-3.8086,-3.8047,-3.8516,-3.8223,-3.7832,-3.7637,0.0,0.0,0.0,-3.5773,-3.5398,-3.5981,-3.6004,-3.5863,-3.5553,-3.5526,-3.5493,-3.5493,-3.5493,-3.5493,-3.5493,-3.5493,-3.5493,-3.5493,-3.568,-3.5699,-3.5493,-3.7161,-3.7661,-3.7026,-3.9181,-3.9988,-3.9604,-4.0219,-4.0489,-4.0489,-4.0489,-4.0489,-4.0489,-4.0489,-4.0489,-4.0585,-4.147,-4.1797,-4.195,-4.3063,-4.402,-4.4733,-3.5589,-3.5649,-3.5721,-3.5799,-3.5857,-3.5862,-3.5732,-3.5661,-3.5584,-3.5526,-3.6262,-3.6801,-3.6801,-3.7584,-3.8099,-3.8099,-3.7358,-3.6897,-3.6901,-3.6135,-3.5688,-3.5694,-3.5699,-3.5699,-3.5699,-3.5689,-3.5293,-3.4508,-3.374,-3.3286,-3.3096,-3.2268,-3.2696,-3.4101,-3.4051,-3.4352,-3.4914,-3.4661,-3.393,-3.2993,-3.3715,-3.3585,-3.3056,-3.4358,-3.488,-3.4933,-3.5268,-3.5364,-3.5498,-3.632,-3.6622,-3.6757,-3.7565,-3.7853,-3.7892,-3.7892,-3.7815,-3.7719,-3.7642,-3.7166,-3.6877,-3.7651,-3.7984,-3.7929,-3.719,-3.765,-3.8047,-3.7422,-3.8594,-3.9473,-3.873,-3.9219,-3.9434,-3.8633,0.0,0.0,-3.8281,-3.7549,-3.6947,-3.7089,-3.6934,-3.6483,-3.568,-3.5545,-3.5493,-3.5493,-3.5493,-3.5493,-3.5493,-3.5493,-3.5493,-3.5493,-3.6219,-3.6257,-3.5526,-3.7161,-3.7969,-3.7911,-3.8911,-3.9738,-4.0412,-4.0469,-4.0489,-4.0489,-4.0489,-4.0489,-4.0489,-4.0489,-4.0489,-4.0585,-4.147,-4.1797,-4.2008,-4.3756,-4.452,-4.4829,-3.5565,-3.5649,-3.5727,-3.5802,-3.5791,-3.5755,-3.5707,-3.5622,-3.5718,-3.618,-3.6551,-3.6974,-3.7526,-3.795,-3.8219,-3.8291,-3.8007,-3.7623,-3.7221,-3.6841,-3.6355,-3.5737,-3.5698,-3.5734,-3.5828,-3.5809,-3.5673,-3.5383,-3.5059,-3.4603,-3.4003,-3.3576,-3.3708,-3.4293,-3.4224,-3.462,-3.5354,-3.5239,-3.4843,-3.432,-3.4642,-3.4585,-3.4415,-3.5435,-3.5952,-3.6174,-3.6825,-3.7046,-3.7103,-3.7411,-3.7507,-3.7565,-3.7892,-3.8373,-3.8892,-3.9392,-3.92,-3.8911,-3.9411,-3.8988,-3.8354,-3.8146,-3.8954,-3.9586,-3.8793,-3.8896,-3.9194,-3.9394,-3.9585,-3.976,-3.9936,-3.9819,-3.976,-3.9936,0.0,-3.8215,-3.9097,-3.8427,-3.7831,-3.7767,-3.77,-3.7493,-3.7123,-3.7065,-3.7046,-3.7046,-3.6546,-3.6238,-3.6238,-3.5776,-3.5493,-3.5493,-3.6796,-3.7103,-3.6257,-3.795,-3.8815,-3.8815,-3.9642,-4.02,-4.0489,-4.0489,-4.0489,-4.0489,-4.0489,-4.0489,-4.0527,-4.1085,-4.1316,-4.1431,-4.2816,-4.3355,-4.3508,-4.4833,-4.5353,-4.55,-3.5565,-3.5641,-3.572,-3.5825,-3.5792,-3.5749,-3.5708,-3.5603,-3.5834,-3.6642,-3.6949,-3.745,-3.8334,-3.87,-3.8911,-3.9042,-3.8541,-3.8067,-3.7637,-3.71,-3.6495,-3.5812,-3.5797,-3.5846,-3.594,-3.5912,-3.5776,-3.5474,-3.5455,-3.5109,-3.4438,-3.4263,-3.4352,-3.4672,-3.4534,-3.4856,-3.5493,-3.5417,-3.5273,-3.5105,-3.5105,-3.5105,-3.5162,-3.5818,-3.6312,-3.6776,-3.7373,-3.7777,-3.8046,-3.8315,-3.8411,-3.845,-3.87,-3.9373,-4.0181,-4.0739,-4.07,-4.0546,-4.0835,-4.0508,-3.9892,-3.9065,-3.9738,-4.0431,-3.9665,-3.9734,-4.0014,-4.0303,-4.016,-4.016,-4.0703,-4.0354,-4.0072,-4.0373,-3.9471,-3.8917,-3.9529,-3.9053,-3.8609,-3.8517,-3.8488,-3.8354,-3.8027,-3.8007,-3.8007,-3.8007,-3.745,-3.7123,-3.7123,-3.6334,-3.6007,-3.6276,-3.7661,-3.8123,-3.7526,-3.895,-3.9546,-3.9296,-4.0104,-4.0508,-4.0562,-4.0508,-4.0662,-4.0969,-4.0931,-4.1066,-4.1354,-4.197,-4.222,-4.2354,-4.3797,-4.4372,-4.4487,-4.5468,-4.5892,-4.5988,-3.5493,-3.5622,-3.5688,-3.5706,-3.5812,-3.5851,-3.5719,-3.5641,-3.5911,-3.6804,-3.7541,-3.8368,-3.9326,-4.0062,-4.0562,-4.0696,-3.9108,-3.816,-3.8286,-3.6797,-3.5937,-3.5996,-3.5996,-3.5996,-3.5996,-3.593,-3.5468,-3.4601,-3.4543,-3.4447,-3.4299,-3.4039,-3.4473,-3.5493,-3.5223,-3.5239,-3.5493,-3.5223,-3.5105,-3.5105,-3.5105,-3.5105,-3.5141,-3.5436,-3.6026,-3.6719,-3.6738,-3.7296,-3.8142,-3.9008,-3.9296,-3.945,-4.0258,-4.1104,-4.1816,-4.1816,-4.2431,-4.2912,-4.2047,-4.1816,-4.1604,-4.0719,-4.0508,-4.0296,-3.9508,-4.0062,-4.0466,-3.9615,-4.0158,-4.0812,-4.0793,-4.0812,-4.0562,-3.9742,-3.9627,-3.9627,-3.9627,-3.9496,-3.9415,-3.9407,-3.935,-3.8969,-3.8104,-3.8027,-3.8027,-3.8027,-3.8007,-3.8007,-3.8007,-3.718,-3.7123,-3.7988,-3.8854,-3.9296,-3.9296,-4.0085,-4.0085,-3.9315,-4.0104,-4.0581,-4.0696,-4.0562,-4.1046,-4.197,-4.1854,-4.2297,-4.3085,-4.3104,-4.3104,-4.3201,-4.4141,-4.4523,-4.4619,-4.5565,-4.5988,-4.6103,-3.5565,-3.5641,-3.574,-3.5821,-3.588,-3.5896,-3.5857,-3.6261,-3.6901,-3.7775,-3.8612,-3.9439,-4.0284,-4.0581,-4.0735,-4.0773,-3.9769,-3.864,-3.7472,-3.6366,-3.576,-3.5788,-3.5873,-3.5922,-3.5922,-3.5814,-3.562,-3.5301,-3.5282,-3.5224,-3.5147,-3.5062,-3.5192,-3.5493,-3.5417,-3.5432,-3.5493,-3.5398,-3.5383,-3.5383,-3.5383,-3.5729,-3.6305,-3.6978,-3.7777,-3.8604,-3.9161,-3.9527,-3.9777,-4.0046,-4.0546,-4.12,-4.2066,-4.2508,-4.272,-4.272,-4.2893,-4.3047,-4.2777,-4.272,-4.2508,-4.1623,-4.1412,-4.1508,-4.1873,-4.2181,-4.2143,-4.1258,-4.1777,-4.2027,-4.0812,-4.1585,-4.2143,-4.128,-4.1127,-4.1127,-4.1127,-4.0585,-4.0162,-4.0177,-4.0158,-4.0027,-3.9777,-3.9738,-3.9738,-3.9738,-3.9273,-3.8734,-3.8176,-3.7892,-3.7892,-3.82,-3.8911,-3.933,-3.9369,-4.0119,-4.0373,-4.0142,-4.0485,-4.0658,-4.0696,-4.0655,-4.0835,-4.1197,-4.1713,-4.212,-4.2492,-4.3717,-4.4215,-4.4311,-4.5141,-4.5471,-4.5522,-4.5893,-4.6065,-4.6111,-3.5603,-3.5699,-3.5795,-3.5892,-3.5924,-3.5937,-3.5898,-3.6577,-3.7279,-3.7797,-3.8889,-3.9788,-4.0308,-4.061,-4.0764,-4.0764,-3.9673,-3.8248,-3.6521,-3.593,-3.5656,-3.566,-3.5739,-3.5795,-3.5815,-3.5723,-3.5646,-3.5603,-3.5584,-3.5545,-3.5493,-3.5383,-3.5383,-3.5493,-3.5383,-3.5398,-3.5526,-3.5853,-3.5968,-3.6007,-3.6353,-3.6776,-3.7276,-3.7796,-3.8546,-3.9354,-3.9835,-4.0219,-4.0546,-4.0893,-4.1585,-4.2412,-4.2931,-4.3316,-4.3566,-4.3566,-4.3816,-4.4008,-4.3662,-4.3566,-4.3451,-4.2912,-4.2547,-4.245,-4.2989,-4.3104,-4.2951,-4.2431,-4.2739,-4.2777,-4.172,-4.2393,-4.2931,-4.2412,-4.2027,-4.1797,-4.1797,-4.1046,-4.0623,-4.0969,-4.1008,-4.1008,-4.1008,-4.1008,-4.0873,-4.0527,-3.9854,-3.9388,-3.9196,-3.891,-3.8923,-3.9273,-3.9683,-3.9895,-3.9908,-4.0369,-4.0562,-4.0489,-4.0639,-4.0703,-4.0706,-4.108,-4.1459,-4.1886,-4.2698,-4.3273,-4.3692,-4.473,-4.5169,-4.5233,-4.5767,-4.5978,-4.5995,-4.613,-4.6171,-4.6183,-3.5622,-3.5776,-3.59,-3.5907,-3.5961,-3.6016,-3.6016,-3.6777,-3.7337,-3.7328,-3.8674,-3.9622,-3.9596,-4.0148,-4.0516,-4.0593,-3.909,-3.7373,-3.5622,-3.5699,-3.5757,-3.5603,-3.571,-3.5767,-3.5748,-3.5647,-3.5603,-3.5603,-3.5545,-3.5493,-3.5493,-3.5239,-3.5273,-3.5493,-3.5239,-3.5312,-3.5661,-3.6392,-3.6738,-3.6892,-3.768,-3.8046,-3.8123,-3.8123,-3.8642,-3.9411,-3.9411,-3.9873,-4.0642,-4.1604,-4.2489,-4.322,-4.3297,-4.3835,-4.4412,-4.4412,-4.497,-4.5432,-4.4624,-4.4412,-4.4412,-4.4412,-4.3874,-4.3316,-4.3316,-4.3316,-4.3297,-4.322,-4.3278,-4.3278,-4.3124,-4.322,-4.3297,-4.322,-4.2547,-4.2027,-4.2027,-4.1277,-4.1027,-4.1816,-4.1854,-4.1835,-4.1912,-4.1854,-4.145,-4.0566,-3.9992,-3.9988,-4.0669,-4.0052,-4.0044,-4.0776,-4.0779,-4.0798,-4.0812,-4.0812,-4.0696,-4.0508,-4.0639,-4.0737,-4.0846,-4.1713,-4.2574,-4.3477,-4.4335,-4.5129,-4.5835,-4.5893,-4.5952,-4.5946,-4.6065,-4.6124,-4.6139,-4.6253,-4.6308,-4.6308,-3.5795,-3.5872,-3.5921,-3.5962,-3.5991,-3.623,-3.6894,-3.7734,-3.8299,-3.83,-3.9188,-3.9579,-3.8922,-3.8878,-3.9154,-3.9774,-3.9345,-3.8027,-3.5661,-3.6738,-3.6892,-3.5584,-3.6534,-3.6797,-3.6186,-3.5748,-3.5526,-3.5526,-3.5526,-3.5493,-3.5493,-3.5446,-3.5446,-3.5493,-3.5446,-3.5792,-3.6449,-3.6642,-3.7084,-3.7738,-3.7911,-3.8411,-3.9008,-3.9008,-3.9527,-4.0239,-4.0239,-4.0335,-4.0739,-4.2297,-4.3355,-4.4162,-4.4836,-4.5182,-4.5316,-4.5316,-4.5451,-4.5547,-4.5355,-4.5316,-4.5316,-4.5316,-4.5182,-4.5047,-4.5047,-4.5047,-4.4855,-4.4182,-4.4586,-4.4662,-4.3335,-4.4162,-4.4816,-4.4143,-4.3874,-4.3758,-4.3758,-4.3047,-4.2604,-4.2797,-4.222,-4.2066,-4.2758,-4.22,-4.145,-4.0566,-4.0469,-4.0521,-4.0684,-4.0552,-4.0558,-4.0801,-4.0648,-4.0945,-4.17,-4.1604,-4.1258,-4.0658,-4.0696,-4.1097,-4.1801,-4.201,-4.2616,-4.3615,-4.4489,-4.4996,-4.5245,-4.5929,-4.6202,-4.6221,-4.6245,-4.6257,-4.6261,-4.6287,-4.6308,-4.6308,-3.6496,-3.6871,-3.7194,-3.7224,-3.7246,-3.7383,-3.7851,-3.8604,-3.8972,-3.8564,-3.9624,-3.9911,-3.8598,-3.8771,-3.8926,-3.8849,-3.8738,-3.8104,-3.6776,-3.7507,-3.754,-3.6511,-3.7141,-3.7243,-3.6689,-3.6406,-3.6131,-3.5883,-3.5747,-3.564,-3.5512,-3.5752,-3.5959,-3.6103,-3.6507,-3.693,-3.7353,-3.7757,-3.82,-3.8642,-3.9046,-3.9469,-3.9873,-3.9873,-4.0392,-4.1066,-4.0642,-4.1027,-4.1931,-4.3239,-4.422,-4.4989,-4.5451,-4.5586,-4.5586,-4.5586,-4.5586,-4.5586,-4.5586,-4.5586,-4.5586,-4.5586,-4.5586,-4.5586,-4.5586,-4.5586,-4.547,-4.5009,-4.5278,-4.5316,-4.4451,-4.5009,-4.5451,-4.4989,-4.4566,-4.4297,-4.4297,-4.3605,-4.3239,-4.3624,-4.3278,-4.3162,-4.3624,-4.2948,-4.2101,-4.1181,-4.1662,-4.1782,-4.1332,-4.135,-4.1379,-4.1424,-4.0916,-4.1081,-4.1989,-4.1931,-4.1931,-4.1986,-4.1983,-4.2253,-4.2752,-4.3253,-4.3744,-4.4265,-4.5184,-4.5587,-4.5664,-4.6113,-4.6308,-4.6308,-4.6308,-4.6308,-4.6308,-4.6308,-4.6308,-4.6308,-3.7414,-3.8046,-3.8576,-3.8576,-3.8565,-3.8609,-3.8745,-3.9293,-3.9418,-3.8693,-3.9863,-4.0132,-3.8481,-3.9062,-3.9151,-3.8094,-3.8257,-3.8315,-3.8027,-3.8228,-3.8098,-3.7545,-3.7681,-3.7595,-3.7239,-3.7319,-3.7065,-3.6426,-3.6251,-3.6064,-3.5854,-3.6364,-3.6722,-3.6949,-3.768,-3.8084,-3.8277,-3.8988,-3.9373,-3.9546,-4.0219,-4.0489,-4.0489,-4.0489,-4.1046,-4.172,-4.0969,-4.1835,-4.3412,-4.4085,-4.4874,-4.5586,-4.5586,-4.5586,-4.5586,-4.5586,-4.5586,-4.5586,-4.5586,-4.5586,-4.5586,-4.5586,-4.5586,-4.5586,-4.5586,-4.5586,-4.5586,-4.5586,-4.5586,-4.5586,-4.5586,-4.5586,-4.5586,-4.5586,-4.4989,-4.4509,-4.4509,-4.3951,-4.3778,-4.4432,-4.4509,-4.4412,-4.4124,-4.366,-4.3006,-4.2085,-4.2854,-4.3008,-4.222,-4.2252,-4.2268,-4.2268,-4.1578,-4.1582,-4.2393,-4.2393,-4.2874,-4.3833,-4.3818,-4.3763,-4.366,-4.4569,-4.5021,-4.5152,-4.5948,-4.6308,-4.6308,-4.6308,-4.6308,-4.6308,-4.6308,-4.6308,-4.6308,-4.6308,-4.6308,-4.6308,-3.8248,-3.8423,-3.8433,-3.8433,-3.8375,-3.8585,-3.9351,-3.956,-3.9577,-3.9446,-3.9634,-3.9399,-3.8408,-3.8977,-3.9032,-3.8084,-3.9335,-3.9546,-3.8084,-3.9138,-3.9109,-3.7565,-3.8399,-3.8551,-3.7821,-3.8247,-3.8005,-3.6996,-3.7185,-3.7261,-3.7238,-3.7613,-3.7786,-3.7834,-3.795,-3.8411,-3.9123,-3.9238,-3.97,-4.0335,-4.045,-4.0489,-4.0489,-4.0489,-4.1046,-4.1777,-4.1681,-4.272,-4.4143,-4.4259,-4.4874,-4.5586,-4.5586,-4.5586,-4.5586,-4.5586,-4.5586,-4.5586,-4.5586,-4.5586,-4.5586,-4.5586,-4.5586,-4.5586,-4.5586,-4.5586,-4.5586,-4.5586,-4.5586,-4.5586,-4.5586,-4.5586,-4.5586,-4.5586,-4.549,-4.5413,-4.5413,-4.5316,-4.5297,-4.5413,-4.5413,-4.4855,-4.3393,-4.3797,-4.3797,-4.2989,-4.3066,-4.3085,-4.2951,-4.2951,-4.2951,-4.2951,-4.2854,-4.3181,-4.397,-4.3989,-4.4509,-4.5565,-4.5564,-4.5241,-4.4616,-4.4824,-4.5285,-4.594,-4.6192,-4.6308,-4.6308,-4.6308,-4.6308,-4.6308,-4.6308,-4.6308,-4.6308,-4.6308,-4.6308,-4.6308,-3.7791,-3.8544,-3.9131,-3.9131,-3.943,-3.9823,-4.0203,-4.0242,-4.0211,-4.0196,-4.0219,-3.9875,-3.896,-3.8709,-3.8646,-3.8719,-3.9392,-3.9634,-3.9195,-3.9757,-3.958,-3.8437,-3.8845,-3.8841,-3.8356,-3.8728,-3.8674,-3.8216,-3.7897,-3.7752,-3.7792,-3.8274,-3.8588,-3.8738,-3.92,-3.9604,-3.9969,-3.9969,-4.0181,-4.0489,-4.0489,-4.0777,-4.1239,-4.1239,-4.2047,-4.3258,-4.3739,-4.4085,-4.4374,-4.4855,-4.5278,-4.5586,-4.5586,-4.5586,-4.5586,-4.5586,-4.5586,-4.5586,-4.5586,-4.5586,-4.5586,-4.5586,-4.5586,-4.5586,-4.5586,-4.5586,-4.5586,-4.5586,-4.5586,-4.5586,-4.5586,-4.5586,-4.5586,-4.5586,-4.5586,-4.5586,-4.5586,-4.5586,-4.5586,-4.5586,-4.5586,-4.5297,-4.4566,-4.4816,-4.4682,-4.3835,-4.422,-4.4278,-4.3797,-4.3778,-4.3778,-4.3778,-4.3335,-4.3508,-4.441,-4.441,-4.4949,-4.6007,-4.6008,-4.5879,-4.5644,-4.567,-4.5877,-4.622,-4.6278,-4.6308,-4.6308,-4.6308,-4.6308,-4.6308,-4.6308,-4.6308,-4.6308,-4.6308,-4.6308,-4.6308]}]]